GEFSSE_500_meanwind_006.txt.gz
Wind_Speed
21 21 20 18 17 16 14 13 14 15 17 19 20 19 19 18 16 15 15 15 15 16 17 16 16 16 17 19 20 20 19 18 18 19 19 20 20 20 19 19 20 20 19
20 19 18 18 17 16 14 14 14 15 16 18 20 20 19 19 17 16 15 16 16 17 18 18 18 20 21 22 23 23 22 22 22 22 22 23 22 22 21 21 21 22 21
17 17 16 16 16 14 13 14 14 15 17 18 18 19 20 20 18 17 17 17 18 19 20 21 21 22 23 24 25 26 26 25 26 26 26 25 24 23 23 23 23 24 23
12 12 12 12 13 13 14 15 16 17 18 19 20 20 21 20 19 18 18 20 21 22 23 24 25 25 26 27 28 28 28 28 29 30 29 27 27 26 25 26 27 28 26
9 10 10 10 12 13 15 17 18 18 19 19 20 21 22 21 21 20 20 22 24 25 26 26 27 27 28 30 31 32 32 32 32 33 33 32 32 31 30 30 31 33 29
11 11 11 10 10 11 13 15 17 17 17 17 19 20 21 22 23 25 25 26 27 28 29 30 31 32 33 34 35 37 38 39 38 38 38 38 38 37 36 36 34 36 33
14 14 13 13 10 7 8 11 12 13 14 15 17 18 19 20 22 25 28 29 29 30 31 31 33 35 37 39 39 39 38 37 37 39 40 41 42 41 42 42 40 38 37
14 12 12 13 11 9 9 10 12 14 15 16 16 18 20 22 24 24 26 29 31 32 32 31 30 31 32 33 34 34 33 30 28 28 28 30 32 35 36 38 40 42 42
17 15 14 14 10 9 10 12 13 15 17 18 18 18 19 20 21 23 24 26 26 27 28 28 28 29 30 29 29 29 29 28 27 27 28 28 28 27 28 29 29 30 34
20 19 15 12 11 12 14 15 16 18 20 21 21 20 20 21 21 22 23 25 27 27 26 26 27 28 28 29 29 29 29 30 30 29 29 29 28 28 27 27 27 27 28
21 20 17 13 12 13 15 17 19 21 23 24 24 24 25 25 25 24 24 24 25 26 27 28 28 28 29 30 30 30 30 29 29 29 30 31 31 30 30 29 28 27 27
18 18 18 18 17 16 16 18 20 23 25 26 26 26 27 27 27 28 28 28 27 28 29 31 31 31 32 32 31 31 30 29 29 30 31 32 33 33 33 32 31 30 30
15 18 19 21 21 21 20 21 22 25 27 28 28 28 28 28 28 28 28 28 29 29 29 31 33 33 34 34 35 34 33 32 32 33 35 37 38 39 39 38 37 36 35
24 23 21 20 20 22 23 24 24 25 25 26 27 29 29 28 28 29 28 27 28 29 29 30 32 33 35 36 37 37 36 36 35 36 37 39 41 42 43 44 44 43 43
29 25 20 23 21 22 23 25 24 23 23 25 27 29 29 30 30 31 30 29 29 31 33 34 35 37 38 40 42 41 41 41 41 41 41 42 43 44 46 47 48 48 48
28 29 29 30 27 26 23 22 24 24 25 26 27 28 29 32 33 32 32 32 33 35 38 40 42 43 45 46 46 46 45 45 45 46 46 47 47 48 49 50 52 51 51
33 35 36 32 31 28 26 26 26 26 25 28 31 33 34 36 36 36 36 37 38 39 42 45 48 49 50 50 50 50 50 51 51 51 50 50 50 50 51 52 54 55 54
34 36 37 36 33 31 31 30 28 26 27 31 34 36 38 39 39 38 38 39 38 40 43 46 49 51 51 52 52 53 55 56 56 55 56 57 57 57 57 57 58 58 57
35 37 37 36 35 35 35 33 31 30 31 33 35 37 39 41 42 43 43 42 42 44 46 47 50 51 51 52 54 56 57 57 58 59 61 63 65 66 65 64 64 63 61
35 37 38 37 37 37 37 35 34 33 33 34 35 38 39 41 42 44 45 46 46 48 49 51 52 53 54 55 58 60 60 62 64 66 68 71 72 73 73 72 71 70 68
35 38 39 38 37 37 36 35 35 35 35 36 38 39 40 41 43 45 47 48 48 50 53 56 57 59 62 65 67 68 68 69 70 72 75 77 79 81 82 81 80 79 76
37 40 39 38 37 36 35 35 36 37 38 39 40 42 43 44 46 49 51 53 54 56 58 60 62 65 68 72 75 76 75 74 74 73 73 74 75 77 78 80 81 80 78
36 39 38 37 37 37 37 38 39 40 40 42 44 45 47 49 51 54 55 57 59 61 63 65 68 71 73 76 77 78 77 75 69 65 64 64 64 64 66 68 70 70 69
35 36 36 36 38 39 40 41 42 42 44 46 48 50 53 55 57 58 60 62 65 67 67 67 67 67 68 69 70 69 66 62 57 53 53 54 54 55 55 56 56 55 55
35 37 38 39 40 42 44 45 46 46 48 50 52 54 56 58 60 61 64 66 66 63 60 58 57 57 57 56 54 53 52 51 51 51 50 50 49 48 47 46 44 43 42
38 39 42 43 44 44 46 48 48 50 51 53 55 57 58 60 61 64 65 62 57 53 50 49 50 50 50 50 49 49 49 49 50 50 50 49 45 41 40 39 38 38 38

GEFSSE_500_meanwind_012.txt.gz
Wind_Speed
14 17 19 19 18 17 14 13 12 12 12 12 11 11 11 11 11 12 12 12 13 13 13 14 14 15 17 18 18 19 20 21 20 20 21 21 22 22 21 20 19 18 19
15 15 15 14 14 14 13 12 12 12 13 13 13 13 13 12 12 13 13 14 15 15 15 15 16 17 18 20 21 21 22 23 24 24 24 25 25 26 26 25 23 21 21
14 14 12 10 10 11 11 11 12 12 13 13 14 14 15 15 16 16 16 16 17 17 17 17 18 18 19 21 23 24 25 26 27 27 27 27 28 29 29 28 27 25 24
12 12 11 9 8 8 9 9 11 13 13 14 15 16 17 17 18 18 18 18 18 19 19 20 20 21 22 23 25 26 28 29 29 29 30 30 31 31 31 31 30 30 29
10 11 10 9 9 8 8 8 10 11 12 13 15 16 16 16 17 18 19 19 20 21 21 22 23 24 25 27 28 29 30 31 32 33 33 34 35 36 36 35 35 35 34
10 10 10 10 10 9 8 8 8 9 10 11 12 13 14 15 15 16 17 18 19 21 23 25 27 28 29 29 30 31 32 34 35 37 37 38 39 39 39 38 38 38 38
11 10 11 11 11 10 8 7 7 8 9 9 10 11 12 13 14 15 16 18 19 20 21 23 26 28 30 31 32 32 33 34 35 36 37 37 38 38 37 36 36 35 36
13 12 12 12 11 10 9 8 9 10 11 10 10 11 11 11 12 14 15 16 17 19 20 22 23 25 27 29 30 31 32 33 34 35 35 35 35 36 35 34 33 33 32
12 11 12 11 10 9 9 9 11 12 13 13 13 14 14 15 15 16 16 17 18 19 19 20 21 23 26 27 28 30 31 32 33 34 35 35 34 35 35 35 34 33 32
13 11 11 10 9 9 10 12 13 15 17 18 18 18 18 18 18 18 19 19 20 20 21 21 22 23 25 27 28 30 31 32 33 34 35 35 35 35 35 35 35 34 33
16 14 12 9 9 10 11 13 15 17 19 20 21 21 21 19 19 20 20 21 21 22 22 23 24 25 27 28 30 31 33 34 34 35 36 36 36 36 36 36 35 35 34
16 15 13 10 9 10 12 13 15 16 18 19 20 22 22 21 21 21 21 21 22 23 23 24 25 26 27 29 31 33 34 35 36 36 37 38 38 39 39 38 38 38 38
16 15 14 13 12 11 13 14 15 16 17 18 19 21 22 23 22 23 23 23 24 25 25 26 26 28 29 31 32 34 35 36 37 39 40 40 41 42 43 43 43 43 42
17 16 15 14 13 13 14 15 16 17 18 19 20 21 22 24 25 26 27 28 28 28 28 28 29 30 32 34 35 37 38 40 40 42 43 45 46 47 48 48 48 48 47
17 17 16 16 15 15 16 17 17 18 20 21 22 23 24 25 26 28 29 29 30 29 29 30 31 33 34 36 38 39 42 44 45 46 47 48 51 52 54 53 52 52 51
18 17 18 19 20 20 19 19 19 21 22 23 24 24 25 26 27 28 28 29 30 31 32 33 34 35 36 37 39 41 44 46 48 49 49 50 51 53 55 57 56 55 54
19 19 20 22 24 24 22 21 20 21 22 22 22 23 25 26 28 28 29 31 32 33 35 36 37 38 40 41 43 45 47 49 50 51 52 53 53 54 56 58 59 59 58
20 21 22 24 25 25 24 22 21 21 21 21 22 24 25 28 29 31 32 34 35 37 38 39 41 42 44 46 48 50 51 53 54 56 56 56 57 58 59 61 62 62 62
20 21 23 25 26 25 24 23 23 23 23 24 25 27 28 30 32 34 36 38 39 41 42 43 44 46 47 49 51 53 55 57 59 60 61 61 62 63 64 66 67 68 68
20 22 24 26 27 27 27 27 27 28 28 29 30 31 33 34 36 38 40 41 43 45 46 48 49 51 52 53 54 56 58 60 60 61 62 63 64 65 67 69 71 72 73
22 24 26 29 31 31 32 32 33 34 34 34 34 34 36 37 39 41 43 45 46 48 50 52 53 55 56 57 58 59 59 59 58 58 57 57 58 60 63 66 68 71 73
25 27 30 33 34 35 36 36 37 38 38 37 37 37 39 41 43 45 47 49 51 52 54 55 57 58 59 60 61 60 56 54 53 51 50 51 53 54 55 57 58 60 63
28 30 33 35 37 37 38 39 39 40 41 41 41 42 44 46 48 50 52 54 55 57 58 59 60 60 61 61 59 55 50 48 46 45 45 47 48 50 53 55 55 55 54
32 33 36 38 39 39 39 41 42 43 44 44 44 45 47 50 52 54 56 57 59 59 60 61 61 61 60 55 50 47 45 45 45 44 44 46 48 50 51 52 52 53 52
34 36 38 40 40 40 41 42 44 45 46 47 47 48 51 54 57 59 59 59 60 61 62 61 59 56 51 45 42 43 43 45 46 48 49 50 52 53 53 52 51 50 50
37 39 41 42 42 42 42 44 46 47 48 48 49 51 54 58 61 62 61 60 61 61 61 58 54 48 43 41 42 43 45 46 48 51 52 53 54 55 56 55 52 50 48

GEFSSE_500_meanwind_018.txt.gz
Wind_Speed
9 9 10 11 11 11 11 11 13 14 13 12 11 10 10 9 9 9 9 10 10 11 12 12 13 14 15 16 16 17 18 19 19 20 21 21 22 22 22 22 21 21 21
7 5 5 6 6 7 8 9 11 12 12 12 11 10 10 10 10 10 10 11 12 12 13 13 14 15 16 16 17 18 19 20 21 22 23 23 24 24 25 25 24 24 23
2 2 2 2 3 4 5 7 9 10 11 11 11 11 11 12 12 12 12 13 13 14 14 14 15 15 16 17 18 18 20 21 22 24 25 25 26 26 27 27 26 26 26
2 2 2 2 2 2 3 5 7 9 10 11 11 11 12 12 13 13 14 14 15 15 16 16 16 16 17 18 19 20 21 22 23 24 25 27 28 28 29 29 29 29 29
4 3 3 3 2 1 2 3 5 6 7 8 9 9 10 10 11 11 12 13 14 15 15 16 17 18 19 20 21 22 23 24 25 26 27 28 29 30 30 31 31 32 33
5 4 4 4 4 3 4 4 4 4 5 6 6 7 7 8 9 10 11 12 13 14 15 16 16 18 19 20 21 23 24 25 26 28 29 30 31 31 31 31 31 32 32
5 5 6 7 6 5 4 5 5 5 5 6 7 7 8 9 10 11 12 13 14 15 16 17 17 18 19 20 21 22 23 24 26 27 28 30 31 31 31 31 31 30 30
5 6 7 8 7 6 5 6 6 6 7 8 8 9 10 11 12 12 13 14 15 16 17 18 19 19 20 21 23 23 24 26 28 28 29 30 30 30 30 30 30 30 30
6 6 7 7 7 7 7 7 8 9 9 10 11 12 13 14 14 14 15 15 16 17 18 19 20 21 22 23 25 26 28 29 31 31 32 31 31 31 31 31 31 31 31
6 6 6 6 6 7 8 9 10 11 12 13 14 14 15 15 15 16 16 16 16 17 18 19 21 22 23 25 27 28 30 31 33 34 34 34 34 34 33 33 33 33 33
7 7 7 7 7 7 8 10 11 12 14 14 15 15 15 16 16 16 16 16 17 18 19 21 23 24 25 26 27 29 30 32 34 36 36 36 36 36 36 36 36 36 36
8 8 8 8 8 9 10 11 12 13 14 15 16 16 16 16 15 15 15 16 17 19 21 22 23 24 25 25 26 28 30 31 33 34 35 35 36 37 37 37 38 38 39
10 9 9 9 9 10 11 12 12 13 14 15 16 16 16 17 16 16 17 18 19 20 21 22 23 23 24 24 25 27 28 30 32 34 34 35 36 37 38 39 40 40 41
11 10 10 9 9 10 10 11 12 12 13 14 15 15 16 16 16 17 17 18 19 20 21 22 23 24 25 27 28 29 30 32 33 35 36 37 38 39 40 41 43 43 44
13 12 10 9 9 9 10 10 10 11 11 11 12 12 13 13 14 15 16 18 20 21 23 25 27 28 30 31 33 34 35 36 37 39 41 41 42 44 45 46 46 47 48
15 13 11 10 9 9 9 9 9 10 10 10 11 11 12 12 14 15 17 18 20 22 24 27 29 31 33 35 36 37 39 41 42 43 46 47 47 49 50 50 50 51 51
16 14 12 11 9 9 9 9 10 10 11 12 13 13 13 14 15 16 17 19 21 23 25 28 30 33 35 37 39 41 43 45 47 48 50 52 54 54 54 55 55 55 55
16 15 14 13 11 11 11 11 12 13 14 15 15 15 16 16 17 18 20 21 23 25 28 30 33 36 38 40 42 44 47 48 51 52 55 57 59 60 59 59 58 59 59
18 17 17 17 15 14 14 15 16 16 17 18 19 19 19 20 21 23 24 26 28 30 32 35 37 40 42 43 46 48 50 52 54 56 58 61 63 63 63 63 61 61 61
21 21 21 21 20 18 18 18 19 20 21 22 23 23 24 25 26 27 29 31 33 35 37 40 42 44 46 47 49 52 54 55 58 60 62 64 66 66 65 65 64 63 62
26 26 27 26 25 23 21 21 23 23 24 25 27 28 28 30 31 32 34 36 38 40 43 45 47 49 50 51 53 55 57 60 62 63 65 66 66 66 65 64 61 59 58
31 32 32 33 30 27 25 25 26 27 28 30 32 33 34 35 36 37 38 40 42 45 47 49 51 53 55 56 56 58 60 62 65 65 64 62 60 59 57 54 52 51 50
36 35 36 37 35 33 31 30 30 31 32 35 38 39 41 42 43 44 45 46 48 50 52 53 55 56 57 59 59 61 62 63 63 61 59 54 50 48 47 46 45 45 46
38 38 39 39 39 36 35 34 35 35 37 40 43 45 47 48 50 50 52 53 54 56 56 57 57 58 59 60 61 62 62 60 57 54 51 47 44 43 43 44 45 46 47
40 40 41 41 40 39 38 38 38 39 41 45 47 49 52 54 55 56 57 58 59 59 59 59 59 59 60 60 61 61 59 55 52 49 46 45 45 44 45 46 48 50 51
43 43 42 42 42 42 41 41 41 43 45 47 49 51 54 55 56 56 57 57 58 58 58 59 60 60 60 60 60 58 56 53 50 48 48 48 47 48 49 51 53 54 55

GEFSSE_500_meanwind_024.txt.gz
Wind_Speed
13 14 15 16 17 18 18 19 19 19 19 18 18 18 18 17 16 16 15 15 14 14 14 14 14 14 14 15 16 16 17 17 18 18 18 19 20 19 19 18 18 18 18
15 14 15 15 15 15 15 15 15 16 16 17 17 17 17 16 16 15 15 14 14 14 14 15 15 16 16 17 17 18 18 19 20 20 20 21 22 21 21 21 21 21 20
13 11 11 11 10 10 10 10 11 12 13 14 15 16 16 16 16 15 15 15 15 15 16 16 16 17 17 18 18 19 20 21 22 22 23 23 23 23 24 23 23 23 23
8 7 7 7 7 7 7 8 9 9 11 12 14 15 15 16 16 16 16 16 16 17 17 17 17 18 18 18 19 20 21 22 24 24 24 24 24 25 25 25 26 26 26
5 6 6 6 6 6 7 8 9 9 10 12 13 14 14 14 14 14 13 13 13 14 15 16 16 17 18 19 20 21 22 24 25 26 27 26 26 26 26 27 29 29 29
5 6 6 7 7 7 8 9 9 10 10 11 11 12 11 11 11 10 10 10 11 12 13 13 14 16 17 18 19 21 22 24 25 25 26 26 27 27 27 27 28 29 30
4 5 6 6 7 8 9 10 10 10 10 10 11 11 11 11 11 11 11 11 12 13 13 14 14 15 16 17 18 19 21 22 24 24 23 24 26 27 26 26 26 27 27
3 4 5 6 7 8 9 9 9 10 11 12 12 13 13 14 14 14 14 15 15 15 16 16 16 17 17 18 19 20 21 23 25 25 23 24 27 27 27 26 27 27 27
4 5 6 7 7 8 9 10 10 11 12 13 14 15 16 16 16 17 17 18 18 18 18 18 18 18 19 19 20 21 22 24 26 27 24 25 28 28 28 28 28 28 29
5 6 7 7 8 8 9 10 11 13 14 15 16 17 17 18 18 18 18 18 19 19 19 19 19 18 19 19 20 22 23 24 26 27 24 25 28 28 29 30 30 30 30
8 7 8 9 9 10 11 12 13 14 15 16 17 18 18 18 17 17 17 17 17 17 17 18 18 17 18 18 20 21 22 24 26 27 24 25 27 28 29 29 30 30 31
11 10 10 10 11 12 13 13 14 15 16 16 17 18 18 17 16 16 16 16 16 15 16 16 16 16 16 17 18 20 20 23 26 27 24 24 26 28 29 30 31 32 32
13 13 12 13 13 13 14 15 16 16 17 16 17 17 17 16 15 15 15 15 14 14 15 15 15 16 17 17 19 21 22 24 27 29 27 26 27 30 31 32 33 34 35
16 15 15 15 16 16 16 17 17 16 16 16 16 16 16 15 15 14 13 14 14 14 15 16 17 17 18 20 21 22 23 25 28 30 30 30 30 31 34 35 37 38 39
19 18 17 17 17 17 17 18 18 17 17 16 16 15 15 15 15 15 15 16 16 16 16 17 18 18 19 21 22 24 25 27 29 32 32 33 33 34 36 38 41 43 44
20 20 20 19 18 18 19 19 20 19 18 18 17 17 17 16 16 16 16 18 18 19 19 20 20 22 23 25 26 28 29 30 32 34 36 37 38 39 41 43 45 47 49
21 21 22 21 20 20 20 21 22 21 21 20 19 19 19 18 18 18 18 19 21 22 23 25 26 28 30 31 33 35 36 37 39 40 41 43 45 46 47 48 50 51 53
23 22 23 23 22 22 22 24 25 25 24 24 23 22 22 21 21 22 22 23 25 26 27 30 31 33 35 37 38 40 41 44 45 47 48 49 51 53 54 55 56 56 57
25 24 24 26 24 26 26 28 29 29 29 28 28 27 27 26 26 26 26 28 30 31 32 34 36 38 40 42 43 45 47 49 51 53 54 56 57 58 59 60 61 62 62
25 24 25 29 27 29 31 33 34 34 35 34 34 33 32 31 31 30 30 32 34 35 37 39 41 43 45 47 49 51 52 54 56 58 59 61 62 63 64 65 64 65 65
28 27 28 31 31 33 35 37 38 39 40 40 41 39 36 36 34 34 33 35 37 40 41 42 45 47 49 51 53 55 56 58 60 61 63 64 65 66 66 67 66 66 66
38 33 32 34 35 37 39 40 42 43 44 44 45 42 40 39 37 36 37 37 39 42 43 45 48 50 53 55 57 58 58 59 61 63 65 66 66 67 67 67 67 66 64
40 37 35 36 38 40 42 43 45 47 47 47 46 44 44 42 39 37 37 39 42 46 47 49 50 52 54 56 57 58 59 59 60 62 65 66 67 67 68 68 67 65 62
43 40 38 38 40 42 43 45 47 48 48 48 47 46 46 43 39 38 39 42 45 48 49 51 52 53 55 56 57 59 59 60 60 61 63 65 66 67 67 67 65 62 60
42 40 39 39 41 43 45 46 47 49 48 48 47 47 47 45 43 43 43 45 47 49 50 51 53 55 55 57 59 60 61 62 63 63 64 66 67 68 68 66 63 59 58
39 39 39 40 42 44 46 46 47 48 48 48 49 49 48 47 45 45 45 47 48 50 51 52 54 56 57 59 61 62 62 63 64 65 67 68 69 69 67 65 61 59 57

GEFSSE_500_meanwind_030.txt.gz
Wind_Speed
11 10 10 11 12 14 15 16 18 19 19 19 19 18 18 18 18 18 18 18 18 18 18 17 17 17 17 16 16 16 16 17 17 17 18 18 18 18 19 20 20 21 20
10 10 10 11 12 13 14 15 17 17 18 19 19 19 19 18 19 19 19 19 19 19 19 18 18 19 19 19 19 19 19 19 19 19 19 20 20 20 20 21 22 22 22
8 8 8 9 9 10 11 12 13 13 14 15 16 16 17 17 18 19 19 19 20 20 20 20 20 21 21 21 21 21 21 20 20 20 20 21 21 20 20 21 22 23 23
6 6 6 6 7 7 8 8 9 9 10 12 13 14 15 16 18 19 20 20 21 22 22 22 22 22 23 23 23 23 22 21 20 21 21 21 21 21 22 22 23 24 24
4 5 6 6 6 7 7 7 7 8 9 9 11 12 13 15 17 18 19 20 21 21 21 21 21 21 21 21 21 21 21 20 19 20 21 22 22 23 23 23 23 24 24
4 5 5 5 6 6 7 7 8 8 9 9 10 11 12 13 14 16 17 17 18 18 18 18 18 18 18 19 19 20 19 18 18 19 20 21 22 22 22 22 22 22 22
4 4 4 5 6 6 6 7 8 8 9 9 10 11 11 12 13 14 15 16 17 17 17 17 18 18 18 19 20 21 20 18 17 18 19 20 21 22 21 21 21 21 21
5 5 5 6 6 6 6 6 7 7 8 8 10 11 12 13 15 16 17 18 18 19 20 20 20 20 20 21 21 22 22 20 18 19 20 21 21 21 21 21 21 22 22
6 6 7 6 6 6 6 6 6 7 8 9 10 11 13 14 15 16 17 19 19 20 21 21 21 22 22 22 23 24 23 21 20 20 21 22 23 23 22 22 22 22 23
8 7 7 6 6 6 6 5 6 7 8 9 10 11 12 13 15 16 17 18 19 20 20 20 21 21 21 22 22 23 23 22 21 21 22 23 23 24 24 24 24 24 23
8 7 7 7 6 6 6 6 7 8 9 10 11 11 12 13 14 15 15 16 16 17 17 18 18 19 20 20 21 22 22 22 22 21 22 22 23 24 25 26 26 26 25
9 8 7 7 7 7 7 8 8 9 10 10 11 12 13 13 13 13 13 14 14 15 15 15 15 16 18 19 20 21 22 21 21 21 21 22 23 25 26 27 28 28 28
11 10 9 9 8 8 8 9 9 9 10 11 12 12 13 13 13 13 13 13 13 13 13 14 14 16 17 18 19 20 21 21 21 21 22 23 24 25 26 28 29 30 30
11 12 11 11 11 10 9 9 9 10 10 11 12 13 14 14 14 14 13 13 13 14 14 13 14 15 17 18 19 20 21 22 23 24 24 25 26 27 28 29 30 31 32
11 13 14 13 14 13 12 11 11 12 12 12 13 14 15 16 16 16 16 16 16 16 17 17 17 18 19 20 21 22 24 26 27 29 30 31 32 33 34 35 35 36 37
15 15 16 15 15 16 14 14 13 13 15 15 15 16 16 17 18 18 20 20 20 20 21 22 22 23 24 25 26 27 29 31 33 35 36 38 39 40 41 42 43 43 44
21 21 20 19 18 18 18 17 16 15 17 18 19 19 19 20 21 22 23 24 25 25 26 27 27 28 29 30 31 32 34 36 38 40 41 43 44 45 47 48 49 50 50
25 25 23 25 24 23 23 21 21 20 20 21 22 23 24 24 25 26 27 28 29 29 30 32 33 33 34 34 35 37 38 39 42 44 45 47 48 50 51 53 54 55 56
29 28 28 30 30 32 31 28 27 26 25 26 27 28 29 29 30 31 32 31 32 32 33 35 37 38 38 38 39 40 42 43 45 47 48 50 52 53 55 56 57 58 58
33 32 33 34 36 36 37 36 34 32 31 30 31 32 33 33 34 35 36 36 35 34 34 35 37 39 40 41 42 43 45 47 49 50 51 52 54 55 57 58 59 59 59
36 36 36 36 38 40 40 40 38 35 35 34 34 35 36 36 36 38 38 39 37 35 35 35 36 38 41 42 43 44 46 48 50 51 53 54 56 57 58 59 60 60 61
39 39 38 39 41 43 44 43 41 38 36 35 35 37 38 39 39 40 40 39 37 36 35 35 36 37 40 42 43 44 46 48 51 53 55 57 59 60 61 61 62 62 62
40 40 40 42 44 46 47 45 41 38 36 36 37 37 38 39 40 41 40 39 39 39 38 38 38 39 41 43 45 47 48 50 52 55 58 60 61 62 62 62 62 62 62
39 41 42 44 47 48 48 45 40 36 34 35 37 37 38 40 41 40 40 41 41 41 42 41 41 42 44 46 49 51 53 54 55 56 58 60 61 61 61 61 61 62 63
39 41 44 46 48 49 48 43 39 36 34 35 37 39 41 41 42 43 43 44 45 45 45 45 45 46 47 50 52 55 57 59 60 60 59 59 60 60 61 62 64 65 67
39 42 45 47 48 48 47 43 42 40 38 39 41 42 44 45 45 45 46 47 47 48 48 48 48 50 51 54 56 59 61 62 63 63 62 61 61 62 64 66 68 70 70

GEFSSE_500_meanwind_036.txt.gz
Wind_Speed
7 7 7 8 9 9 9 9 9 10 10 10 11 11 12 13 13 12 12 12 13 14 14 15 15 16 16 16 16 16 16 15 15 15 15 15 16 16 16 15 15 15 16
5 6 6 7 8 8 8 8 8 8 9 9 9 9 10 11 11 12 12 13 13 14 14 15 15 16 17 17 17 17 17 17 17 17 16 17 17 17 17 16 16 17 17
4 4 6 7 6 6 6 6 6 6 6 6 6 7 7 8 9 10 11 12 13 14 15 16 16 17 17 18 18 18 18 18 18 18 18 17 17 17 17 17 17 17 18
3 3 5 5 5 5 5 5 4 4 4 4 5 5 6 7 7 9 10 12 13 14 15 16 17 17 17 17 17 18 18 18 18 18 18 18 18 18 17 17 17 18 18
2 3 4 4 4 4 4 4 4 4 4 4 4 5 5 6 7 8 9 11 12 13 14 15 15 15 15 15 15 15 16 16 16 17 17 17 17 17 17 17 17 18 18
4 4 4 5 5 5 5 5 5 5 4 4 5 5 5 6 7 8 9 10 11 12 13 14 15 15 14 14 14 14 15 15 15 16 16 16 16 16 16 17 17 18 18
6 6 6 7 7 7 7 7 6 6 5 5 5 5 6 7 8 9 10 11 12 14 15 16 16 16 16 16 16 15 15 16 16 15 16 16 16 16 17 17 17 17 18
7 8 8 9 9 9 9 8 7 7 6 6 6 6 7 8 9 10 12 13 14 15 16 17 18 18 18 17 17 16 16 16 16 16 16 16 17 17 17 18 18 18 19
10 10 10 10 10 11 10 9 8 7 7 7 6 7 7 8 10 11 12 13 14 16 17 18 19 19 19 18 17 17 16 16 16 16 17 17 18 18 18 18 19 19 19
12 12 12 12 12 12 12 11 10 9 9 9 8 8 8 8 9 10 11 12 13 14 16 17 17 17 17 17 17 17 17 17 17 18 18 18 19 19 20 20 20 20 21
13 13 14 14 14 14 13 12 12 11 11 10 9 9 8 8 8 9 10 10 11 12 13 14 14 15 15 15 15 16 16 17 17 18 19 19 20 21 21 22 22 22 23
12 13 15 16 16 16 15 14 13 12 12 11 11 10 9 9 9 9 9 9 10 11 12 12 13 13 13 14 15 16 17 18 19 19 20 21 22 23 23 24 24 25 26
11 12 14 15 17 17 16 15 14 13 12 12 12 12 11 10 9 9 9 9 10 10 11 12 13 14 14 15 16 17 18 19 20 21 22 22 23 24 25 25 26 27 28
11 12 14 15 16 16 16 16 15 14 14 13 13 12 12 11 11 10 9 10 10 11 13 14 15 17 17 18 18 19 20 21 22 23 24 24 25 26 27 29 30 31 32
12 13 15 16 16 16 17 16 16 16 16 16 15 15 14 14 14 13 12 13 13 14 15 16 18 20 21 22 23 23 24 25 26 26 27 29 30 31 32 33 35 36 37
13 15 17 17 17 18 18 18 18 18 18 18 19 19 18 18 18 18 17 16 17 17 18 19 20 22 24 25 27 28 29 30 31 32 33 34 35 36 37 38 38 39 40
15 17 18 18 19 21 22 21 20 20 21 21 23 23 23 24 23 22 22 21 21 22 22 22 22 24 26 27 29 31 33 34 36 37 38 38 39 40 40 41 41 42 43
16 18 19 20 21 24 25 24 24 24 24 25 26 28 29 29 29 27 27 26 25 25 25 25 25 26 27 29 31 33 35 36 38 40 41 41 42 42 43 44 44 45 46
17 19 19 21 24 26 27 28 29 30 29 29 30 31 33 34 34 32 31 30 29 29 28 28 28 28 29 31 33 35 36 37 39 40 41 43 44 45 46 46 47 48 48
18 19 21 23 26 28 30 32 33 34 34 35 36 36 36 36 35 34 33 32 30 30 30 29 29 29 31 33 35 36 38 39 40 41 42 44 46 47 48 49 50 51 52
19 20 22 25 28 31 33 34 36 39 38 38 38 37 36 34 32 32 32 31 29 28 28 28 28 30 32 34 36 37 39 40 42 43 44 46 48 49 51 52 53 53 54
21 22 24 27 29 32 35 37 40 41 40 39 38 34 32 30 29 29 30 30 28 28 29 30 31 32 34 35 38 40 41 42 43 45 47 49 51 52 54 55 56 57 59
25 26 27 29 32 35 38 39 41 43 42 40 36 32 29 28 27 28 28 30 30 30 31 32 34 36 37 38 40 42 43 43 45 47 49 52 54 56 58 59 60 62 63
30 30 32 34 36 39 41 42 43 43 43 40 37 32 30 27 26 26 28 29 31 32 34 36 38 39 41 42 43 45 46 47 49 50 52 54 57 59 61 63 64 66 67
34 35 37 38 41 42 44 45 46 45 45 41 38 34 31 27 27 28 29 32 34 37 39 41 42 44 46 47 48 49 51 52 54 55 55 57 60 62 65 66 68 69 70
38 39 41 43 43 44 45 46 47 45 42 39 37 35 32 30 29 31 33 35 38 41 43 45 47 49 50 52 53 54 56 57 58 59 60 61 62 64 66 68 69 70 71

GEFSSE_500_meanwind_042.txt.gz
Wind_Speed
5 5 6 6 6 6 6 7 8 9 9 10 9 9 9 8 8 8 7 7 6 5 4 4 5 5 6 7 8 8 9 9 9 9 10 10 11 11 11 12 13 14 14
4 4 4 5 5 5 5 6 8 8 9 8 8 7 7 7 7 7 7 7 6 6 5 5 5 6 7 8 8 9 10 11 11 11 12 12 12 12 13 13 14 15 15
3 3 3 3 3 3 3 4 5 6 6 6 5 5 5 5 5 6 6 6 6 6 6 6 7 8 8 9 10 11 11 12 12 12 13 13 13 14 14 15 15 16 16
3 3 2 2 1 1 2 2 3 4 4 4 4 4 5 5 6 6 6 6 6 6 6 7 7 8 9 10 10 10 11 11 11 12 12 13 14 14 14 15 15 16 16
4 3 3 3 2 1 0 1 2 3 3 4 4 5 5 6 6 7 7 6 6 6 6 7 7 8 9 9 9 10 10 10 11 11 12 13 13 14 14 14 15 15 16
6 6 5 5 4 3 2 1 1 2 3 4 4 5 6 7 7 8 8 8 8 8 8 8 9 9 10 10 11 11 11 11 11 12 12 13 14 14 14 14 14 14 15
8 7 7 6 5 5 3 2 1 2 3 4 4 5 6 8 9 9 10 10 10 10 10 11 11 12 12 13 13 13 13 13 13 13 13 14 14 14 14 14 14 14 14
9 9 9 8 7 6 5 4 3 3 3 4 5 6 7 8 9 10 11 11 11 12 12 13 13 13 14 14 15 15 15 15 15 14 14 14 14 14 14 14 14 14 14
10 10 10 9 8 7 6 5 5 4 4 5 5 6 8 9 10 11 11 11 12 12 13 13 13 14 14 15 15 15 15 15 15 14 14 14 14 14 14 14 14 14 14
10 10 10 9 9 8 7 7 6 6 5 6 6 7 8 9 11 12 12 12 12 12 12 12 13 13 13 14 13 13 13 13 14 14 14 14 14 14 14 14 14 15 15
9 8 8 8 7 7 7 7 7 6 6 6 7 8 9 10 12 13 13 13 13 13 13 12 13 13 13 13 13 13 13 13 13 13 14 14 14 14 15 15 15 16 17
5 6 6 6 6 7 8 7 7 7 7 7 7 8 10 11 12 14 14 15 14 14 13 13 13 14 13 13 13 13 13 13 14 14 14 15 16 16 17 17 18 19 19
2 3 4 6 6 7 8 8 8 8 9 9 9 10 11 13 14 15 16 16 15 15 15 14 15 15 15 15 14 14 14 15 15 16 16 17 18 19 20 21 21 22 23
2 4 5 7 8 9 10 10 10 11 11 12 13 14 15 15 16 17 18 19 18 17 17 17 17 17 17 17 17 16 16 17 18 19 20 21 22 23 24 25 26 27 27
4 6 7 9 10 11 11 12 13 13 13 14 15 17 18 19 20 21 22 23 22 22 21 21 21 21 20 20 20 20 20 20 20 22 23 24 25 27 28 29 30 31 32
7 8 9 10 11 12 13 14 15 15 16 17 18 20 21 23 24 25 27 27 27 27 26 26 25 26 25 24 23 22 23 23 24 25 26 27 28 30 32 33 34 35 36
11 11 12 13 13 14 15 16 17 18 20 21 23 24 25 27 28 30 32 33 33 32 32 32 31 30 29 28 27 27 26 26 26 27 29 30 31 32 34 35 37 38 40
15 15 16 16 16 16 17 18 19 21 23 26 28 30 31 33 34 36 37 39 39 38 37 37 35 34 32 31 30 30 29 29 29 30 31 32 33 35 36 37 39 41 42
20 20 20 20 19 20 20 21 23 25 28 30 33 35 37 39 39 40 41 41 41 42 41 39 37 34 33 33 32 31 31 31 30 31 33 34 35 37 38 39 41 43 44
24 25 25 24 24 23 24 25 27 29 33 36 38 39 40 41 41 40 39 40 41 42 41 39 37 34 32 33 32 31 29 29 31 32 34 35 37 39 41 42 44 45 47
27 28 28 28 27 27 27 28 30 33 36 40 43 42 41 40 39 37 34 33 33 34 35 35 33 33 31 29 29 29 28 28 31 33 35 37 39 41 43 44 46 47 49
29 29 30 30 30 30 30 31 33 35 38 41 42 43 42 39 34 29 25 27 26 28 29 29 29 30 28 26 27 27 28 30 32 34 38 40 42 44 46 47 48 50 52
29 30 31 31 32 33 34 35 36 38 40 41 43 43 42 38 34 29 27 25 24 24 24 25 27 26 27 28 28 30 32 34 36 38 41 44 45 48 50 51 53 55 57
31 31 32 33 34 35 36 38 39 40 41 42 43 42 40 38 34 30 28 27 25 24 24 25 25 27 29 31 33 34 37 40 43 46 46 48 50 52 55 56 58 60 62
32 33 34 35 37 38 39 40 41 42 42 43 42 42 40 37 34 31 29 28 28 28 28 29 30 31 33 36 38 40 42 45 48 50 53 54 56 58 60 61 63 65 66
33 34 35 37 38 39 40 41 42 42 42 42 41 40 38 37 34 32 31 31 30 31 33 34 35 37 38 41 43 45 48 50 52 54 56 58 60 62 64 65 67 68 68

GEFSSE_500_meanwind_048.txt.gz
Wind_Speed
11 12 11 11 11 11 11 11 11 11 11 11 12 13 14 14 14 14 14 14 13 13 13 13 13 12 12 11 10 10 9 9 9 9 9 9 9 10 10 10 10 11 11
11 11 10 10 11 11 11 11 11 11 12 12 13 14 14 14 14 14 14 14 14 14 14 13 13 13 13 12 12 11 11 11 11 11 11 11 12 12 12 12 12 13 13
11 10 10 10 10 10 11 11 11 11 11 11 12 13 13 13 12 12 12 13 13 13 13 13 13 13 13 12 12 12 13 13 13 12 12 12 13 13 13 14 14 14 15
9 9 9 9 9 9 9 9 9 8 9 9 10 11 11 11 10 10 11 11 12 12 13 13 13 13 13 13 13 13 13 13 13 13 12 12 13 13 13 14 14 14 14
8 8 8 8 8 8 7 7 7 7 7 8 8 9 9 9 9 10 10 10 11 12 12 13 13 13 13 13 13 13 13 13 13 13 12 12 13 13 13 13 13 13 13
7 7 7 7 6 5 5 5 5 5 5 6 6 7 7 8 8 8 9 10 10 11 12 12 13 13 14 14 14 14 14 14 14 14 14 13 13 13 13 13 13 13 13
7 7 7 6 5 4 3 3 3 3 3 4 5 6 6 7 7 8 8 9 10 11 12 13 14 15 15 15 15 15 15 15 15 16 15 13 14 14 14 14 13 13 13
7 7 7 6 5 4 3 2 1 2 2 3 4 5 6 6 7 7 8 9 10 11 13 14 15 16 16 17 16 16 17 17 17 18 17 16 16 15 15 15 14 14 14
6 6 6 5 4 3 2 1 0 1 2 3 4 5 6 7 7 7 8 9 10 12 13 15 16 16 17 17 17 17 17 17 17 18 16 15 16 15 16 15 15 15 15
6 5 5 4 3 2 1 1 1 2 3 4 5 6 7 7 8 9 9 10 11 12 14 15 16 16 16 16 16 17 17 18 18 17 14 15 16 16 16 16 16 16 16
5 4 3 2 1 1 2 3 4 4 5 6 6 7 8 9 10 10 11 12 12 13 15 16 17 17 17 17 17 17 17 18 19 16 14 16 16 16 16 16 16 16 16
4 3 1 1 2 4 5 5 6 7 8 8 9 9 10 11 12 12 13 14 15 16 17 18 18 18 18 18 18 18 19 21 21 17 16 18 17 17 17 17 17 18 18
5 4 4 5 6 7 8 9 10 10 11 11 12 12 13 13 14 15 17 18 19 19 19 20 21 21 21 20 20 21 21 24 23 19 18 19 19 19 19 19 19 19 20
7 7 8 8 9 10 12 12 14 14 14 14 14 15 16 17 18 19 21 22 23 23 23 24 24 24 24 23 24 24 24 26 25 22 21 21 21 21 22 22 22 22 23
9 9 10 11 13 14 15 16 17 16 16 16 17 18 19 21 23 24 26 27 27 27 27 28 29 29 29 29 28 28 27 28 29 26 24 25 25 25 25 25 25 26 26
11 11 12 14 15 17 18 19 20 20 20 20 20 21 23 25 27 28 29 30 31 31 32 33 33 33 33 32 32 31 30 31 31 30 28 29 29 29 28 28 29 29 30
13 13 15 16 17 19 21 22 22 23 23 23 23 24 26 28 29 31 31 32 33 32 34 35 35 35 35 35 35 34 33 34 34 33 32 32 32 32 31 32 32 32 33
15 15 16 18 18 21 23 24 25 25 25 25 25 26 27 28 30 31 31 32 33 32 32 33 33 33 34 35 35 35 33 34 34 34 35 35 35 34 34 35 36 36 36
17 16 18 20 20 22 24 25 26 26 27 27 27 28 29 30 31 32 33 33 33 33 31 30 30 29 29 31 33 34 34 34 33 34 35 37 37 37 36 36 36 37 37
18 18 20 22 23 24 26 27 28 28 28 29 29 29 31 32 33 34 34 34 34 32 30 29 29 28 26 26 28 30 31 32 32 34 34 36 38 37 37 36 35 36 38
21 21 22 25 27 27 28 29 31 31 31 31 31 32 34 35 35 35 35 35 34 31 30 29 28 27 25 24 25 25 26 28 30 32 33 34 34 34 35 36 37 37 39
26 24 26 28 29 30 31 32 33 34 34 33 34 35 37 38 39 37 37 37 34 31 29 28 28 27 26 26 25 25 25 26 27 29 32 33 34 35 36 38 40 42 45
31 29 30 31 32 33 33 34 35 36 36 37 37 38 40 41 41 41 40 38 35 33 31 29 29 29 28 28 28 28 29 29 30 32 34 35 37 39 41 43 46 48 50
34 34 34 34 35 35 35 36 37 38 39 40 40 41 43 44 43 42 42 39 36 34 32 31 31 31 31 31 32 33 34 35 35 35 37 39 41 44 46 48 51 54 56
37 37 37 37 36 36 37 38 39 40 41 42 42 44 45 45 44 43 42 41 38 36 35 34 34 34 34 35 36 37 39 40 41 42 43 45 48 51 53 55 57 59 61
38 38 38 37 37 37 38 39 40 42 43 43 44 45 45 45 45 45 44 41 40 39 38 37 37 37 38 39 40 41 43 44 46 48 49 51 53 56 59 61 63 65 67

GEFSSE_500_meanwind_054.txt.gz
Wind_Speed
9 9 10 10 11 12 12 12 12 12 12 11 11 11 12 12 13 14 15 16 16 16 16 16 16 15 15 15 14 14 14 13 13 12 11 11 11 11 11 10 10 10 10
11 10 10 11 11 12 12 12 12 13 13 13 13 13 13 13 14 15 15 16 16 15 15 15 15 15 15 15 15 15 15 14 13 12 12 12 12 12 12 12 12 12 12
11 10 10 11 11 11 11 11 12 13 13 13 13 13 13 13 13 14 14 14 14 14 14 14 15 15 15 15 15 15 15 14 14 13 13 13 13 12 13 13 13 13 13
10 9 9 9 10 10 10 10 11 12 12 12 12 11 11 11 11 12 12 12 13 13 13 13 14 14 15 15 15 15 15 14 14 14 13 13 13 13 14 14 14 14 13
8 8 8 8 8 9 9 9 10 10 10 10 9 9 9 9 10 10 11 11 11 12 12 12 13 14 14 15 15 15 15 15 14 14 13 14 14 14 15 14 14 14 13
6 6 7 7 7 8 8 9 9 8 8 7 6 6 6 7 8 8 9 10 10 11 11 12 12 13 14 15 15 15 15 15 15 15 15 15 15 16 15 14 14 14 14
6 6 6 6 6 6 6 6 6 5 4 3 3 3 4 4 6 7 8 8 9 10 11 11 12 13 14 15 16 16 16 15 15 16 16 17 17 16 15 15 16 15 15
5 5 4 4 4 4 4 3 2 2 1 0 1 1 2 3 4 5 6 7 8 9 10 11 12 12 14 15 16 17 17 15 15 17 17 18 17 17 17 17 17 16 16
4 4 4 4 3 3 3 3 3 3 3 3 3 3 3 3 3 4 5 6 7 8 9 10 11 13 14 15 17 18 17 15 15 16 17 17 17 17 17 18 18 17 17
4 4 4 4 4 5 5 5 6 6 5 5 4 3 3 2 3 3 5 6 7 9 10 11 12 14 15 16 17 18 17 16 15 16 16 16 17 17 17 17 18 18 18
4 4 5 5 6 6 6 7 7 7 6 5 4 3 2 2 2 3 4 6 8 10 10 11 12 14 15 17 18 19 18 17 17 16 16 16 16 17 17 18 18 18 18
5 6 5 5 6 5 6 6 6 6 5 4 3 3 2 2 3 4 5 7 9 11 11 12 13 14 16 18 20 20 19 18 18 17 17 17 17 17 18 18 18 18 19
7 6 5 4 4 4 5 5 5 5 5 4 3 3 3 3 4 5 7 9 11 12 13 14 15 16 17 19 21 21 20 20 19 19 19 19 19 19 19 19 19 19 20
7 6 5 3 3 3 3 4 3 3 3 3 3 3 3 4 5 6 7 9 11 13 14 15 15 16 18 20 21 21 21 20 20 20 20 21 22 22 21 21 21 22 22
9 7 5 3 2 1 1 1 1 2 3 3 3 3 3 4 5 6 8 10 12 13 14 15 15 16 18 19 20 21 22 21 21 21 23 24 24 25 25 25 25 25 26
10 8 5 4 3 3 3 3 3 4 4 4 4 5 5 5 6 8 10 11 12 13 15 15 16 17 17 18 19 20 21 21 20 21 23 25 26 27 27 27 28 29 30
12 10 8 6 5 5 5 6 7 7 7 8 7 8 9 9 10 11 12 13 13 14 15 15 15 16 17 18 18 19 19 19 20 20 22 25 27 28 29 31 31 31 33
12 11 10 9 7 7 8 9 10 10 10 11 12 12 13 14 14 14 15 16 16 17 17 17 16 16 17 17 18 19 20 20 19 20 21 24 26 29 30 31 33 34 34
13 14 12 12 10 11 12 13 13 14 14 15 16 15 17 18 18 18 19 19 20 20 20 20 19 19 19 19 19 20 20 21 22 22 23 24 26 28 30 32 34 35 37
15 14 14 14 14 15 16 17 18 19 20 20 21 21 21 22 22 22 23 24 25 25 24 23 22 21 21 21 21 21 21 22 23 24 25 26 27 28 29 31 33 35 37
19 17 17 18 17 18 20 22 24 25 25 26 26 26 26 27 27 26 27 28 28 29 28 26 25 24 23 23 23 24 24 25 25 26 26 28 30 31 32 33 34 36 38
21 19 20 20 21 22 24 26 28 30 30 31 31 31 31 31 31 31 31 31 31 31 30 28 27 27 27 26 26 27 27 28 28 29 30 31 33 34 36 37 39 40 41
24 23 23 23 24 26 28 30 32 33 35 35 35 34 34 35 35 35 34 34 33 33 31 30 30 29 29 29 30 31 31 31 32 33 35 36 37 39 40 42 43 45 46
28 29 29 29 30 31 33 35 36 37 37 37 38 38 37 38 38 37 37 36 35 34 34 33 32 32 32 32 33 35 36 36 37 38 39 41 43 44 46 47 49 50 52
32 33 33 34 34 35 37 38 39 39 40 40 39 40 40 40 38 39 38 37 37 37 35 34 34 35 35 36 37 39 40 41 42 43 44 46 48 50 51 53 54 56 58
36 36 37 38 38 39 40 40 41 40 41 40 40 40 41 40 40 40 40 39 38 37 36 36 38 39 39 40 41 42 44 45 46 48 49 51 53 55 56 58 60 61 62

GEFSSE_500_meanwind_060.txt.gz
Wind_Speed
6 7 7 9 10 10 9 8 6 4 4 4 4 5 6 7 8 9 9 10 11 11 12 12 12 12 11 11 11 11 10 11 11 10 10 10 10 10 11 11 12 12 12
7 8 8 9 10 10 9 8 7 6 5 4 5 5 6 8 8 9 9 9 9 10 10 10 10 10 10 10 10 10 10 10 10 10 10 10 10 11 11 12 12 13 13
8 8 8 9 10 9 8 7 6 5 5 5 6 6 7 7 7 7 7 7 8 8 8 8 8 9 9 9 9 9 9 9 9 10 10 10 11 11 11 12 13 13 14
7 8 8 9 9 8 7 6 6 5 5 6 6 6 6 6 5 5 5 6 6 6 7 7 7 8 8 8 9 9 9 9 9 9 10 10 10 11 12 12 13 13 14
7 6 7 8 7 7 6 6 5 5 5 5 5 5 5 5 4 4 4 4 5 5 6 6 6 7 7 7 8 8 9 9 9 9 10 10 10 11 12 13 14 14 13
6 6 7 7 7 6 6 6 5 5 5 5 4 4 4 3 3 2 3 4 4 5 6 7 7 7 7 7 8 9 9 9 9 9 10 11 11 12 12 13 14 13 13
4 5 6 6 6 6 6 6 6 5 5 4 4 3 3 2 2 2 2 3 4 5 6 7 8 8 8 8 8 9 10 10 10 10 10 11 11 12 12 13 13 12 13
4 5 6 6 6 7 7 6 6 5 5 5 4 3 3 2 1 1 2 3 4 5 7 8 9 9 9 9 9 9 11 11 11 11 11 11 12 12 13 13 13 13 14
4 6 7 7 8 8 7 7 7 7 7 6 5 4 3 2 2 1 2 3 4 6 8 10 11 11 11 10 10 10 11 12 13 12 12 12 13 13 13 14 14 14 15
5 7 8 9 9 9 9 9 8 8 7 7 6 5 4 3 3 3 3 3 5 7 9 10 11 12 12 12 11 11 12 14 14 14 14 14 14 14 14 15 15 15 15
7 8 9 10 11 11 10 10 9 9 8 7 6 5 4 4 4 4 4 5 6 7 9 11 12 13 13 12 12 12 13 14 15 15 16 16 16 16 16 16 16 16 16
8 9 10 10 11 11 11 11 10 9 8 7 6 6 5 5 4 4 5 6 7 8 9 11 13 13 13 13 14 14 14 14 16 16 17 18 18 18 17 17 17 17 18
9 10 11 11 11 11 11 11 10 9 8 7 7 6 6 6 6 6 6 7 8 8 10 11 12 13 13 13 14 14 15 15 16 16 17 18 19 19 19 19 19 19 19
9 10 10 10 10 10 10 10 10 10 9 8 8 7 7 7 8 8 8 8 8 9 10 11 12 13 14 14 13 14 14 14 15 16 17 18 19 20 21 21 22 22 23
10 10 10 10 10 10 10 10 10 10 9 9 9 9 9 10 10 10 11 11 11 11 12 12 13 13 14 15 15 14 14 14 14 15 15 17 19 20 21 22 23 24 25
10 10 9 10 11 11 11 11 11 11 10 10 11 11 11 12 12 13 14 14 14 14 14 14 15 15 16 16 17 16 16 16 16 15 15 16 17 19 21 22 23 25 26
11 11 11 11 12 12 12 12 12 12 12 12 12 13 13 14 15 16 17 17 17 17 17 17 17 17 18 18 18 19 19 18 18 18 17 18 19 20 20 22 23 25 26
13 12 13 13 14 15 15 15 14 14 14 14 14 15 16 17 18 19 19 20 21 21 21 21 21 20 20 21 21 21 21 21 21 21 20 21 21 21 22 23 24 25 26
15 15 15 17 18 19 19 18 18 17 17 17 17 18 19 21 22 23 23 24 25 25 25 25 25 24 24 23 23 24 24 24 24 24 24 24 25 25 26 26 27 28 29
18 18 17 18 20 23 22 21 21 22 22 22 22 23 23 24 25 26 28 29 29 29 30 30 28 26 25 25 26 26 27 26 26 27 27 27 27 28 28 30 31 32 33
20 21 21 19 19 22 23 23 25 27 28 27 28 27 27 27 29 30 31 32 32 32 32 32 30 28 27 27 28 29 29 29 29 30 30 30 31 32 33 34 35 36 37
22 22 23 22 21 23 24 26 29 31 32 32 33 31 32 32 31 32 32 32 33 34 34 32 31 31 31 31 31 31 31 31 32 33 33 35 35 36 37 39 40 41 42
23 22 23 25 25 25 27 29 32 33 34 35 36 34 34 34 35 35 35 35 34 34 35 34 33 32 33 32 32 33 33 33 34 35 36 38 39 41 42 43 44 46 47
26 25 26 27 27 28 31 33 33 33 35 36 35 35 35 35 35 35 36 34 33 34 35 35 35 34 34 35 36 36 37 36 36 37 39 41 43 44 45 47 48 50 51
29 28 28 29 30 31 34 34 34 36 37 37 37 37 36 35 35 35 36 35 35 35 35 36 36 36 36 37 37 37 38 39 40 41 42 44 46 47 49 50 52 54 55
32 31 31 33 33 34 34 35 37 38 39 38 38 38 37 37 37 38 37 37 37 37 38 38 38 39 39 40 40 40 41 42 42 44 46 48 49 51 52 54 55 57 59

GEFSSE_500_meanwind_066.txt.gz
Wind_Speed
7 7 8 8 7 8 7 7 8 8 8 7 7 6 5 4 3 3 3 3 3 2 2 2 2 2 2 3 3 4 4 4 5 5 5 6 7 8 8 9 9 10 10
8 8 9 9 9 9 9 9 9 10 9 8 7 7 6 5 5 5 4 4 3 3 3 3 3 3 3 4 4 4 5 5 5 6 6 7 8 8 9 10 10 10 11
9 9 10 10 10 10 10 10 10 11 10 9 8 8 7 6 6 6 5 5 4 4 4 3 3 3 4 4 5 5 5 5 6 6 7 7 8 9 9 10 10 11 11
9 10 10 11 11 11 11 11 11 12 11 10 9 8 8 7 7 6 6 5 5 4 4 4 4 4 4 5 5 6 6 6 7 7 8 8 9 9 10 10 11 11 11
9 9 10 11 11 12 12 12 12 13 12 11 10 9 8 7 7 6 6 5 5 4 4 3 3 4 5 5 6 6 7 7 8 8 9 9 10 10 11 11 11 12 12
9 9 10 11 12 12 12 12 12 13 12 11 10 9 8 8 7 6 6 5 4 3 3 3 3 4 5 6 6 7 8 8 9 9 10 10 11 11 12 12 12 12 12
8 9 10 11 11 12 13 13 13 12 12 11 10 9 9 8 7 6 5 4 3 3 2 2 3 5 6 7 7 8 9 9 10 10 11 11 12 12 13 13 13 12 12
8 9 9 10 11 12 13 13 13 13 12 11 10 9 8 8 7 6 5 4 3 2 2 3 4 5 7 8 8 9 10 10 11 11 12 12 13 13 13 14 14 13 13
8 8 10 11 11 13 13 13 13 12 12 11 10 9 8 8 7 6 5 4 3 2 2 3 5 6 8 9 10 10 10 11 11 12 13 13 14 14 14 14 14 14 14
7 9 10 11 12 13 13 13 12 12 11 11 10 9 8 8 7 6 5 4 3 3 3 4 6 7 9 10 10 11 11 12 12 13 14 14 14 14 14 14 14 14 14
8 9 10 11 12 13 13 13 12 12 11 11 10 9 9 8 7 7 5 4 4 4 4 5 6 7 9 9 11 12 12 13 13 13 14 14 14 14 14 14 14 14 15
8 10 11 12 12 12 13 12 12 12 11 11 10 10 9 8 8 7 6 6 5 5 6 7 8 8 9 10 11 11 12 13 14 14 14 15 14 14 14 14 15 15 15
9 10 11 12 12 12 12 12 12 11 11 11 10 10 10 10 9 9 8 8 8 8 9 9 10 10 10 11 11 12 12 13 14 14 14 15 14 14 14 15 15 16 16
10 11 12 12 13 12 12 12 11 11 11 11 11 11 11 11 11 11 11 11 11 11 12 12 12 12 13 13 13 13 14 14 15 15 15 15 14 14 15 15 15 16 17
11 12 13 13 13 13 13 12 12 12 12 12 12 13 13 13 14 14 14 15 15 15 15 16 16 16 16 16 16 16 16 16 16 16 16 16 15 15 15 15 16 16 17
14 15 15 14 14 14 14 13 13 13 14 14 14 15 15 16 17 17 18 18 19 19 20 20 20 19 19 19 19 19 19 19 18 18 18 18 18 18 18 18 18 18 18
16 17 17 16 16 15 16 16 16 16 16 16 17 17 18 19 20 20 21 22 23 23 24 24 24 24 24 23 23 23 22 21 21 21 21 21 21 21 21 21 20 20 21
18 18 19 18 18 17 17 18 18 18 19 19 19 20 21 22 23 24 25 26 27 27 28 29 28 29 28 28 28 26 25 25 25 24 24 24 24 24 24 24 24 24 25
20 21 21 21 21 20 20 20 21 21 22 22 23 24 25 26 27 28 29 30 31 31 32 33 34 33 31 31 31 29 28 28 28 27 27 27 27 28 27 27 27 28 28
22 23 24 24 23 23 23 23 23 25 26 27 28 28 29 30 31 32 33 34 34 35 35 36 37 34 32 31 31 30 30 30 29 30 30 30 31 31 31 31 31 31 32
25 25 25 25 24 24 25 26 27 29 30 31 31 32 34 35 36 37 38 40 39 39 38 38 35 35 33 32 32 31 30 31 31 32 33 33 34 34 35 35 36 36 36
26 26 28 27 27 28 29 30 29 31 32 34 35 36 37 38 39 40 41 41 39 37 35 34 32 32 32 31 32 34 33 33 32 34 35 36 36 37 38 39 39 39 40
28 28 28 29 29 30 31 33 32 34 36 37 38 38 39 41 42 40 39 38 35 33 30 30 29 27 27 28 30 31 32 33 35 35 37 39 39 40 41 42 43 43 44
31 32 32 31 31 32 33 33 34 34 36 37 38 38 39 41 41 39 37 35 33 31 31 29 28 28 27 27 29 31 32 33 36 37 39 40 41 43 44 45 46 47 48
35 35 34 34 34 34 35 34 35 37 39 39 41 41 41 41 41 41 39 37 35 33 33 33 33 32 32 32 32 33 35 37 38 39 41 41 43 45 46 47 49 50 51
35 35 35 36 36 35 35 36 36 38 40 41 41 42 42 42 42 41 39 38 38 36 36 35 35 36 36 36 36 37 38 40 41 42 43 45 46 47 49 51 52 54 55

GEFSSE_500_meanwind_072.txt.gz
Wind_Speed
9 10 9 10 10 11 11 11 11 10 10 10 10 10 10 9 9 9 8 8 7 7 7 6 6 6 6 6 6 6 7 7 7 7 7 8 8 7 8 8 9 9 9
11 11 11 12 12 12 13 13 12 12 11 11 11 11 11 10 10 9 9 8 8 7 7 6 6 6 6 6 6 7 7 8 8 8 8 9 9 9 9 9 9 10 10
13 13 13 13 14 15 15 15 14 14 13 13 13 13 12 11 11 10 9 8 8 7 7 6 6 5 5 6 6 6 7 8 8 8 9 9 10 10 10 10 10 10 11
14 14 15 15 16 17 17 17 16 16 15 14 14 13 12 12 11 10 9 8 7 7 6 5 5 5 5 5 6 6 7 7 8 8 8 9 10 11 11 11 11 11 11
15 16 17 17 17 18 18 18 17 16 15 15 14 14 13 12 11 10 9 8 7 6 5 5 4 4 4 5 5 6 6 6 7 7 8 9 10 11 11 11 11 11 11
16 17 17 17 18 18 19 19 18 17 16 15 14 13 12 11 10 9 8 8 7 6 5 4 4 4 4 5 5 5 6 6 7 7 7 9 10 10 11 11 11 11 11
15 16 16 17 18 18 18 18 18 16 15 14 13 13 12 11 10 9 9 8 7 6 5 4 4 4 4 5 5 6 7 7 7 6 7 9 9 10 10 10 11 11 11
14 14 15 16 17 17 18 17 17 16 15 14 13 12 12 11 10 10 9 8 7 6 5 5 5 5 5 5 6 7 7 7 8 8 8 9 10 10 10 10 10 10 11
13 13 13 15 16 16 16 16 16 15 14 13 12 12 12 11 10 9 9 8 7 7 6 6 5 5 5 6 7 8 8 8 8 8 8 10 10 10 10 10 10 10 10
12 12 12 13 15 15 15 15 15 14 14 13 12 12 11 10 10 9 9 8 8 8 7 7 6 6 6 7 8 8 9 8 8 8 8 10 11 11 11 10 10 10 10
11 11 12 12 13 15 15 15 15 14 14 13 12 12 11 11 10 10 10 9 9 9 9 8 8 8 8 8 9 9 10 9 9 9 8 10 11 11 11 10 10 10 10
11 11 11 12 13 14 14 15 14 14 13 13 12 12 11 11 11 11 11 10 10 10 10 10 10 10 11 11 11 11 12 12 11 10 10 11 12 12 11 11 10 10 11
12 12 11 12 13 13 14 14 14 14 13 13 12 12 12 12 12 12 12 12 12 11 12 12 13 13 14 14 14 14 15 15 14 13 12 14 13 13 13 12 12 12 12
14 13 12 13 13 13 13 13 13 13 13 13 13 12 12 13 13 13 13 13 13 14 14 15 16 17 18 18 18 18 19 19 18 17 16 16 16 16 15 15 14 14 14
15 14 14 13 13 13 13 13 13 13 14 13 13 13 13 13 13 13 14 15 16 16 17 19 20 20 21 22 22 23 23 23 23 21 20 20 19 18 18 17 17 17 18
16 15 15 14 14 14 14 14 14 14 14 14 14 14 15 15 15 15 16 17 18 19 21 22 23 24 25 26 26 27 28 28 28 27 25 24 23 22 21 21 21 21 21
16 15 15 15 15 15 15 15 16 16 15 16 16 16 17 17 17 18 19 20 21 23 24 25 26 27 28 29 30 31 32 33 32 32 30 28 26 26 25 25 25 25 25
17 16 16 15 15 16 16 17 18 18 18 18 19 19 19 20 20 21 22 23 24 25 26 27 28 30 31 33 34 35 36 36 35 35 34 32 29 28 29 29 29 28 28
19 17 18 17 17 17 18 18 19 20 20 21 21 21 22 23 24 25 25 25 27 28 29 31 32 33 35 36 37 38 38 38 37 37 36 35 33 32 31 31 32 31 31
21 20 20 20 19 19 19 20 21 22 23 23 23 24 25 27 28 29 29 29 30 31 32 33 34 35 35 35 36 36 35 35 34 34 35 36 36 35 34 34 34 34 35
23 21 21 21 21 22 22 23 24 25 26 27 27 27 27 28 30 32 32 33 33 34 35 35 35 34 34 33 32 32 31 30 30 30 33 35 36 38 38 38 38 38 38
24 24 23 23 24 25 25 26 27 27 28 29 29 29 30 31 32 33 33 34 36 37 36 35 33 31 30 31 30 30 29 29 28 30 31 31 34 36 38 40 40 41 40
26 26 25 25 25 27 28 29 30 30 29 30 31 32 33 33 33 33 34 36 37 37 34 33 30 30 30 29 28 29 30 29 30 31 31 33 34 35 36 39 41 42 43
27 27 27 27 27 28 30 30 31 32 33 33 33 33 33 33 34 35 36 36 34 33 32 31 31 32 32 32 32 33 32 32 33 33 34 36 37 38 39 41 43 45 47
28 28 28 27 28 29 31 32 33 35 36 36 36 35 35 34 34 36 37 35 33 33 32 32 33 33 35 36 36 37 37 37 38 38 38 39 41 43 44 45 47 49 51
28 29 30 29 30 32 34 35 36 38 39 39 40 38 37 37 37 37 37 36 35 35 35 35 36 37 38 39 40 40 40 41 42 43 44 44 45 47 48 50 51 53 56

GEFSSE_500_meanwind_078.txt.gz
Wind_Speed
5 5 6 8 8 9 10 10 11 10 10 10 9 9 10 10 10 11 11 11 11 11 11 10 9 8 8 7 6 6 5 5 4 5 5 5 5 5 5 5 5 5 6
5 6 7 8 9 10 11 12 12 12 12 12 11 11 11 11 11 12 12 12 12 12 11 10 9 8 7 6 5 5 4 4 4 4 5 5 5 5 5 6 6 6 6
7 7 8 9 11 12 12 13 13 13 13 13 12 12 12 12 12 13 13 13 13 12 11 10 9 7 6 6 5 4 4 4 4 4 5 5 5 6 6 6 7 7 7
8 9 10 11 12 13 14 15 15 15 15 15 14 14 13 13 13 14 14 13 12 12 11 9 8 7 6 5 4 4 4 4 4 5 5 5 5 5 6 6 7 7 7
10 10 12 13 13 14 15 16 16 17 17 16 16 15 14 14 14 14 14 13 12 11 10 9 8 7 6 5 5 4 4 5 5 5 5 5 5 5 6 6 6 7 7
10 10 12 13 14 15 16 16 17 18 18 17 17 16 15 15 14 14 13 12 11 10 9 8 7 6 6 6 5 5 5 5 6 6 5 6 6 6 6 6 6 7 7
11 12 11 13 14 15 17 17 17 17 18 18 17 16 15 14 14 13 12 12 11 9 9 8 7 6 6 6 5 5 5 6 6 7 7 7 7 7 7 7 7 7 7
11 12 12 12 14 15 16 16 17 17 17 17 17 16 15 14 13 12 12 11 10 9 8 8 7 6 6 6 6 5 5 6 6 7 7 7 8 7 8 8 8 7 8
11 11 11 12 13 14 15 15 16 16 17 17 17 16 15 14 13 12 11 10 9 8 8 7 7 6 6 6 6 6 6 6 7 7 7 8 7 8 9 10 9 9 8
12 11 11 11 12 13 14 15 15 16 16 16 16 16 15 14 13 12 10 9 9 8 8 7 7 7 7 7 7 7 6 6 7 8 8 8 8 9 10 11 11 10 9
13 12 12 12 12 13 13 14 15 16 16 16 16 15 14 14 13 11 10 9 9 8 8 7 7 8 8 8 8 8 8 8 9 9 10 10 10 11 12 13 12 11 10
14 13 13 13 13 13 13 13 14 16 16 16 15 15 14 13 12 11 10 9 9 9 8 8 8 9 9 10 10 11 11 11 10 11 12 12 13 13 14 14 13 13 12
17 15 13 13 13 13 13 13 14 15 15 15 15 14 14 13 12 11 10 10 10 9 9 9 9 10 11 12 13 13 14 14 14 14 15 15 16 16 16 16 16 15 15
20 17 14 13 13 13 13 14 14 15 15 14 14 13 13 13 12 12 11 11 11 10 10 10 10 12 13 14 15 16 16 17 18 18 19 19 19 19 19 19 19 18 18
20 18 15 14 14 14 14 15 15 15 14 14 14 14 14 13 13 13 13 13 13 12 12 12 13 14 15 16 17 18 19 20 21 22 22 22 22 22 23 23 23 22 21
23 21 18 17 17 16 16 16 16 15 15 14 14 14 15 15 15 15 14 14 14 14 14 14 15 16 18 18 19 20 21 23 24 25 25 25 25 25 25 26 26 26 25
22 21 21 19 19 19 18 17 16 15 15 15 15 15 16 16 16 15 15 16 16 16 17 17 18 19 21 21 22 23 24 25 26 26 26 26 27 27 28 28 29 28 29
22 20 21 21 20 20 19 18 17 17 17 16 16 17 17 17 17 17 17 17 18 19 20 21 21 22 22 23 25 26 26 26 26 26 26 27 28 28 28 29 29 30 31
23 22 22 20 21 20 19 19 18 17 17 17 17 18 19 19 18 18 19 20 20 21 22 24 23 23 24 25 26 26 26 27 27 28 29 28 28 28 29 30 31 31 32
27 25 24 23 21 20 19 19 18 18 18 19 19 19 19 18 19 20 21 22 23 23 24 25 25 25 26 26 26 26 26 26 27 28 28 27 27 27 28 30 32 32 32
27 27 25 23 22 21 21 21 20 20 20 19 19 20 19 20 22 22 23 23 23 24 24 25 25 26 27 28 27 27 27 27 27 27 27 27 28 29 30 31 33 34 34
29 27 23 24 25 23 21 21 21 21 21 21 21 21 21 23 24 24 24 24 24 24 24 24 25 26 27 27 27 27 27 28 28 28 29 30 30 31 32 34 35 36 37
26 27 25 24 24 24 23 22 22 22 22 22 22 23 23 23 24 25 26 26 26 25 25 25 25 25 25 26 26 28 28 28 30 32 33 34 34 34 35 37 38 40 41
27 25 23 22 23 23 23 23 23 23 23 23 23 24 25 26 25 26 27 27 26 26 26 26 26 25 26 27 28 29 30 31 32 34 36 38 39 39 40 40 41 43 44
27 24 23 22 23 22 22 22 23 23 24 24 25 26 27 28 27 28 28 28 29 27 26 25 24 25 26 28 30 31 32 34 35 36 38 40 41 42 43 44 44 45 47
29 26 23 23 24 24 24 24 25 24 26 27 28 29 30 30 30 30 29 29 30 30 29 28 28 29 29 32 34 35 36 37 39 40 40 41 43 45 47 47 48 49 50

GEFSSE_500_meanwind_084.txt.gz
Wind_Speed
5 4 5 6 7 6 6 5 4 4 4 4 4 5 5 6 7 8 8 9 10 11 12 12 12 11 10 9 8 8 7 7 7 7 7 7 6 6 6 6 6 6 6
6 5 5 6 7 7 7 6 6 6 5 5 6 6 6 7 7 8 9 9 10 11 11 11 11 11 9 8 8 7 7 7 7 7 7 7 6 7 6 6 6 6 6
7 6 6 7 8 8 8 8 7 7 7 7 8 8 8 9 9 9 10 10 10 11 11 11 10 9 8 8 7 6 6 7 7 7 7 6 6 7 7 7 7 7 6
7 8 8 9 9 9 9 9 9 9 9 9 9 9 10 10 11 11 11 11 11 10 10 9 9 8 7 6 6 5 5 6 6 6 6 6 6 6 7 7 7 7 7
8 8 9 10 11 11 10 11 11 11 11 11 11 11 12 12 12 12 11 11 10 10 9 8 7 7 6 5 5 5 5 5 6 6 6 6 6 7 7 7 7 8 8
9 8 9 10 11 12 12 12 12 12 13 13 13 13 13 13 13 12 12 11 10 9 8 7 6 6 6 5 5 4 4 4 5 6 6 6 7 7 7 7 7 8 8
10 9 10 10 12 12 13 13 14 14 14 14 14 14 15 14 13 13 12 11 10 9 8 7 6 6 5 5 4 4 4 4 5 5 6 7 7 7 7 8 8 8 9
11 11 11 11 12 12 13 14 15 15 15 15 15 15 15 15 14 13 12 12 11 10 9 8 7 6 5 5 5 5 5 5 5 5 6 7 7 7 7 8 9 9 9
11 11 11 12 12 12 13 14 15 15 15 15 15 15 15 15 14 13 13 12 11 10 9 8 8 7 6 6 5 5 5 5 5 6 6 7 7 7 8 9 9 9 9
13 12 11 11 12 12 12 13 14 15 15 16 16 16 15 15 14 14 13 13 12 11 10 9 8 8 7 7 7 7 7 7 7 7 7 7 8 8 9 9 10 10 10
14 14 12 11 12 12 13 14 15 15 15 16 16 16 15 15 15 14 14 13 13 12 11 10 9 9 8 8 8 8 8 9 9 9 9 9 9 10 10 11 11 12 12
15 13 12 11 12 13 14 15 15 16 16 16 17 17 16 16 16 15 15 14 14 13 13 12 11 11 10 10 9 10 10 10 11 11 11 12 12 12 13 13 13 14 14
15 14 13 12 13 14 15 16 17 17 17 17 18 18 17 17 17 17 16 16 15 15 14 14 13 13 13 12 12 12 12 12 13 13 14 14 15 15 15 16 16 16 16
15 16 15 14 14 15 17 17 18 18 19 18 19 19 18 18 19 18 18 18 17 16 16 16 16 15 15 14 14 14 14 14 14 15 16 17 17 18 18 19 19 20 20
15 15 16 16 16 17 18 18 18 19 19 19 19 19 20 20 20 20 19 19 18 17 17 17 17 17 17 16 16 16 16 16 16 17 18 18 19 20 20 21 22 22 22
17 16 16 16 18 19 20 21 20 21 21 21 21 21 21 21 21 21 21 20 20 19 18 18 18 18 19 18 18 18 19 19 20 20 21 21 22 22 22 22 23 23 23
19 17 17 17 18 21 23 22 22 23 23 23 23 23 23 22 22 23 22 22 22 21 20 20 20 20 21 21 21 21 22 22 23 23 24 24 24 24 24 24 25 25 25
21 19 18 17 17 20 22 23 24 25 25 25 25 24 23 23 23 23 23 23 24 23 22 22 21 21 22 23 24 24 24 25 26 26 26 27 27 26 26 26 27 27 27
23 21 20 20 20 20 22 24 25 25 25 26 26 25 25 25 24 24 25 25 25 25 25 23 23 23 24 25 25 26 26 27 27 27 28 28 29 28 29 29 28 28 29
25 24 23 21 21 22 22 24 25 25 25 26 27 26 26 26 25 25 26 25 26 26 26 25 25 26 27 27 28 28 28 28 28 29 29 29 30 31 31 31 31 31 31
27 26 26 24 21 22 23 24 25 26 25 27 27 27 27 26 26 25 25 24 25 25 26 27 28 28 28 29 31 31 31 31 30 31 31 31 31 32 33 33 33 34 34
27 27 27 27 24 23 24 25 25 24 23 26 26 27 27 26 25 25 24 24 24 24 25 26 28 29 30 31 31 32 32 32 33 33 33 34 35 35 35 35 36 36 37
28 27 27 26 24 25 26 26 25 24 23 25 25 26 27 26 25 26 26 26 25 26 26 26 27 28 29 30 32 33 34 34 34 35 36 37 38 39 39 39 40 40 40
28 27 26 24 24 25 25 25 24 24 23 24 25 26 27 27 26 26 27 25 25 26 26 27 27 28 29 30 32 33 33 34 35 36 37 38 39 41 41 42 43 44 44
27 26 26 24 23 24 23 24 23 23 23 23 24 25 26 25 25 25 25 25 26 26 26 27 28 29 30 31 32 32 33 35 37 38 39 40 42 43 44 45 46 47 48
27 25 24 24 24 24 25 24 22 22 23 23 23 23 23 23 24 25 25 26 28 28 28 29 30 31 32 33 33 34 36 37 39 41 42 43 45 46 48 49 50 50 50

GEFSSE_500_meanwind_090.txt.gz
Wind_Speed
11 12 12 12 12 11 10 10 10 10 10 9 8 7 5 4 3 2 1 1 2 2 3 4 5 5 4 4 3 2 2 2 2 3 3 3 3 3 3 3 3 4 4
12 14 13 13 13 12 11 11 10 10 10 10 9 8 6 5 4 3 2 2 3 3 4 4 4 4 4 3 2 2 1 1 1 2 2 2 2 3 3 3 3 4 4
13 14 15 14 14 13 13 12 11 11 11 11 10 9 7 6 5 5 4 4 5 5 5 5 5 4 4 3 2 2 1 1 1 1 2 2 2 3 3 3 3 4 4
14 15 16 15 15 14 14 13 13 13 12 12 11 10 9 8 7 6 6 6 6 6 6 6 5 5 4 3 3 2 2 2 1 1 2 2 2 3 3 3 4 4 4
17 16 17 17 16 16 15 14 14 14 14 13 12 11 11 10 9 8 8 8 7 7 7 6 6 5 5 4 4 3 3 2 2 2 2 2 3 3 4 4 4 4 4
17 17 17 17 17 17 16 16 15 15 15 14 14 13 12 12 11 10 10 9 9 8 8 7 7 6 6 5 4 4 4 3 3 2 2 3 3 4 4 4 4 5 5
16 16 17 16 17 17 17 17 17 17 16 16 15 15 14 14 13 12 11 11 10 9 9 8 8 7 7 6 6 5 5 4 4 4 3 4 4 5 5 5 5 5 5
16 17 17 18 18 18 18 18 18 18 18 17 17 17 16 15 14 14 13 12 12 11 10 10 9 9 8 7 7 7 6 6 5 5 5 5 5 6 6 6 6 6 6
18 17 17 17 18 18 19 19 19 19 19 19 19 18 18 17 16 15 15 14 13 12 12 11 11 10 10 9 9 8 8 7 7 7 7 7 7 7 7 7 8 7 7
16 17 17 18 19 19 20 20 21 20 20 20 20 20 19 18 17 17 16 15 14 14 13 12 12 12 12 11 10 10 9 9 9 9 9 9 9 9 9 9 10 10 9
17 17 18 19 20 21 22 22 21 21 21 21 21 21 20 19 18 18 17 16 16 15 14 14 13 14 13 13 12 12 11 11 11 10 10 10 11 11 11 12 12 12 12
17 18 18 19 20 21 22 23 22 22 22 21 22 22 21 20 19 19 18 18 17 16 16 15 15 15 15 15 14 14 14 13 13 13 13 13 13 13 14 15 15 15 15
18 18 19 19 20 22 22 23 23 23 22 22 22 22 21 21 20 20 19 19 18 18 17 17 17 17 17 17 17 17 16 16 16 16 15 15 15 15 16 16 17 18 18
18 19 19 21 20 21 22 24 24 25 24 23 23 22 22 22 22 21 20 20 20 19 19 19 19 19 18 18 19 19 19 18 18 18 17 17 18 18 18 19 19 20 20
19 20 20 21 20 22 23 23 24 24 25 25 24 23 24 24 23 23 22 21 21 21 20 20 20 20 21 21 21 21 21 21 20 20 20 20 20 20 20 20 21 21 21
22 22 21 21 22 23 24 24 24 25 25 25 25 25 24 24 23 23 24 23 23 22 22 22 22 22 22 22 22 23 23 23 23 23 23 23 23 23 23 23 23 23 24
25 24 22 22 23 23 24 25 26 26 26 27 26 26 25 25 24 24 25 25 24 24 24 23 23 23 24 24 24 25 25 25 25 25 25 25 25 25 26 26 26 26 25
27 26 24 23 23 23 23 24 25 26 26 27 27 27 27 27 27 27 26 26 26 26 25 26 25 25 25 25 26 26 26 26 27 27 28 27 28 28 28 28 28 28 28
28 27 26 25 24 23 23 24 22 23 25 26 27 28 29 30 29 29 28 28 28 28 27 27 28 27 27 27 28 28 28 28 28 29 29 29 30 31 31 30 31 31 30
31 29 27 26 25 25 23 23 22 22 24 26 27 28 28 29 30 29 30 29 29 29 29 28 29 29 29 30 30 31 31 31 30 30 31 31 33 34 34 34 34 34 34
33 31 29 28 27 26 24 23 22 22 24 25 26 27 27 28 29 30 31 30 29 29 29 29 29 30 30 31 31 31 31 32 33 33 33 33 34 34 35 36 37 37 37
33 33 31 30 29 27 25 24 24 23 23 24 26 27 27 28 29 30 30 31 30 30 30 30 30 30 30 30 31 32 32 32 33 34 34 35 36 37 37 38 38 39 40
33 33 32 31 30 29 26 25 24 24 24 25 25 25 23 24 27 29 30 28 28 30 31 31 31 31 32 32 32 32 32 33 34 35 36 37 39 39 40 41 42 42 43
33 33 33 32 31 29 28 27 26 26 25 24 24 23 22 23 24 26 28 29 28 29 29 31 30 30 31 31 32 33 34 35 36 37 38 39 40 41 42 43 45 45 46
31 32 32 32 31 30 29 29 29 27 26 25 24 25 24 23 23 26 27 28 29 30 30 30 31 32 32 31 32 33 34 35 37 38 38 39 40 41 43 44 46 47 48
30 31 31 31 30 29 29 28 27 26 26 25 25 25 24 25 25 27 28 29 29 30 31 31 30 29 30 31 33 34 35 37 37 39 40 41 42 43 45 46 47 49 50

GEFSSE_500_meanwind_096.txt.gz
Wind_Speed
11 12 13 13 13 13 13 13 13 13 12 12 12 12 12 11 10 9 7 6 5 5 4 4 4 3 3 3 3 2 1 2 2 2 2 3 3 3 3 3 3 3 3
12 13 13 13 14 14 14 14 14 13 13 13 13 13 13 12 11 10 9 7 6 6 6 5 5 4 4 3 3 2 2 2 2 2 2 3 3 3 3 3 3 3 3
14 15 15 15 15 15 15 15 15 14 14 14 14 14 14 14 13 12 10 9 8 7 7 6 6 5 4 4 3 3 2 2 2 2 2 3 3 3 3 3 3 3 4
16 16 17 17 16 16 16 17 16 16 16 16 15 15 15 15 14 13 12 11 10 9 8 7 7 6 5 5 4 4 3 3 3 2 2 3 3 3 3 3 4 4 4
18 18 19 19 18 18 17 18 18 18 17 17 16 16 16 16 16 15 14 12 11 10 9 9 8 7 6 6 5 5 5 4 3 3 2 3 3 3 3 3 4 4 4
18 19 19 20 20 19 19 19 19 19 18 18 17 17 18 18 18 17 16 14 13 12 11 10 9 8 7 7 7 7 6 5 5 4 3 4 3 3 3 4 4 4 5
18 19 20 21 21 21 21 21 20 20 19 19 18 19 19 19 19 18 17 16 15 14 12 11 10 9 9 9 8 8 8 7 6 5 4 5 5 5 4 5 5 5 5
19 19 20 22 22 21 21 21 21 21 21 20 20 20 20 21 20 20 19 18 17 15 14 13 11 11 10 10 10 10 9 8 7 6 5 6 6 6 6 6 6 6 6
19 19 19 20 22 21 21 21 21 21 21 21 21 21 21 21 21 21 20 19 18 17 16 14 13 12 12 12 12 11 10 10 9 8 7 7 6 6 7 7 7 8 8
18 18 18 19 20 20 21 21 21 21 21 22 22 23 23 22 22 22 21 21 20 19 17 16 15 14 14 13 13 12 12 11 10 9 8 8 8 8 8 8 9 10 10
19 19 19 19 20 21 20 21 21 21 22 22 23 24 24 24 23 23 22 22 22 21 19 18 16 15 15 15 14 14 13 13 11 10 10 10 10 9 9 10 10 11 12
21 20 21 21 22 22 22 22 22 22 23 24 24 25 25 25 25 25 24 23 23 22 21 20 18 17 17 16 16 16 15 14 13 13 13 12 12 12 12 12 12 13 14
22 21 21 22 22 24 24 24 24 25 24 24 25 25 26 26 26 26 25 25 24 23 22 21 20 19 18 18 17 17 17 16 15 15 15 15 14 14 14 14 14 15 15
25 23 22 21 23 24 24 24 25 24 25 26 26 27 27 27 26 26 26 26 25 24 24 23 22 21 20 19 18 18 19 18 17 17 17 17 17 17 17 17 17 17 17
26 24 23 23 23 24 24 24 24 24 24 25 25 26 27 27 26 26 26 26 26 25 24 24 23 23 22 21 20 20 20 20 19 18 18 19 19 19 19 20 20 20 20
28 26 25 25 23 23 24 24 24 24 24 24 25 26 26 27 27 26 26 26 26 26 24 24 24 24 23 22 22 22 22 22 22 21 20 20 20 21 22 22 23 23 23
29 28 25 25 24 23 23 23 24 25 25 26 25 25 26 26 26 26 26 27 26 26 25 25 25 24 25 24 24 24 24 24 24 23 23 23 23 23 24 24 25 26 25
30 29 27 25 25 25 24 24 25 25 25 25 24 26 26 26 26 27 28 28 27 27 27 26 27 26 26 26 25 25 25 25 25 25 26 26 26 26 26 27 27 28 27
30 29 28 27 27 27 26 25 25 24 25 25 24 25 25 27 27 28 28 28 28 28 28 28 27 27 27 27 26 26 26 27 27 27 28 29 29 28 28 29 30 30 30
31 31 30 30 30 28 27 27 26 25 25 24 24 23 23 25 27 27 28 28 28 28 28 28 28 28 29 29 28 28 28 28 29 30 30 31 31 31 31 31 32 33 33
33 33 32 32 32 31 29 28 28 27 25 25 24 22 21 22 23 25 26 28 28 28 28 29 29 29 30 29 29 29 29 30 31 31 33 32 33 33 34 34 34 34 34
35 35 33 34 34 34 32 30 30 28 27 26 25 24 23 22 24 23 25 26 27 28 29 29 30 29 30 30 30 30 30 31 31 32 33 34 34 35 35 36 37 38 37
35 35 35 35 35 35 33 32 30 30 28 26 26 25 25 26 25 25 24 24 26 27 29 30 29 29 29 30 30 30 31 31 33 34 35 36 36 37 37 38 38 40 40
34 35 35 35 35 35 34 34 32 31 30 28 27 26 26 25 24 24 24 24 25 26 27 29 30 29 30 31 31 31 32 34 35 35 36 36 37 38 39 40 40 41 42
33 34 35 35 35 35 34 34 33 32 31 30 29 28 27 26 26 25 25 24 25 25 26 27 28 29 30 30 31 32 34 35 35 36 36 37 38 38 39 40 41 42 44
33 34 35 35 35 35 35 34 34 33 31 30 29 28 27 27 27 26 26 26 26 26 27 28 29 29 30 30 31 32 33 34 34 36 37 38 39 39 40 42 43 45 46

GEFSSE_500_meanwind_102.txt.gz
Wind_Speed
6 4 4 6 8 9 10 11 11 11 11 11 11 10 10 10 10 10 10 9 9 9 9 8 8 8 7 6 5 4 3 1 1 0 0 1 1 1 2 3 3 3 3
7 6 6 7 8 9 10 11 12 13 13 13 12 12 11 11 11 11 11 11 11 11 10 9 9 9 8 7 6 4 3 2 1 0 0 1 1 2 3 3 3 4 4
8 8 8 8 9 10 11 13 14 14 15 15 14 13 13 13 13 12 12 12 12 12 12 11 10 10 9 8 6 5 4 2 2 1 0 1 1 2 3 3 3 3 4
10 10 10 10 10 11 12 14 15 15 16 16 15 15 14 14 13 13 13 13 13 13 13 12 12 11 10 9 7 6 4 4 3 2 1 1 1 2 2 2 3 3 3
11 11 11 11 12 13 13 15 16 16 16 16 16 16 15 15 14 15 15 15 14 14 14 14 13 12 11 10 8 7 6 5 4 3 2 1 1 2 2 2 2 2 2
12 12 12 12 13 14 15 16 17 17 18 18 18 17 17 16 16 16 16 16 15 15 15 15 14 13 12 11 9 8 7 6 5 5 3 3 3 2 2 2 2 2 2
13 13 13 14 14 15 16 17 18 18 19 19 19 19 19 18 18 18 17 17 16 16 16 15 15 14 13 12 11 9 8 7 7 6 5 4 4 4 3 3 2 3 3
14 14 15 15 16 17 17 18 19 20 20 21 21 20 20 19 19 19 18 18 17 17 17 16 15 14 14 13 12 11 10 9 8 8 6 6 5 5 5 4 4 3 3
16 16 16 16 16 18 19 19 20 20 21 22 22 22 21 21 20 20 20 19 18 18 17 17 16 15 14 14 13 12 11 11 10 9 8 7 7 6 6 5 5 4 4
18 18 17 17 18 18 19 20 20 20 21 22 22 22 22 22 22 21 20 20 19 19 18 18 17 17 16 15 14 13 12 12 11 11 10 9 8 8 8 7 6 6 6
20 20 20 20 19 19 19 20 21 21 21 22 22 23 23 23 23 22 21 20 20 20 19 19 19 18 17 16 16 15 14 14 13 12 12 11 10 10 9 9 8 8 8
22 22 23 22 21 20 20 20 21 21 21 22 23 24 24 24 23 23 21 21 21 21 20 20 20 19 18 18 17 16 15 15 14 14 13 13 12 12 11 11 11 10 10
23 24 25 24 23 21 21 21 21 22 22 22 23 24 24 25 24 24 23 23 23 22 22 22 21 21 20 19 18 18 17 16 16 15 15 15 14 14 14 13 13 13 12
24 25 27 25 23 24 23 22 23 23 23 25 25 25 25 25 25 25 24 25 25 25 24 23 22 22 21 21 20 19 18 18 17 17 17 16 16 16 16 16 15 15 15
25 26 26 25 25 25 25 24 24 25 25 26 26 25 25 25 25 26 26 27 26 26 26 25 24 22 22 22 21 21 20 20 18 18 19 18 18 17 17 18 17 17 17
27 28 27 27 26 26 26 27 27 27 27 26 26 26 26 25 24 25 26 27 27 27 26 26 25 24 22 23 22 22 22 21 20 20 20 20 20 19 19 19 20 20 20
28 28 28 27 27 26 26 27 27 26 27 27 27 28 26 26 25 25 26 26 26 27 27 26 26 26 24 23 24 23 22 22 22 21 21 21 21 21 21 21 21 21 22
31 29 28 28 27 26 26 26 26 26 26 26 26 26 25 24 25 24 24 24 25 25 26 26 24 25 25 24 23 24 23 23 22 22 22 22 23 23 23 24 24 24 24
31 30 30 30 29 27 26 25 24 25 25 25 24 23 23 23 23 23 23 23 24 25 25 25 24 24 24 23 22 23 24 24 24 24 24 24 24 24 24 25 25 25 26
30 30 31 31 29 28 28 28 26 26 24 24 23 20 20 20 20 21 21 23 23 24 24 25 25 25 24 24 24 24 25 25 25 25 25 25 25 25 26 26 27 28 28
30 30 31 31 29 29 29 30 30 28 26 25 22 20 19 19 19 19 20 21 23 24 24 24 24 24 24 25 26 26 26 27 27 27 27 27 27 28 28 28 29 29 30
30 30 31 31 31 31 31 31 30 30 28 25 23 20 20 19 20 20 20 21 23 23 23 24 24 25 25 25 26 27 28 29 29 29 29 29 30 30 30 31 31 31 31
30 31 31 31 31 32 32 31 31 29 28 27 25 22 21 21 21 20 19 19 20 22 22 22 22 25 26 26 26 28 28 29 29 29 30 31 32 32 32 32 32 33 34
30 30 30 31 31 32 32 32 31 29 28 26 25 24 22 21 20 20 19 18 20 21 21 22 22 23 25 26 27 28 28 29 30 30 31 32 33 33 33 34 34 35 36
30 31 31 31 31 31 31 31 31 30 29 28 26 25 25 24 23 22 21 19 19 21 21 22 23 24 24 26 27 28 28 29 30 31 31 33 34 34 35 35 36 37 37
28 29 30 30 31 30 31 31 31 30 29 27 26 26 26 25 24 23 22 22 21 22 22 22 23 24 25 26 27 28 29 29 30 31 32 33 34 35 35 36 36 38 38

GEFSSE_500_meanwind_108.txt.gz
Wind_Speed
4 3 4 4 4 5 5 5 6 5 5 5 4 3 3 3 4 5 6 7 9 10 11 11 11 12 12 11 10 9 8 7 6 5 5 5 4 4 4 3 3 2 2
4 4 5 5 6 6 6 6 6 6 6 6 6 5 5 5 5 6 7 7 8 9 10 11 11 11 12 11 10 9 8 7 6 5 5 4 4 3 3 3 2 2 2
4 5 6 7 8 8 8 8 8 8 8 8 8 7 7 7 6 7 7 8 8 8 9 10 10 11 11 11 10 9 8 7 6 5 5 4 3 3 3 2 2 2 2
6 7 7 9 9 9 9 9 9 9 9 9 9 9 9 8 8 8 8 8 8 8 9 9 10 10 10 10 9 9 8 7 6 6 5 4 3 3 3 2 2 2 2
8 7 8 10 10 10 10 10 10 11 11 11 11 10 10 10 10 10 10 9 9 9 9 10 10 10 10 10 9 9 8 7 7 6 6 5 4 3 3 3 2 2 3
10 9 9 10 11 11 11 12 12 12 13 12 12 12 12 12 12 12 12 12 11 11 11 11 11 10 10 10 9 9 8 8 7 7 7 6 5 4 4 3 3 3 3
11 11 11 11 12 13 13 13 14 14 14 14 14 14 14 14 14 14 14 14 14 13 12 12 12 11 10 10 10 9 9 9 8 7 7 7 6 5 4 4 3 3 4
12 13 13 13 13 14 14 14 15 15 15 15 16 16 16 15 15 16 16 16 15 15 14 13 13 12 11 11 11 10 10 10 9 9 8 8 7 6 5 5 4 4 4
14 15 14 14 15 16 16 16 17 17 17 17 17 17 17 17 18 18 18 17 17 16 16 15 14 13 12 12 12 11 11 11 10 10 9 9 8 7 7 6 5 5 5
16 16 16 16 16 17 17 17 18 18 18 18 19 19 19 19 19 19 20 19 19 18 17 16 16 15 14 14 13 13 12 12 12 11 10 10 10 9 8 7 7 7 6
18 18 18 18 17 17 17 17 18 19 20 20 20 21 21 21 21 21 21 21 21 20 19 18 17 16 16 15 15 14 14 14 13 13 12 11 11 11 10 9 9 8 8
20 19 20 19 18 18 18 19 20 20 20 21 22 22 22 22 22 22 21 22 22 21 21 20 19 19 17 17 17 16 16 15 15 14 14 13 13 12 12 12 11 10 10
21 20 20 20 19 18 19 20 21 22 22 22 23 23 24 23 23 23 22 22 22 22 22 22 21 20 19 19 19 18 18 18 17 16 16 15 15 14 14 14 14 13 12
23 22 22 22 21 21 22 23 23 24 24 23 24 24 24 24 24 24 24 24 24 24 24 24 23 22 21 21 21 21 20 19 19 18 18 17 17 16 16 16 16 15 15
23 23 23 23 23 24 24 25 25 25 25 25 26 25 26 27 26 26 26 25 26 25 26 25 25 25 24 23 22 22 22 21 20 20 19 19 19 19 18 18 18 17 17
25 25 24 23 23 23 24 25 25 24 26 28 28 28 28 28 27 26 26 26 26 26 26 27 26 25 24 23 23 23 23 23 22 21 21 21 21 21 20 20 20 19 18
26 25 25 24 24 24 23 24 24 26 27 28 29 30 30 29 27 27 27 26 26 26 27 27 26 25 24 24 23 22 22 22 22 22 22 22 22 22 22 22 21 21 21
28 27 26 26 26 25 26 26 26 27 28 28 29 29 29 28 28 28 28 28 27 27 26 26 26 25 25 25 24 23 23 23 23 23 23 23 23 24 23 23 23 23 23
30 29 28 26 26 26 27 27 27 26 26 26 26 27 27 27 28 28 29 29 27 26 26 26 26 24 24 24 25 24 24 24 24 23 23 24 24 24 24 24 24 25 24
29 29 28 28 27 27 27 27 27 26 25 24 24 24 25 26 26 26 28 28 27 25 26 26 26 25 24 25 25 24 24 24 25 24 25 25 25 26 26 26 26 26 27
27 28 28 27 28 28 28 27 26 26 26 24 22 23 24 23 22 22 24 25 26 26 25 25 25 25 25 25 26 25 25 25 26 26 26 26 26 27 27 27 27 28 29
27 27 27 27 27 28 28 28 27 26 26 25 25 24 23 22 21 21 22 24 25 25 25 25 26 27 27 26 27 27 27 28 28 27 28 28 29 29 29 30 30 31 32
27 27 27 27 28 28 28 29 29 28 28 27 25 25 24 24 23 23 23 23 24 25 25 24 26 27 27 28 27 28 29 30 30 29 29 30 30 31 32 32 33 33 33
26 27 27 26 27 27 28 28 28 28 27 26 25 25 25 24 23 23 23 23 23 23 23 24 25 26 27 27 27 28 28 29 30 30 31 31 32 33 33 33 34 35 35
26 26 26 26 26 27 28 28 28 28 27 27 26 25 25 24 23 23 23 22 22 23 24 24 24 25 26 27 26 27 27 27 29 30 30 30 31 32 33 33 33 35 35
24 24 25 25 25 26 26 27 27 27 27 27 26 25 24 24 23 23 23 22 21 22 23 23 24 24 24 26 26 26 27 27 28 29 30 31 31 31 32 33 34 35 36

GEFSSE_500_meanwind_114.txt.gz
Wind_Speed
5 7 9 9 8 8 8 8 9 9 9 9 8 7 6 5 4 3 3 2 2 3 4 4 5 6 6 6 6 5 5 4 3 4 4 4 4 4 4 4 4 4 4
6 8 9 10 10 9 9 9 9 10 10 9 9 7 7 6 5 4 2 1 1 1 2 3 3 4 5 5 5 4 4 3 3 3 3 3 3 3 3 3 3 4 4
7 8 9 10 10 10 10 10 10 11 10 10 10 9 8 7 6 5 4 3 2 1 1 2 3 3 4 4 4 3 3 3 2 2 2 2 2 2 2 2 2 2 3
7 8 9 9 10 11 11 12 12 12 12 11 11 10 10 9 8 7 6 5 4 4 3 3 4 4 4 4 4 3 3 2 2 2 2 2 2 2 1 1 1 1 2
8 8 9 9 10 11 12 12 13 13 13 13 12 12 11 10 10 9 8 7 6 6 5 5 6 5 5 5 5 4 4 3 3 3 3 2 2 2 1 1 1 1 1
9 8 8 9 10 11 12 12 13 14 14 14 14 13 13 13 12 11 11 10 9 8 8 8 8 8 7 6 6 5 5 4 4 4 4 3 3 3 3 2 2 1 1
9 9 9 10 10 11 12 13 14 14 15 14 14 15 14 14 14 13 13 12 11 11 10 10 10 10 9 8 7 7 6 6 5 5 5 5 5 5 5 4 3 3 2
9 10 10 10 11 12 13 15 15 15 16 16 16 16 16 16 15 15 14 14 14 13 13 12 12 12 11 10 9 8 8 7 7 7 7 7 6 6 6 6 5 4 4
11 10 11 11 12 13 14 15 16 16 17 18 18 18 18 18 17 17 16 16 16 16 15 15 14 14 13 12 11 11 10 9 9 9 9 9 8 8 8 8 7 6 5
13 12 12 12 13 14 15 16 17 18 18 18 19 20 20 20 20 19 19 18 17 17 17 17 16 15 15 14 14 13 12 11 11 10 10 10 10 10 9 9 8 8 7
14 13 14 14 14 14 15 16 18 19 20 20 20 20 20 21 21 21 20 19 19 19 18 18 17 17 17 17 16 15 14 14 13 13 12 12 12 12 12 11 10 9 9
16 16 15 15 15 16 16 17 18 18 19 20 20 21 22 22 21 22 21 21 21 20 20 19 19 19 19 18 18 18 17 17 16 15 15 14 14 14 14 13 12 12 11
18 17 17 17 17 17 18 19 19 19 20 20 20 21 22 22 22 22 22 22 22 22 22 21 21 21 20 20 20 20 20 19 19 18 17 17 16 16 16 15 15 14 13
21 20 19 19 19 20 20 20 20 20 21 21 22 22 23 24 24 23 23 23 23 23 23 23 22 22 22 22 22 22 22 22 22 21 20 19 19 18 18 18 17 16 16
22 22 22 22 22 22 22 22 22 22 22 23 22 23 24 25 25 25 25 25 25 24 25 24 23 24 24 23 24 24 24 24 24 23 22 21 21 20 20 20 19 19 18
24 24 23 23 23 23 23 24 24 23 23 23 24 24 25 26 26 27 26 26 26 25 25 25 24 24 24 24 25 25 25 25 25 24 24 23 22 22 22 22 21 21 20
25 24 24 24 24 24 24 25 25 25 25 25 25 26 26 26 26 28 27 27 27 27 26 26 26 26 25 25 26 26 27 26 25 24 24 23 24 23 23 23 23 23 23
26 25 25 25 25 25 25 25 25 26 26 26 26 26 26 26 27 28 29 28 29 29 28 28 27 27 26 26 26 26 26 26 26 25 24 25 25 24 24 25 25 24 25
26 26 26 26 26 26 26 25 25 26 26 26 25 25 26 27 27 28 28 28 29 30 29 29 28 27 27 27 26 25 26 27 27 26 25 25 25 25 26 26 26 25 26
26 26 26 26 26 26 26 26 26 26 27 26 25 25 26 26 26 26 26 27 29 29 29 29 29 29 28 28 27 26 26 27 28 28 26 26 27 27 27 27 28 27 27
25 26 26 25 26 26 26 26 26 27 27 27 26 25 26 26 26 27 28 27 26 26 27 29 30 29 28 28 28 27 27 27 29 29 29 29 29 29 29 29 29 29 29
25 26 26 26 25 25 25 26 26 26 27 26 26 25 25 25 25 25 27 27 26 25 26 27 29 30 30 30 28 28 28 29 29 30 31 30 30 31 31 31 31 31 32
25 25 26 25 25 25 25 25 25 26 26 26 26 26 25 25 25 24 25 25 26 26 26 26 27 29 30 30 29 30 30 30 30 30 31 32 32 32 33 32 32 33 34
24 25 25 25 25 25 25 24 25 25 25 26 26 26 26 26 26 26 26 25 25 26 26 27 26 27 28 28 29 29 30 31 31 31 32 33 33 33 34 35 35 35 36
24 25 25 25 25 25 25 25 25 25 25 25 25 25 25 26 26 26 26 26 26 26 26 27 27 27 27 28 29 30 32 32 32 33 34 34 34 34 34 35 36 36 37
23 24 25 25 25 25 25 25 25 25 25 25 26 25 25 25 26 26 26 27 27 27 27 27 28 29 28 28 28 29 31 31 32 33 34 34 35 34 34 34 34 36 36

GEFSSE_500_meanwind_120.txt.gz
Wind_Speed
9 9 10 9 9 9 9 9 8 8 8 7 7 8 8 8 7 7 6 5 4 3 2 2 2 2 3 3 3 4 3 3 3 3 4 4 4 4 5 5 5 5 6
10 11 11 10 10 10 10 10 10 9 9 9 9 9 9 9 9 8 8 7 5 4 4 3 3 3 3 3 3 3 2 2 2 2 3 3 3 4 4 4 4 5 5
11 11 12 12 12 11 11 11 11 10 10 11 11 11 10 10 10 10 9 8 7 6 6 5 4 4 4 3 3 3 3 2 1 1 1 2 2 2 3 3 3 4 4
13 13 13 13 13 13 13 12 12 12 11 11 12 12 12 11 11 11 10 10 9 8 8 7 6 6 5 5 4 4 4 3 2 1 1 1 1 1 2 2 2 3 3
14 13 13 14 14 14 14 14 13 13 13 13 13 13 13 13 12 12 12 11 11 10 9 9 8 8 7 7 6 6 5 5 4 3 2 2 2 1 1 1 1 1 2
14 14 13 14 14 14 14 15 14 14 14 14 14 15 15 14 14 14 13 13 12 12 11 11 10 10 9 9 8 8 7 7 6 5 4 4 3 2 2 2 1 1 1
14 14 14 14 14 14 15 15 15 15 15 15 15 16 16 16 16 16 16 15 15 14 13 13 12 11 11 10 10 10 9 8 8 6 6 5 5 4 4 4 3 3 2
14 14 14 14 14 15 15 15 16 16 16 17 17 17 17 17 18 18 17 17 17 16 16 15 14 13 13 12 12 12 11 10 10 8 8 7 7 6 6 5 5 5 4
14 15 15 16 15 15 16 16 16 17 17 18 19 19 19 19 19 19 19 19 19 18 18 17 16 15 15 14 14 14 13 12 12 10 9 9 8 8 8 7 7 7 7
15 16 16 17 16 16 16 17 18 18 18 19 20 20 21 21 21 21 21 21 21 20 19 18 18 17 17 17 16 16 15 14 14 13 12 11 11 10 10 9 9 9 9
16 16 16 16 17 16 17 17 18 18 18 19 20 21 21 22 22 22 22 23 23 22 20 20 20 19 19 19 18 17 16 16 15 15 14 13 13 12 12 11 11 11 11
18 17 16 17 17 18 18 17 17 17 18 19 20 21 22 22 23 24 24 24 24 23 22 21 21 20 20 20 20 19 18 18 17 17 16 16 15 15 14 13 13 13 12
18 18 17 17 17 17 18 18 18 18 19 20 21 21 22 22 23 25 25 25 24 24 24 23 22 22 22 22 22 21 21 20 19 17 17 18 18 18 17 16 15 15 15
19 18 18 18 18 19 19 18 18 20 20 20 22 22 22 23 24 25 26 25 25 25 24 23 24 24 23 23 23 23 22 22 21 19 19 20 20 20 20 19 18 18 18
19 17 17 19 20 21 21 22 21 20 21 22 21 23 23 22 23 24 25 25 25 24 24 24 24 25 26 24 23 24 24 24 23 22 21 22 22 23 22 21 20 20 20
19 19 19 19 20 21 21 22 22 21 22 22 23 23 23 23 24 25 25 25 25 26 25 24 25 25 25 25 25 25 24 24 24 23 23 23 24 24 24 23 22 21 22
21 21 21 20 21 21 22 22 22 23 23 23 23 23 23 23 24 25 25 26 26 26 26 26 26 26 26 26 26 26 25 24 24 24 24 24 24 24 24 24 23 23 23
21 22 22 21 21 22 23 23 23 24 24 24 23 24 24 25 26 26 26 26 27 27 28 28 28 28 27 26 27 28 27 26 25 25 24 24 24 25 24 25 25 24 24
22 22 23 22 23 23 24 24 25 25 25 25 25 25 26 26 27 26 26 26 26 27 27 27 28 28 27 28 28 28 27 28 27 25 23 23 24 24 25 25 25 25 26
22 23 24 24 25 25 25 26 26 27 27 27 27 26 27 27 27 27 27 27 27 27 27 27 27 28 28 28 29 28 28 27 27 26 25 24 24 25 26 26 26 26 27
23 24 25 25 26 27 27 27 27 28 28 28 28 28 28 28 28 28 28 27 28 28 28 28 28 27 28 29 29 29 29 28 28 28 27 26 25 26 27 28 27 27 29
23 24 25 26 27 27 27 27 28 28 28 28 28 29 29 29 30 30 30 28 27 27 28 28 28 28 28 28 29 29 30 29 29 29 28 27 26 27 27 29 29 29 30
23 24 25 26 27 27 28 28 29 29 29 29 29 29 29 30 30 29 29 29 28 28 28 28 28 27 27 27 28 29 31 31 29 28 28 28 28 28 29 30 31 31 31
24 25 26 27 27 28 28 29 29 29 29 29 29 29 29 28 29 28 29 28 28 28 28 28 28 28 27 26 27 28 30 30 30 29 28 28 29 29 29 29 31 33 33
25 25 26 27 28 28 29 30 30 30 30 29 29 29 28 28 28 28 29 29 29 29 29 28 28 28 28 28 28 28 28 29 30 30 29 29 29 29 30 31 31 32 33
25 26 26 27 28 28 29 29 29 30 30 29 29 28 28 27 27 27 29 29 29 29 30 30 29 29 28 28 29 28 28 28 28 29 30 30 30 31 31 33 33 33 34

GEFSSE_500_meanwind_126.txt.gz
Wind_Speed
6 6 6 7 7 8 8 8 8 8 7 7 7 7 7 7 7 8 8 8 8 7 7 7 6 6 6 5 4 4 3 2 1 1 1 2 2 2 3 3 4 5 6
8 8 7 8 8 9 9 9 9 9 9 8 8 8 9 9 9 9 9 9 9 9 8 8 7 7 6 6 5 4 4 3 2 1 1 1 1 1 2 2 3 4 5
9 9 8 9 9 10 10 11 11 11 10 10 10 10 10 10 10 10 10 10 10 10 9 9 9 8 7 6 6 5 5 4 3 2 1 1 1 1 1 2 2 3 3
10 9 10 10 10 11 11 12 12 12 12 11 11 11 11 11 11 11 11 11 11 11 11 10 10 9 8 8 7 6 6 5 4 3 3 2 1 1 1 1 1 1 2
12 11 11 11 11 12 13 13 13 13 13 13 12 12 12 12 12 12 12 12 12 12 12 11 11 10 9 9 8 7 7 6 5 5 4 3 3 2 2 1 1 0 0
13 12 12 12 12 13 13 14 14 14 14 14 14 14 13 13 13 13 14 14 14 14 13 13 12 12 11 10 9 9 8 8 7 7 7 5 5 4 3 3 2 2 1
15 13 13 13 13 13 14 14 15 15 15 15 15 15 15 15 15 14 15 15 15 15 15 14 14 13 13 12 11 10 9 9 8 9 9 8 7 6 5 5 4 4 3
16 15 14 14 14 14 15 15 15 15 16 16 16 16 16 16 16 16 16 16 16 16 16 15 15 15 14 13 12 11 11 10 10 9 9 9 9 8 7 7 6 5 5
17 16 16 15 15 14 15 15 16 16 16 16 16 17 17 18 18 17 17 17 18 18 18 18 17 16 16 15 14 13 12 12 11 11 11 11 11 9 9 8 8 7 7
17 16 16 15 15 15 15 16 16 16 16 17 18 18 18 19 19 19 19 19 19 19 20 20 19 18 18 17 16 15 14 13 13 13 13 12 12 11 10 10 10 9 9
18 16 17 15 15 16 17 17 17 16 17 18 18 18 19 19 20 20 21 21 21 21 21 21 21 20 19 19 18 17 16 15 14 14 15 15 14 13 13 12 12 11 11
17 16 15 15 16 17 17 17 17 17 17 17 19 19 19 20 20 21 21 21 22 22 22 23 22 22 21 21 21 20 19 18 17 17 17 17 15 15 15 14 13 13 13
16 16 15 15 16 17 17 17 16 16 17 18 19 20 21 21 21 21 21 22 21 22 23 23 23 23 23 23 22 21 21 20 19 19 18 18 17 17 17 17 16 15 15
16 16 17 16 16 17 17 16 16 16 17 18 19 20 21 21 22 22 22 22 23 23 23 23 23 22 23 24 24 23 22 22 21 21 20 20 19 19 19 19 19 18 17
15 15 15 15 16 17 17 16 16 16 17 18 19 20 21 21 22 23 23 23 23 23 23 23 22 22 23 25 25 24 24 23 22 21 21 21 20 19 20 19 20 20 19
13 13 14 15 15 15 17 17 16 16 17 18 20 21 21 22 22 22 24 24 23 23 23 23 22 22 23 24 25 24 24 23 22 22 22 22 22 23 22 21 21 22 21
14 13 13 13 14 15 16 17 16 17 17 19 20 21 22 23 23 23 23 24 23 23 23 22 23 24 23 24 25 24 23 23 23 23 24 23 23 23 24 23 22 23 22
14 13 14 15 15 16 16 17 17 18 19 20 21 22 22 23 24 24 24 25 24 23 23 23 23 24 24 24 24 25 24 24 24 24 23 24 24 23 23 23 23 23 24
14 14 15 14 16 17 17 18 19 20 21 21 22 23 23 24 24 24 25 25 25 24 24 24 24 24 25 25 26 26 25 25 25 25 25 24 24 24 23 23 22 23 24
13 14 14 15 16 17 18 19 20 21 22 23 23 23 24 25 25 25 25 25 25 25 25 25 25 26 26 25 26 26 27 27 27 26 26 26 25 25 24 23 22 23 23
14 14 15 16 17 18 19 20 21 22 23 24 24 25 25 26 26 26 26 26 26 26 26 26 26 26 26 26 26 26 27 27 27 28 27 25 26 25 25 25 24 24 24
15 16 16 17 18 20 21 21 22 23 24 25 26 26 26 27 27 27 27 27 27 27 27 27 26 26 26 26 26 26 26 26 27 27 27 28 26 26 26 26 26 25 25
16 16 18 19 20 21 22 23 24 25 25 26 26 26 27 27 27 27 27 28 28 28 28 28 27 26 26 26 26 26 27 27 27 27 27 28 27 26 25 26 26 26 26
17 18 19 20 21 22 23 24 25 26 26 26 27 26 26 26 27 27 27 27 27 28 28 28 27 27 26 27 27 27 28 27 27 26 26 26 27 27 27 27 26 27 27
18 19 20 21 22 23 24 25 26 26 27 27 27 27 26 26 26 26 26 27 27 27 27 27 26 27 27 27 27 27 28 28 27 26 26 26 27 28 28 28 28 28 27
18 19 21 22 23 24 25 25 26 26 27 27 27 27 26 26 26 26 26 26 26 26 26 26 26 26 26 26 26 26 26 26 26 26 26 27 27 27 27 28 28 29 29

GEFSSE_500_meanwind_132.txt.gz
Wind_Speed
6 6 7 7 7 7 6 5 5 4 4 4 3 3 3 4 4 5 6 7 7 8 9 9 9 9 9 9 9 8 8 7 6 5 5 4 4 3 2 2 2 2 2
7 7 8 9 8 8 7 7 6 6 5 5 5 5 4 5 5 6 6 7 8 8 8 8 9 9 9 9 8 8 8 7 7 6 5 4 3 2 2 2 1 1 2
9 8 9 10 10 9 8 8 8 7 7 7 7 7 6 6 6 6 7 8 8 8 8 8 8 8 8 8 8 8 8 7 6 6 5 4 3 3 2 2 1 0 1
10 10 10 11 11 10 9 9 9 9 9 9 9 8 8 8 8 8 8 9 9 9 9 9 9 8 8 8 8 8 8 7 7 6 5 5 4 4 3 2 1 0 0
13 12 11 12 12 11 11 11 10 10 10 10 10 10 10 10 10 9 10 10 10 10 10 9 9 9 9 9 8 8 8 8 8 7 7 6 6 5 4 4 2 1 1
15 13 13 13 13 13 13 12 12 12 12 11 11 11 11 11 11 11 11 11 11 11 11 11 11 10 10 10 9 9 9 9 9 9 8 7 7 6 5 5 4 3 2
15 15 15 15 14 14 14 14 14 14 13 13 13 13 13 12 12 13 13 13 13 13 13 13 13 12 12 11 11 11 11 10 10 10 9 8 8 8 7 6 5 4 4
16 16 16 16 16 16 15 15 15 15 15 14 14 14 14 14 14 14 14 14 14 15 15 15 15 14 14 13 13 12 12 12 11 11 10 10 10 9 8 7 7 6 5
18 18 17 17 18 17 16 16 16 16 16 15 15 15 15 16 15 15 15 16 16 17 17 17 16 16 16 16 15 14 13 13 13 12 12 12 11 11 10 9 8 8 7
19 18 18 18 18 17 16 16 17 17 17 16 16 16 16 17 17 17 17 17 18 18 19 19 18 18 18 18 18 16 15 15 15 14 14 13 13 13 12 11 10 10 9
20 19 19 18 18 17 17 17 18 18 18 18 18 18 18 18 18 18 18 18 19 20 20 21 21 20 20 20 20 19 18 17 16 16 16 15 15 15 13 13 13 12 11
20 19 19 18 18 17 18 19 19 19 19 19 19 19 19 19 19 19 20 19 20 21 21 21 21 22 22 22 22 21 21 19 19 18 18 17 16 16 15 15 14 14 13
19 18 17 19 18 18 19 19 20 20 20 19 19 19 19 20 20 21 21 20 21 21 22 22 22 22 23 23 23 23 22 21 20 20 19 19 18 17 17 17 17 16 15
18 18 19 18 19 19 19 19 19 20 19 19 19 20 21 21 22 22 21 21 22 22 23 24 24 23 23 23 23 23 23 22 22 21 21 21 20 19 19 18 18 19 17
16 16 16 17 18 17 18 19 19 20 20 20 20 21 22 22 22 22 22 22 22 23 24 24 24 24 23 23 23 23 23 24 23 22 22 22 22 22 22 21 20 20 20
16 16 15 16 15 14 16 18 19 20 20 21 21 21 22 23 23 23 23 23 24 24 25 26 25 25 24 23 23 23 23 24 24 24 23 23 23 23 23 23 22 21 20
16 16 15 14 15 15 17 18 19 20 20 21 22 22 22 23 23 24 24 24 24 25 25 25 25 25 25 24 24 24 24 24 25 24 24 24 24 24 23 23 23 23 21
17 17 16 15 15 16 17 19 19 19 19 20 20 21 21 22 23 24 24 25 25 25 26 26 26 26 26 26 25 25 25 25 26 26 25 25 24 23 24 23 23 23 23
18 19 17 16 16 16 17 19 19 19 18 20 21 21 21 22 24 24 24 25 25 26 26 27 27 27 27 27 26 26 26 25 25 25 25 25 25 24 24 24 25 24 24
18 19 18 17 17 17 17 18 17 18 18 19 20 21 22 22 24 25 25 26 26 26 27 28 28 28 28 28 28 28 27 27 26 26 26 26 25 26 27 26 26 25 25
17 17 17 17 17 18 18 18 19 19 20 20 20 21 22 23 24 25 25 27 28 28 28 28 28 28 28 29 29 28 28 27 27 27 27 27 27 27 28 27 27 27 26
18 17 16 16 17 18 18 19 21 21 20 21 22 22 23 24 25 25 26 28 29 29 29 28 28 28 28 28 29 29 28 27 27 27 27 26 26 27 27 27 27 28 27
17 17 17 17 18 18 19 21 22 22 21 22 22 23 24 25 26 27 27 28 28 29 29 28 28 28 28 28 28 28 28 27 27 27 27 26 26 26 26 26 27 28 29
17 18 18 19 19 20 21 22 22 23 23 24 24 24 25 27 27 28 28 28 28 29 29 28 27 27 27 27 27 27 27 27 27 27 27 27 27 26 26 26 26 27 27
19 20 21 21 21 21 22 23 24 25 25 26 26 26 27 28 28 28 29 28 28 28 28 28 28 27 27 27 26 27 27 27 27 27 28 27 27 27 26 27 27 28 28
21 21 21 22 22 23 23 24 25 26 27 27 27 28 28 28 28 28 29 28 28 28 28 28 27 27 27 26 26 26 27 27 27 27 27 26 26 27 27 27 27 27 29

GEFSSE_500_meanwind_138.txt.gz
Wind_Speed
2 2 3 4 5 5 6 7 7 7 6 5 4 2 2 1 2 2 2 3 3 4 5 5 5 5 6 6 6 5 5 5 5 4 3 3 3 2 2 2 3 2 2
3 3 3 4 5 6 6 8 8 8 7 6 5 4 3 2 2 1 0 1 2 3 3 4 4 4 5 5 5 5 5 5 4 4 3 3 2 2 2 2 2 1 1
5 4 5 5 6 6 7 8 9 9 8 7 7 6 5 4 3 3 2 2 2 2 3 3 4 4 4 4 5 5 4 4 4 4 3 3 3 2 2 2 2 1 0
6 5 6 6 7 7 8 9 9 10 10 9 8 8 7 6 5 5 4 4 3 3 4 4 4 4 4 5 5 5 5 5 4 4 4 4 4 3 2 2 2 2 2
7 7 7 8 8 9 9 10 11 11 11 11 10 9 9 8 7 7 6 5 5 5 5 5 5 5 5 5 5 5 6 6 5 5 4 5 5 4 4 3 3 3 3
7 7 7 8 9 10 11 12 12 12 12 12 11 11 10 10 9 8 8 7 7 7 7 7 7 7 7 7 6 6 6 6 6 6 6 6 6 6 6 5 5 5 5
9 8 9 10 11 12 13 14 14 14 14 14 14 13 12 12 11 10 10 9 9 9 9 9 9 9 9 8 8 8 8 8 7 7 7 7 7 8 7 7 7 7 6
11 10 10 11 12 13 15 16 16 16 16 16 16 15 14 13 13 12 12 12 11 11 11 11 10 11 11 10 10 10 10 10 9 9 9 9 9 9 9 9 8 8 7
13 13 12 13 13 15 15 16 17 17 17 17 17 16 16 15 15 14 14 14 13 13 12 12 12 12 12 12 12 12 12 12 12 12 11 11 11 11 11 10 10 9 8
13 13 13 14 14 15 16 17 18 18 17 18 18 18 17 16 16 16 16 15 15 14 14 14 14 13 13 14 14 13 13 14 14 14 13 12 12 12 12 12 12 11 10
13 14 14 14 15 16 17 18 18 19 18 19 20 19 19 19 18 17 17 16 16 16 15 15 15 15 15 15 15 15 15 15 15 15 15 15 14 14 14 13 13 13 12
14 14 13 13 15 16 16 18 18 19 20 21 21 20 20 20 19 19 18 18 17 17 16 16 16 17 17 17 16 16 17 17 17 17 17 17 17 17 16 15 15 14 14
15 14 14 14 14 16 17 18 19 20 22 22 23 22 21 21 20 20 19 19 19 19 18 18 18 18 18 18 18 17 17 18 18 19 19 18 18 19 18 17 16 16 16
16 15 14 15 15 17 19 19 21 20 22 23 23 23 22 22 22 22 22 21 21 20 19 19 19 19 20 20 19 19 19 18 18 19 20 20 19 19 20 20 19 18 17
16 16 16 16 17 18 19 21 22 23 22 23 24 23 23 23 23 23 23 22 22 21 20 20 20 20 20 21 21 20 20 20 20 20 21 22 21 21 21 21 21 20 20
17 16 16 17 18 19 20 21 22 23 24 24 23 23 23 24 24 24 23 24 23 22 21 21 21 22 22 21 22 22 22 22 22 22 22 22 22 22 22 23 22 22 21
18 17 17 17 17 18 20 21 22 23 23 24 24 24 24 24 24 25 25 25 25 24 23 23 23 23 23 23 23 23 23 23 23 22 22 22 23 23 23 23 22 22 23
20 20 19 18 19 20 21 21 21 21 22 24 25 25 25 25 25 25 26 26 26 25 25 24 24 24 24 24 24 25 24 24 24 24 25 24 24 24 24 24 23 23 24
21 21 20 20 20 22 23 23 22 22 22 23 25 25 25 25 25 26 27 27 27 26 26 26 25 26 25 25 25 26 26 26 26 26 26 26 26 25 25 26 25 24 25
21 21 20 19 19 20 21 22 23 23 23 23 23 24 24 25 26 27 27 27 27 27 26 26 26 26 27 27 27 27 27 27 27 27 27 27 26 26 26 27 27 26 26
20 21 20 19 19 19 20 20 22 23 23 22 22 23 23 24 26 27 28 27 28 28 27 27 27 27 28 27 27 27 27 27 27 27 27 26 26 26 27 27 28 27 26
20 19 19 20 19 19 20 21 21 22 23 23 24 24 25 26 26 26 27 28 27 28 27 27 27 28 28 27 27 27 27 27 27 27 27 26 26 26 26 26 26 26 26
20 20 20 20 20 20 20 20 21 22 23 24 25 25 26 26 27 27 27 27 27 27 28 28 28 28 28 28 28 28 27 27 27 27 27 27 27 27 27 27 27 27 27
19 19 20 21 21 21 21 21 22 22 23 24 25 27 27 27 27 27 27 28 28 28 29 29 30 29 29 29 29 29 29 28 28 28 28 28 28 28 27 28 28 28 28
20 20 20 21 21 21 22 23 23 24 24 25 26 27 27 27 27 28 28 29 29 30 30 30 30 30 30 29 29 28 28 28 28 28 28 28 28 28 28 28 29 29 29
21 21 21 22 22 23 24 24 25 25 26 27 27 27 27 28 28 29 29 30 30 30 30 30 30 30 30 29 28 28 28 28 28 28 28 27 27 27 28 29 29 29 30

GEFSSE_500_meanwind_144.txt.gz
Wind_Speed
7 7 7 8 8 8 8 8 8 8 8 8 8 7 7 7 6 5 4 3 2 2 1 1 1 2 2 3 3 3 3 4 4 3 3 3 3 3 2 3 3 3 3
8 9 9 9 10 10 10 10 10 9 9 9 9 8 8 8 7 6 6 5 4 4 3 2 2 2 2 2 3 3 3 3 3 3 3 3 3 2 2 2 3 3 3
10 10 10 10 11 11 12 12 12 11 11 11 10 10 9 9 9 8 7 7 6 5 4 4 4 3 3 3 3 3 3 3 3 3 3 3 2 3 2 2 2 2 3
11 10 11 11 12 12 13 13 13 13 13 12 12 11 11 10 10 9 9 8 7 7 6 5 5 4 4 4 4 4 4 4 4 4 4 4 3 3 3 3 3 3 3
12 12 12 12 13 14 14 14 14 14 14 14 13 13 12 12 12 11 11 10 9 8 7 7 6 6 5 5 5 5 6 6 5 5 5 5 4 5 5 5 5 4 4
13 13 13 14 14 14 15 15 15 15 15 15 15 15 14 14 14 13 12 11 11 10 9 8 8 7 7 7 7 7 7 7 7 7 6 6 6 7 7 6 6 6 6
14 15 15 15 15 15 16 15 16 17 17 17 17 17 16 16 16 15 14 13 12 12 11 11 10 10 9 9 9 9 9 9 9 9 9 8 9 8 8 7 8 8 8
14 15 15 15 15 16 17 17 17 18 18 19 19 19 18 17 17 17 16 15 14 14 13 13 12 12 11 11 11 11 11 11 11 10 11 10 10 10 9 9 9 9 9
15 15 15 15 16 17 18 18 19 20 19 19 20 20 20 19 19 19 18 17 16 15 15 15 15 14 14 13 12 12 12 13 13 12 12 11 11 11 11 10 10 11 11
16 16 16 16 16 17 18 18 19 20 20 20 20 20 20 20 20 20 19 19 18 18 17 17 17 16 15 15 14 14 14 14 14 14 13 13 13 13 12 12 12 13 13
17 17 17 17 17 18 18 18 18 19 20 21 21 20 20 20 20 20 19 19 20 19 19 18 18 18 17 16 16 15 15 15 14 15 14 15 15 14 14 14 14 14 14
18 19 19 19 18 19 19 19 19 20 20 21 21 21 21 21 21 20 20 20 21 21 20 19 19 18 18 18 17 17 17 17 16 15 15 15 16 16 16 16 16 16 16
19 19 19 20 20 19 20 20 20 21 22 22 22 21 21 22 22 21 21 22 22 21 21 20 19 19 19 19 18 17 17 18 18 18 16 16 17 17 17 17 17 17 17
20 20 21 20 20 20 20 21 21 21 22 23 22 21 23 23 22 22 22 22 22 22 21 20 20 20 19 18 18 18 19 19 19 18 19 18 18 18 18 18 18 19 18
21 21 21 21 21 21 21 21 22 22 22 22 23 24 24 23 23 22 22 22 21 20 20 21 21 21 21 20 19 20 20 20 20 20 19 20 19 19 19 19 19 20 20
21 22 22 21 21 22 21 22 23 24 23 23 24 25 24 24 22 22 22 23 22 22 21 22 23 23 22 21 20 20 20 20 21 22 21 21 21 21 20 20 21 21 22
22 22 23 23 22 22 22 23 24 25 24 25 25 25 24 24 24 24 24 24 23 23 23 24 24 24 23 22 21 21 21 21 22 22 23 23 22 22 22 22 21 21 21
23 24 24 24 23 24 24 24 25 26 25 25 26 26 25 25 25 25 24 24 25 25 25 26 25 25 24 23 22 22 22 22 23 23 23 24 24 24 23 23 23 22 21
24 24 24 24 25 25 26 25 26 26 26 26 26 26 25 25 25 25 24 24 24 25 25 25 25 25 25 24 23 23 23 23 24 23 24 24 25 25 24 24 23 23 23
24 24 24 24 25 26 26 27 27 27 26 26 26 27 26 26 26 26 24 24 25 26 26 26 25 25 26 26 25 25 25 25 25 25 25 25 25 25 25 24 24 24 25
25 24 24 25 26 26 27 27 27 27 27 26 27 27 27 26 25 26 25 25 25 26 26 26 26 25 25 26 26 24 24 25 25 25 26 25 25 25 25 25 24 24 24
24 25 25 25 25 26 26 27 27 27 27 27 26 27 27 26 26 27 25 25 25 26 26 26 26 26 26 26 26 25 25 26 25 26 25 25 25 25 25 25 25 25 25
24 25 25 25 26 26 27 27 27 26 26 26 27 27 28 28 27 27 26 26 26 26 27 27 27 27 27 28 27 27 27 26 26 25 26 25 25 25 25 25 25 26 26
23 23 25 26 27 27 27 27 26 25 26 26 27 27 27 27 27 27 27 27 27 28 28 28 28 28 27 27 28 28 28 28 28 27 26 26 26 25 25 25 25 26 26
24 25 26 27 28 28 28 26 25 25 25 25 25 26 26 26 27 27 28 29 29 29 29 29 28 28 28 27 27 28 29 28 28 27 26 27 27 27 27 26 26 26 26
25 26 27 27 27 27 26 26 25 25 25 26 26 26 26 26 27 28 28 28 28 28 28 28 28 28 28 28 28 28 28 28 27 27 27 28 28 28 28 27 27 26 26

GEFSSE_500_meanwind_150.txt.gz
Wind_Speed
6 5 5 5 5 6 6 6 7 8 8 9 10 10 11 11 11 10 10 10 9 8 7 6 5 5 5 4 4 4 3 3 3 2 2 2 2 2 2 1 1 2 2
7 6 6 6 6 7 8 8 8 9 10 10 11 11 11 11 11 11 11 11 10 9 9 8 7 6 5 5 5 4 4 4 4 3 3 3 3 3 3 2 1 1 2
8 7 7 7 7 7 8 9 10 11 11 12 12 12 12 12 12 12 12 12 12 11 10 9 8 8 7 6 6 5 5 5 5 5 4 5 4 4 3 3 2 2 1
9 8 8 8 8 8 9 10 11 12 13 13 14 14 14 14 13 13 13 13 13 12 11 10 10 9 9 8 7 7 7 6 6 6 6 6 5 5 5 4 4 3 3
9 9 9 9 10 10 10 11 12 13 14 14 15 15 15 15 15 15 15 14 14 13 13 12 12 11 11 10 9 8 8 8 8 7 7 7 6 6 6 5 5 5 4
10 10 10 10 11 12 12 12 13 13 14 15 16 17 17 17 17 17 16 15 15 15 14 14 13 13 12 12 11 10 10 9 9 9 9 8 8 8 7 7 6 6 6
10 10 11 12 12 12 13 13 14 15 15 16 17 18 18 18 18 18 18 17 17 16 16 15 15 14 14 13 13 12 11 11 11 10 10 10 10 10 9 9 8 7 7
11 11 12 12 13 13 14 15 15 16 16 17 18 19 19 19 20 20 19 19 18 18 18 17 17 16 16 15 15 14 13 13 12 12 11 11 11 11 11 10 10 9 8
11 12 12 13 13 14 15 16 16 17 17 18 19 19 20 20 20 21 20 20 20 19 19 19 18 18 17 17 17 16 15 14 14 13 13 13 13 12 12 11 11 10 9
12 13 13 14 14 15 15 16 17 18 18 19 20 20 20 21 21 22 22 21 21 21 20 20 20 19 19 19 18 18 17 16 15 15 15 14 14 13 12 12 12 12 12
12 14 15 15 15 16 16 17 18 19 19 20 20 20 21 21 22 22 22 22 22 22 22 22 21 21 20 20 20 19 18 17 17 16 16 15 14 14 13 13 13 13 13
13 15 16 16 17 17 18 18 19 19 20 20 21 21 22 22 22 22 22 23 23 23 23 22 22 21 21 21 21 20 20 19 18 18 17 16 15 14 13 14 14 14 14
16 16 17 17 18 18 18 19 19 20 20 20 21 22 22 22 23 23 23 23 23 24 23 23 23 22 22 22 22 21 21 20 20 19 19 17 16 15 14 15 15 15 15
16 17 18 17 17 18 18 18 19 19 20 20 21 22 23 23 23 24 25 24 24 24 23 23 24 23 22 22 23 23 22 21 21 21 19 18 17 17 16 17 16 16 16
18 18 18 18 18 19 19 19 20 21 21 21 22 22 23 24 24 23 24 24 24 25 25 24 24 24 23 23 23 23 23 23 23 22 21 19 19 17 18 18 17 17 17
18 19 19 19 20 20 21 21 21 22 22 22 22 23 24 25 25 25 24 23 24 24 24 23 23 23 23 23 22 22 22 23 23 23 21 20 20 20 20 19 18 18 18
19 20 20 21 21 21 22 22 23 23 23 24 24 24 25 25 25 25 25 24 23 23 23 23 24 24 23 23 22 22 22 22 23 23 22 22 21 21 20 19 18 18 19
20 21 21 22 22 23 23 23 24 24 24 25 25 25 26 26 26 25 25 24 24 23 23 23 23 24 23 23 23 23 23 22 23 23 23 22 22 22 21 21 20 20 20
21 22 22 22 23 23 24 24 25 25 26 26 27 27 27 26 27 26 25 25 24 25 24 23 23 23 24 24 24 25 24 24 23 23 23 23 23 23 22 22 22 21 21
21 22 22 23 23 23 24 25 25 26 27 27 27 28 28 28 27 28 27 26 25 25 25 25 24 24 25 24 24 25 25 24 24 24 24 24 23 23 22 22 22 21 21
21 22 23 23 23 24 24 25 25 26 27 27 28 28 28 28 28 27 27 26 25 24 24 25 25 24 25 25 25 25 25 25 25 25 24 24 23 23 22 22 22 22 21
23 23 23 23 24 24 24 24 26 26 27 28 28 28 27 27 27 27 27 27 26 25 25 26 26 25 25 25 25 25 25 25 25 25 25 24 24 23 22 22 22 22 22
23 24 24 25 25 24 24 25 26 27 28 28 28 27 27 26 27 27 27 27 27 26 26 26 26 26 26 25 25 25 25 26 25 26 26 26 25 24 23 23 23 23 22
23 24 24 25 25 25 25 25 26 27 27 27 26 26 25 25 25 26 28 28 28 27 27 27 27 27 26 25 25 26 26 26 26 26 26 26 25 25 24 24 24 23 23
24 24 25 25 26 26 26 26 26 26 27 25 25 25 26 25 26 26 26 27 27 27 27 26 27 27 27 27 26 26 26 26 26 26 26 25 25 25 25 25 24 24 24
24 25 26 26 26 26 27 27 27 27 26 25 25 25 25 25 25 25 25 25 25 25 25 25 26 27 27 27 27 26 26 26 25 26 25 25 25 25 24 24 24 25 25

GEFSSE_500_meanwind_156.txt.gz
Wind_Speed
5 6 7 7 7 6 6 6 6 6 6 6 7 7 8 9 9 10 11 11 12 12 11 11 11 11 10 10 9 9 9 8 8 8 7 7 7 6 6 5 4 3 3
6 7 8 8 7 7 7 7 7 7 7 7 8 8 9 9 10 11 11 11 12 12 12 12 12 11 10 10 10 9 9 9 9 8 8 8 7 7 6 5 4 3 3
7 8 8 8 8 8 8 7 8 8 9 9 9 10 10 11 11 11 12 12 12 13 13 13 12 12 11 10 10 10 10 9 9 9 9 9 8 7 6 6 5 5 4
8 9 9 9 9 9 9 9 9 9 10 10 11 11 12 12 13 13 13 13 14 14 14 14 13 13 12 11 11 10 10 10 10 10 9 9 8 7 7 7 6 6 5
9 10 10 10 11 10 10 10 10 10 11 12 12 13 13 14 15 15 15 15 15 15 15 15 14 13 13 12 12 12 11 11 10 10 10 10 9 9 8 8 8 7 6
11 11 11 11 11 11 11 11 11 12 12 13 14 14 15 16 16 16 17 17 17 17 17 16 15 14 14 14 13 13 13 12 12 12 11 11 11 10 10 9 9 8 7
13 13 12 12 12 12 12 12 12 13 14 15 15 16 17 17 17 18 18 18 18 18 18 18 17 16 16 15 15 15 14 14 13 12 12 12 12 12 11 11 10 9 9
14 14 14 13 12 12 13 13 13 13 14 15 16 17 18 19 19 19 19 19 19 20 20 19 19 19 18 18 17 16 16 15 14 14 13 14 13 13 13 12 12 11 10
14 15 15 14 13 13 14 14 14 14 15 16 17 18 18 19 19 19 19 19 20 21 21 21 22 21 20 20 19 18 17 16 16 15 15 15 14 14 14 14 13 13 12
15 15 15 15 15 15 15 15 15 16 16 17 18 18 19 19 20 20 20 20 21 21 22 22 22 22 22 21 21 20 18 18 18 17 17 16 15 15 15 15 14 13 13
15 15 15 16 16 16 16 16 16 17 17 18 19 19 20 20 20 21 21 21 21 21 23 24 24 23 23 23 22 22 21 20 20 19 18 17 16 16 16 15 14 15 15
16 16 16 17 17 17 17 17 17 18 18 19 20 20 21 20 20 21 21 22 23 23 23 24 25 25 24 23 23 23 23 22 21 21 20 19 18 17 17 16 16 16 16
16 16 16 17 18 18 18 19 18 19 19 19 20 21 21 21 22 22 22 23 24 24 24 25 26 26 25 25 24 24 24 23 22 21 21 20 20 19 18 17 17 16 17
17 17 17 19 19 19 19 19 19 19 20 20 21 21 22 22 23 24 23 24 24 25 25 25 26 27 27 26 25 25 24 24 23 22 22 22 21 20 19 18 18 18 17
17 18 19 19 19 20 20 20 20 20 20 21 22 22 23 24 24 25 25 25 25 25 26 26 27 27 27 26 26 26 25 24 24 23 23 23 23 22 21 20 19 19 18
18 18 19 19 20 20 20 20 21 21 21 22 22 22 23 24 25 26 26 26 26 26 26 27 27 27 27 27 26 26 26 25 25 25 24 24 24 23 22 22 22 21 21
18 18 19 20 20 21 21 21 21 22 22 22 23 24 24 25 26 26 26 27 27 27 26 26 26 27 27 26 26 26 25 25 25 25 25 25 25 24 23 23 23 23 22
18 19 19 20 21 21 21 21 22 22 23 24 24 25 26 26 27 27 28 28 28 28 27 26 26 26 27 26 26 26 26 26 26 26 26 26 26 25 25 25 24 23 23
20 20 21 21 22 22 21 22 23 23 23 24 25 26 27 27 28 28 29 28 28 28 28 27 27 26 25 26 26 26 26 26 26 26 26 26 25 25 25 24 24 24 24
21 21 22 21 22 22 23 23 23 24 25 26 27 27 28 28 28 28 28 28 29 28 28 28 27 27 26 26 27 27 26 26 25 25 26 26 26 26 25 25 24 24 24
22 23 23 23 23 23 24 25 25 26 27 28 28 28 29 28 28 28 29 29 29 29 28 28 27 27 27 27 27 27 27 27 27 26 26 26 26 26 26 25 25 25 25
23 23 23 24 25 25 25 26 27 28 28 29 29 29 29 29 29 28 28 29 29 29 29 28 28 27 27 27 27 27 27 27 27 27 26 26 25 25 26 26 25 25 25
24 24 24 25 26 26 27 28 28 28 29 29 29 29 29 28 27 27 27 27 27 28 28 28 29 28 27 27 27 27 27 27 27 27 27 26 25 25 25 25 26 25 25
25 25 25 26 26 27 28 28 29 29 29 29 29 29 28 28 27 26 25 26 27 27 27 28 28 28 28 28 27 27 27 27 27 27 27 26 25 25 25 25 25 25 25
26 26 27 27 27 27 28 28 28 29 28 28 29 28 28 27 27 26 26 26 26 26 26 26 26 26 27 27 26 26 27 27 27 27 27 26 25 24 24 24 25 24 24
26 27 27 27 26 27 28 28 28 28 28 28 28 27 27 26 25 25 26 26 25 26 26 25 25 25 26 25 26 26 26 26 27 27 26 26 25 25 25 25 25 24 25

GEFSSE_500_meanwind_162.txt.gz
Wind_Speed
2 2 3 3 3 4 5 6 6 6 6 5 4 5 5 5 5 5 5 6 6 6 6 6 6 7 6 7 7 7 6 6 6 5 5 5 5 4 4 4 4 4 4
3 3 4 4 4 5 6 7 7 7 7 7 6 6 7 7 6 6 7 7 7 7 7 7 7 7 7 7 7 7 7 6 6 6 6 6 6 5 5 4 4 5 5
5 5 6 5 6 7 7 8 8 8 8 8 8 8 8 8 8 8 8 8 8 8 8 8 8 8 8 8 8 8 8 7 7 7 7 6 6 6 6 5 5 5 6
6 6 7 7 7 8 9 9 10 10 10 10 10 10 9 10 10 10 10 10 10 10 10 9 9 9 9 9 9 9 9 9 9 8 7 7 7 7 7 7 7 7 7
7 8 8 8 9 10 10 11 11 11 11 11 11 11 11 11 11 12 11 11 11 11 11 11 11 11 10 10 10 10 10 10 10 9 9 8 8 8 8 8 8 8 8
8 9 9 10 10 11 11 11 12 12 12 12 12 12 12 12 13 13 13 13 12 12 12 12 12 12 12 12 11 11 11 11 11 10 10 9 9 9 9 10 10 9 9
9 9 10 11 12 12 12 12 12 12 13 13 13 13 13 13 13 14 13 13 13 13 13 13 13 14 14 13 13 13 12 12 12 12 12 11 11 11 11 11 11 10 10
10 11 11 11 12 13 13 13 13 13 13 13 14 14 14 14 15 15 14 14 14 14 14 14 14 15 15 15 15 14 14 14 14 14 14 13 13 13 12 12 12 12 11
11 12 12 12 13 13 13 13 14 14 14 14 15 15 15 16 16 16 16 15 15 15 15 15 16 16 16 16 17 17 16 16 15 15 15 15 15 15 14 13 13 13 12
11 12 13 14 14 14 13 14 14 14 14 15 16 17 17 17 17 17 17 17 17 16 16 17 17 17 17 18 18 18 18 17 17 17 17 17 16 16 16 15 15 14 14
13 13 15 14 14 14 14 14 15 15 16 16 17 18 18 18 19 18 19 19 18 18 18 18 19 19 19 19 19 19 20 20 19 19 19 19 19 18 17 17 16 15 15
14 15 15 15 15 15 15 16 16 17 17 18 18 19 19 19 20 20 20 20 20 20 20 20 21 21 21 21 22 22 22 22 21 21 21 20 20 20 19 19 18 17 16
15 16 16 17 17 17 16 17 18 19 19 19 20 20 20 20 21 21 22 22 22 22 22 22 22 22 22 22 23 23 23 23 22 22 21 21 21 22 21 20 19 19 19
16 17 17 17 18 18 18 19 19 20 21 21 21 22 22 22 22 22 23 23 23 24 24 24 24 24 24 24 24 23 24 23 23 23 23 22 22 22 21 21 21 21 20
17 17 18 18 18 19 19 20 21 22 22 22 23 23 22 23 23 24 24 24 25 25 25 25 25 25 25 24 25 24 24 24 25 25 23 23 23 23 22 22 22 22 21
19 19 19 19 20 20 20 21 21 22 23 23 23 24 23 24 25 26 26 26 26 26 26 27 26 27 26 26 26 25 25 26 25 25 24 24 25 24 24 24 23 23 23
19 20 21 21 21 21 21 22 23 23 23 24 24 25 25 26 27 27 27 27 27 27 27 28 28 27 27 26 26 27 27 27 27 27 26 25 25 25 25 25 25 24 24
20 20 21 21 22 22 22 24 24 24 24 25 26 26 26 27 28 28 28 28 28 28 28 28 28 28 27 27 27 28 28 27 27 28 27 26 26 26 25 25 26 25 25
20 21 21 22 23 24 25 25 25 25 25 26 26 26 27 28 28 28 29 29 30 29 29 29 29 28 28 28 28 27 27 27 27 27 27 27 26 26 26 26 26 26 26
22 22 22 23 25 25 26 26 26 27 29 29 28 27 28 28 29 30 31 31 31 30 30 29 29 29 29 29 29 28 26 26 26 27 27 27 27 26 26 26 25 26 26
21 22 24 24 25 26 27 27 28 29 30 30 29 28 29 29 30 31 31 32 31 31 30 30 29 29 29 29 29 29 28 28 27 27 27 27 28 27 26 26 26 25 26
22 23 24 25 25 27 28 28 29 29 30 29 29 29 29 30 30 31 31 32 31 30 29 29 30 30 29 29 30 30 29 28 28 28 27 27 28 28 28 27 25 25 25
23 24 25 26 26 28 28 28 28 29 28 28 28 29 30 30 30 30 30 30 30 29 29 29 30 30 30 30 30 30 29 28 28 27 27 27 28 28 27 27 26 25 25
24 25 26 26 26 27 27 27 27 27 27 27 28 29 29 30 30 29 29 29 28 28 28 28 28 29 29 29 29 29 29 29 28 27 26 27 27 27 27 26 25 25 26
24 25 25 25 26 26 26 26 27 28 28 28 28 29 29 28 29 29 28 28 27 27 27 27 27 27 27 28 28 28 27 27 27 27 27 27 27 27 26 26 26 26 26
24 25 25 26 26 27 27 28 28 28 28 27 27 27 27 27 27 28 27 27 27 26 26 26 26 27 26 26 26 26 26 26 26 26 27 27 27 27 27 26 26 26 26

GEFSSE_500_meanwind_168.txt.gz
Wind_Speed
5 6 7 7 7 7 8 8 9 9 10 10 10 10 10 10 9 9 9 8 8 8 8 7 7 7 7 7 7 7 6 6 6 6 6 6 5 5 5 5 5 5 5
6 6 7 8 9 9 9 10 10 11 11 11 11 11 10 10 10 10 10 10 10 9 9 9 9 8 8 8 8 8 8 7 7 7 7 6 6 6 6 6 6 5 6
8 8 9 10 10 11 11 11 11 12 12 12 12 12 12 11 11 11 11 11 11 10 10 10 10 10 10 10 10 9 9 9 8 8 8 7 7 7 7 7 7 6 6
10 10 10 11 11 12 12 12 12 12 13 13 13 13 13 13 12 12 12 12 11 11 11 11 11 11 11 11 11 11 10 10 9 9 9 8 8 8 8 8 8 8 8
11 11 12 12 12 12 13 13 13 14 14 14 14 14 13 13 13 13 13 13 13 13 13 13 13 12 12 12 12 12 12 12 11 11 11 10 9 9 9 9 9 9 9
12 12 12 13 13 13 14 14 14 15 15 15 15 15 14 14 14 14 14 14 14 14 14 14 13 13 13 13 13 13 14 14 14 13 12 12 11 11 11 10 10 10 10
13 13 13 14 14 14 14 15 15 15 15 15 15 15 15 15 15 15 14 14 14 15 15 15 14 14 14 14 14 14 15 15 15 15 14 14 13 14 14 13 12 12 11
15 15 15 15 15 15 15 16 16 16 17 16 16 16 16 16 16 16 15 15 15 15 16 15 15 15 15 15 15 16 16 16 16 16 16 16 16 16 16 15 15 14 13
16 16 16 16 16 16 16 17 17 18 18 17 17 17 17 17 17 17 16 17 17 16 16 16 17 17 17 17 17 18 18 18 18 18 17 17 18 18 17 17 17 16 15
17 17 16 17 17 17 17 18 18 18 18 18 18 17 18 18 18 18 18 18 18 18 18 18 18 18 18 19 19 20 20 19 19 19 18 19 20 19 19 19 19 18 17
18 18 17 17 17 17 17 18 18 19 19 18 19 19 19 19 20 20 19 19 19 19 19 19 19 20 20 20 20 20 21 21 21 21 20 21 21 20 20 20 20 20 19
18 18 18 18 18 17 18 19 19 20 20 20 20 20 20 21 21 21 21 21 21 21 21 21 21 21 21 21 22 22 22 22 22 22 22 23 23 23 23 22 22 21 21
19 19 19 18 18 18 19 20 21 22 22 21 21 21 21 22 22 22 22 23 23 23 23 23 23 22 22 22 22 22 23 23 23 23 23 24 25 24 24 23 23 23 22
19 20 19 19 19 20 20 21 22 23 23 22 22 22 23 23 23 24 24 24 24 24 24 25 24 24 24 24 23 23 23 24 24 24 24 23 24 24 23 24 24 23 23
21 21 21 20 20 21 21 22 22 23 23 23 23 24 25 25 25 25 26 26 26 26 26 26 26 25 26 25 24 24 25 25 25 26 25 25 25 26 25 25 25 24 24
21 21 21 20 20 21 22 23 23 23 24 25 26 26 27 27 27 27 27 28 28 28 28 28 27 26 26 26 26 26 26 26 26 26 27 26 25 25 26 25 25 25 25
20 20 20 20 21 22 23 24 24 25 26 26 27 28 28 29 29 29 29 29 29 30 29 29 29 28 27 26 27 27 27 27 27 26 25 26 25 26 26 26 26 25 25
21 20 20 21 22 24 24 25 26 26 27 28 29 29 31 31 30 31 30 30 30 30 30 30 30 29 28 28 28 29 28 28 28 27 26 26 25 25 26 27 27 26 26
21 21 21 22 24 25 26 26 27 27 29 30 30 31 31 31 31 31 31 30 31 31 31 31 31 31 30 30 30 29 29 28 28 29 28 28 27 27 26 27 27 27 26
22 22 23 24 25 26 27 28 28 29 30 31 31 31 31 32 32 31 31 31 31 31 31 31 31 31 31 30 30 30 29 29 29 29 29 28 27 27 27 27 27 27 27
23 23 24 26 26 27 28 28 29 30 31 31 32 32 32 32 32 32 32 31 31 31 31 31 30 31 31 31 31 31 31 31 30 29 28 28 28 27 27 27 27 27 27
23 24 26 27 27 28 29 30 30 30 31 32 32 32 31 31 31 32 31 31 31 30 30 30 30 31 31 31 31 31 31 31 31 30 29 29 28 28 28 28 28 28 27
24 25 26 27 27 29 30 29 30 31 31 31 31 30 30 31 30 30 30 30 30 30 30 30 29 30 30 30 30 30 30 30 30 30 29 29 29 27 27 28 28 27 27
24 25 26 27 28 28 28 28 29 31 31 30 30 30 30 29 29 29 29 30 31 31 30 30 28 28 28 28 28 29 29 29 28 28 28 27 27 26 26 26 26 26 26
24 25 26 27 27 27 27 28 29 30 30 29 29 29 29 29 29 29 29 30 30 30 29 29 28 28 28 28 27 27 27 28 28 27 27 27 27 27 26 26 26 26 25
24 25 26 26 26 26 27 27 28 28 28 28 29 29 30 30 30 30 30 30 29 28 28 28 27 27 27 27 26 25 25 25 26 26 26 27 26 26 25 24 25 25 25

GEFSSE_500_meanwind_174.txt.gz
Wind_Speed
6 6 6 7 7 8 9 10 10 10 11 12 13 13 14 14 14 14 14 14 13 13 12 12 11 11 11 11 11 11 11 11 10 10 9 9 8 8 7 7 6 6 5
7 7 8 8 9 10 10 11 11 11 12 12 13 14 15 15 15 15 15 15 14 14 13 13 13 13 12 12 13 13 13 12 12 11 10 10 9 9 9 8 7 7 6
9 9 9 9 10 10 11 12 12 12 12 13 14 15 15 16 16 16 16 16 15 15 15 14 14 14 14 14 14 14 14 13 13 12 11 11 10 10 9 9 8 7 7
10 10 10 11 11 12 12 13 13 13 14 14 15 16 16 16 17 16 16 16 16 16 16 16 15 15 15 15 15 15 15 14 14 13 13 12 12 11 10 10 9 8 8
11 11 11 12 13 13 14 14 14 14 15 16 16 17 17 17 17 17 17 17 17 17 17 17 16 16 16 16 16 16 16 15 15 14 14 14 14 13 12 12 11 10 9
12 12 13 14 14 14 15 15 15 15 16 17 17 17 17 17 18 18 18 18 18 18 17 17 17 17 17 17 17 17 16 16 15 15 15 16 15 15 14 14 13 13 11
14 14 15 15 15 15 15 15 15 16 17 18 18 18 18 18 18 18 18 18 18 18 18 17 17 17 18 18 18 18 18 18 17 17 17 17 17 17 16 16 15 14 14
15 15 16 16 16 16 16 16 16 17 18 19 19 19 19 18 18 19 19 19 19 19 18 18 18 18 18 19 19 19 19 19 19 19 19 18 18 18 18 18 17 17 16
16 16 17 17 17 17 17 17 18 18 19 19 19 19 19 19 18 19 19 20 20 20 19 19 19 19 19 20 20 20 20 20 20 20 20 20 20 19 18 19 19 19 18
16 17 17 17 17 18 18 18 18 18 18 19 19 19 19 19 19 19 19 20 20 20 20 20 19 20 21 21 21 21 21 21 21 21 20 20 21 21 20 20 20 20 19
17 17 18 18 18 18 18 18 18 18 18 18 19 19 19 20 20 20 21 21 21 21 21 20 20 20 21 22 22 22 22 22 22 22 21 21 21 21 21 21 22 20 19
17 18 19 18 18 17 18 18 18 18 18 18 19 20 21 22 22 22 22 22 22 22 22 22 22 22 22 23 23 23 24 24 24 23 23 23 22 22 22 22 22 22 21
17 18 17 17 17 17 18 18 18 19 19 19 20 21 21 22 22 22 23 23 23 24 24 24 23 23 23 24 24 25 25 26 25 24 24 24 23 23 23 23 23 23 23
18 18 17 17 18 18 19 18 19 19 19 20 21 21 21 21 22 23 24 25 25 25 25 25 25 25 24 25 25 25 26 27 27 26 26 25 25 24 24 24 23 23 23
17 17 17 17 18 18 19 19 19 20 20 20 21 21 22 23 23 24 24 25 26 26 27 27 26 26 26 25 26 26 26 26 27 27 27 27 26 26 25 25 24 24 24
19 18 19 19 18 18 19 19 19 20 21 22 23 23 24 25 25 25 25 26 27 28 29 28 28 28 28 27 28 27 26 27 27 27 28 28 28 27 26 25 24 25 25
19 19 18 18 18 18 19 20 21 22 23 23 24 25 25 26 26 26 27 27 28 29 29 29 29 29 28 28 28 28 27 28 28 28 28 28 27 27 26 25 25 25 25
19 18 18 18 18 19 20 20 22 23 23 24 25 26 26 27 27 27 28 28 29 30 30 30 30 29 29 28 28 28 28 28 28 28 27 27 27 27 27 27 26 25 25
19 19 18 19 19 20 21 21 22 24 24 25 25 26 26 27 28 28 28 29 30 30 30 30 30 30 29 29 29 29 28 28 28 28 28 27 27 27 27 27 27 26 25
20 20 20 20 20 20 21 22 23 24 25 26 26 26 27 28 29 28 28 28 28 28 28 29 30 30 30 29 29 29 29 29 29 29 29 29 27 26 26 27 27 27 26
21 21 19 19 20 21 21 22 24 25 26 27 27 27 27 28 29 28 28 28 29 29 28 28 28 29 30 30 29 30 30 30 29 29 29 29 28 27 27 27 27 27 27
18 18 18 18 19 21 22 23 24 25 27 28 28 28 27 27 28 28 28 30 30 29 28 29 29 29 29 30 29 29 29 28 29 28 28 28 28 29 28 27 27 26 26
18 18 19 19 20 21 22 23 25 26 27 27 28 27 27 28 28 29 29 30 30 29 29 29 29 29 29 29 29 29 29 28 28 28 27 27 27 28 28 26 26 26 26
19 21 20 20 20 21 22 24 25 25 26 27 28 29 29 29 28 29 30 30 28 28 28 28 28 28 27 27 27 27 27 27 26 27 27 27 27 28 27 26 26 26 26
19 20 20 20 20 21 23 24 25 25 26 27 28 28 28 27 28 28 29 28 28 27 27 27 26 26 26 25 26 26 26 25 25 26 27 27 27 28 28 27 26 26 26
20 20 20 20 21 22 22 23 24 25 25 26 26 26 26 27 27 27 26 26 26 25 25 25 25 24 24 24 24 24 25 25 25 25 25 26 26 27 27 27 26 26 27

GEFSSE_500_meanwind_180.txt.gz
Wind_Speed
7 9 10 10 10 10 10 10 11 11 11 12 12 12 13 14 14 15 15 15 15 15 15 15 15 15 14 14 14 13 13 13 13 13 12 11 11 11 10 9 9 8 8
8 9 10 10 11 11 11 11 12 12 12 12 13 13 14 14 15 15 16 16 16 16 16 16 16 16 15 15 15 14 14 14 14 14 13 12 12 12 11 10 9 9 9
8 9 10 11 11 12 12 12 12 13 13 13 14 14 15 15 16 16 17 17 17 17 17 17 17 16 16 16 15 15 15 15 15 14 14 13 13 12 11 11 10 10 10
9 10 11 11 12 12 12 12 13 13 14 14 15 15 16 16 17 17 18 18 18 18 18 18 18 17 17 17 16 16 15 15 16 15 14 14 14 13 12 12 11 11 11
10 11 12 12 12 12 13 13 13 14 15 15 15 16 16 17 17 18 19 19 19 19 19 19 19 18 18 18 17 17 16 16 16 16 15 15 15 15 14 13 13 13 12
11 12 13 13 13 13 14 14 14 15 16 16 16 16 17 17 18 19 20 20 20 20 20 20 19 19 19 19 18 18 17 17 17 17 17 16 16 16 15 14 14 14 14
13 13 13 14 14 14 14 15 15 16 16 17 17 17 17 18 18 19 20 20 20 20 21 21 20 20 20 19 19 19 19 18 18 18 18 18 17 17 16 16 15 15 16
14 14 14 14 14 14 15 15 16 16 17 17 17 17 18 19 19 19 20 20 21 21 21 21 21 21 21 20 20 20 20 20 20 19 19 19 19 18 18 18 17 17 17
14 15 15 14 14 15 16 17 17 17 17 18 18 18 19 19 20 20 20 21 21 21 21 22 22 22 21 21 21 21 21 21 21 20 20 20 20 20 19 19 19 18 18
15 16 16 16 16 16 17 17 17 17 17 18 18 19 20 20 21 20 21 22 22 22 22 22 23 23 22 22 22 22 22 22 22 22 22 21 21 21 20 20 20 19 19
15 16 16 17 17 17 17 17 17 17 18 18 19 20 21 21 21 21 22 22 23 24 24 24 24 24 24 24 24 24 24 24 24 24 23 23 22 21 21 21 21 21 20
17 17 18 18 18 18 17 17 18 18 19 19 20 21 22 22 23 23 23 23 24 24 25 25 26 26 26 26 26 26 26 26 26 25 25 24 24 23 23 23 23 22 22
18 18 17 17 18 18 18 18 19 19 20 20 20 21 22 23 24 24 24 25 25 26 26 26 27 27 27 27 28 28 28 27 27 27 26 26 25 25 24 24 23 23 23
18 18 18 18 19 20 19 19 20 20 20 21 22 22 23 23 24 25 25 26 26 27 27 27 27 28 29 29 29 28 28 28 28 27 27 27 27 27 26 26 25 25 24
18 19 20 20 21 21 20 20 21 22 21 21 22 22 23 24 25 25 26 27 27 28 28 29 29 30 30 30 31 31 30 30 29 29 29 29 29 29 28 27 27 26 26
19 19 20 21 21 22 23 22 23 22 21 20 21 23 24 24 25 26 27 27 28 28 29 29 29 30 30 30 31 32 32 31 31 31 31 31 31 30 29 29 28 28 27
20 20 21 22 22 22 22 22 22 21 20 21 21 22 23 24 25 26 27 27 28 28 28 29 30 30 29 30 30 31 32 32 33 32 31 31 31 31 30 30 29 28 28
21 22 21 21 21 21 21 22 20 20 20 21 22 22 23 24 25 26 27 28 28 28 28 29 29 30 30 29 30 30 31 31 32 33 32 32 31 31 31 30 30 29 29
21 21 22 20 20 19 20 21 20 21 21 22 22 23 23 24 25 27 27 27 28 28 28 29 29 30 30 30 30 31 31 32 32 32 31 32 32 31 31 30 30 30 29
22 21 22 21 20 20 21 22 22 21 21 22 23 23 23 25 26 27 27 27 28 29 29 29 30 31 31 30 31 32 32 32 33 33 32 32 32 32 32 31 31 30 29
20 20 20 19 19 20 22 22 22 21 22 22 23 23 24 25 26 27 27 27 28 29 28 29 30 30 30 30 30 31 31 31 31 31 31 32 32 32 33 32 31 31 30
19 19 19 19 20 20 21 22 21 21 22 22 23 24 24 25 26 27 28 29 29 28 29 28 29 29 29 30 30 30 30 29 30 30 31 31 31 33 33 32 32 31 30
20 20 20 20 21 21 21 20 20 21 22 23 23 24 24 25 26 27 28 29 29 29 28 28 28 28 29 30 30 29 28 28 28 29 30 31 31 32 32 33 32 31 31
20 21 21 21 21 21 21 20 20 21 21 23 23 24 24 25 26 27 28 29 30 29 27 27 27 28 29 28 28 27 27 26 26 26 28 29 30 31 31 31 31 31 32
21 22 22 21 21 22 22 21 21 21 22 23 23 23 23 24 25 26 28 28 27 26 26 26 27 28 28 27 26 26 25 25 25 25 25 26 28 30 31 30 30 31 31
22 22 22 22 22 22 22 21 21 22 22 23 22 22 23 24 25 26 27 27 27 26 25 25 26 26 26 26 25 24 24 24 24 24 25 26 26 28 29 29 29 30 31

GEFSSE_500_meanwind_186.txt.gz
Wind_Speed
2 3 3 4 4 5 6 6 7 8 9 9 9 9 9 9 9 9 10 10 10 10 10 10 10 10 10 9 10 10 10 10 10 10 10 10 10 10 10 10 10 10 10
4 4 5 5 5 6 6 7 8 9 9 9 9 9 9 10 10 10 10 10 10 11 11 11 11 11 11 11 11 11 11 11 11 11 11 11 11 11 10 10 11 11 11
6 6 6 6 6 6 7 8 9 9 10 10 10 10 10 11 11 10 11 11 11 12 12 12 12 12 12 12 12 12 12 12 12 12 12 12 11 11 11 11 11 11 11
7 8 8 7 7 7 8 9 9 10 11 11 11 11 11 11 11 12 12 12 13 13 13 13 13 13 13 13 13 13 13 13 13 13 13 12 12 11 12 12 12 12 12
9 9 9 9 9 9 9 10 10 11 11 12 12 12 12 12 13 13 13 13 14 14 14 14 14 14 14 14 14 14 14 14 14 14 14 14 13 12 12 13 13 13 13
10 10 10 10 10 11 11 11 11 12 12 13 13 13 13 13 13 14 14 14 15 15 15 16 16 16 15 15 15 15 15 16 16 16 16 15 15 14 14 14 14 14 14
11 12 12 12 12 12 12 12 12 13 14 14 14 14 14 15 15 15 15 16 16 16 17 17 17 17 16 16 16 16 16 17 17 17 17 17 16 16 15 15 16 16 16
13 13 13 13 13 13 13 13 14 15 15 16 16 16 16 16 16 16 17 17 18 18 18 18 18 18 18 18 17 17 17 17 18 18 18 18 17 17 17 16 17 17 17
13 13 14 14 14 14 14 14 15 16 16 17 17 17 17 17 18 18 18 19 19 20 20 20 20 19 20 20 19 19 19 19 19 19 19 19 19 19 18 18 18 19 18
13 14 14 14 15 15 15 16 16 17 17 17 18 18 18 19 19 19 20 20 21 21 21 21 21 21 21 21 21 21 21 20 20 21 21 21 21 20 19 19 19 20 20
14 15 15 15 15 15 16 17 17 18 18 18 19 19 19 19 20 20 20 21 22 22 22 22 22 22 22 22 23 23 23 23 23 23 23 22 22 22 21 21 21 21 21
16 16 16 16 16 16 16 17 18 18 18 19 20 20 20 21 21 21 22 22 22 23 22 22 23 23 24 24 24 24 25 25 25 25 25 25 24 24 23 22 22 22 23
17 17 17 17 17 16 17 18 18 18 19 20 20 21 21 23 23 23 23 23 23 24 24 24 24 24 25 25 26 27 27 27 27 26 26 26 26 25 25 24 24 24 24
17 17 18 18 18 19 19 19 19 20 20 21 21 22 23 23 24 24 24 23 24 25 25 25 26 25 26 27 27 27 27 27 28 28 28 27 27 27 26 26 26 26 25
18 18 19 19 20 20 20 20 21 21 22 22 22 23 23 24 24 24 24 24 25 26 26 26 26 26 26 27 27 27 27 27 28 29 29 29 29 28 28 28 28 28 27
19 19 20 21 22 22 22 21 22 23 22 22 23 24 24 24 24 25 25 25 25 26 26 26 26 26 26 26 27 27 27 27 28 29 29 30 30 30 30 30 29 29 29
20 20 21 22 23 23 23 22 22 23 23 24 24 24 24 24 25 25 26 26 26 27 27 26 26 26 26 26 26 27 28 28 28 29 30 30 31 32 31 31 31 30 30
20 21 22 23 23 24 23 22 23 23 23 24 24 24 24 25 26 26 26 26 26 27 27 26 26 27 27 27 28 28 29 29 29 30 30 31 31 32 33 32 32 31 31
20 22 22 23 24 24 23 22 23 23 24 24 24 23 24 25 26 26 26 26 26 27 27 26 27 27 28 28 29 29 29 29 29 29 30 31 32 32 33 33 33 32 32
20 21 23 23 23 24 23 23 24 24 25 25 24 24 25 25 26 26 26 26 26 27 26 27 28 28 28 28 28 29 29 29 29 29 30 30 31 32 33 34 34 33 33
21 22 23 23 24 24 24 24 24 25 24 25 25 24 25 26 26 26 27 27 26 26 27 27 28 29 29 28 28 28 29 29 29 30 30 31 31 31 32 33 34 34 34
22 23 23 23 24 24 25 24 24 24 25 27 26 25 25 25 26 26 26 26 26 26 27 28 28 29 29 28 28 29 30 30 30 31 31 31 32 32 32 33 34 34 35
22 23 24 24 24 24 25 24 25 26 26 25 26 25 26 25 25 25 25 26 26 26 27 28 28 29 29 28 29 30 30 30 30 31 31 30 31 31 31 32 33 34 34
23 23 24 24 24 24 25 26 26 27 27 27 27 26 26 26 26 25 25 26 26 26 27 28 28 28 27 28 28 28 28 29 30 30 29 29 28 28 29 30 32 33 34
22 23 24 24 25 25 25 26 27 27 27 28 27 26 26 26 25 25 25 25 25 26 27 27 27 26 26 26 26 26 27 27 27 27 26 27 27 27 27 28 30 32 32
22 23 24 25 25 26 26 26 27 27 27 27 27 26 26 26 25 25 26 25 25 26 26 26 26 25 25 25 25 25 26 26 26 26 25 25 26 26 26 27 28 30 32

GEFSSE_500_meanwind_192.txt.gz
Wind_Speed
7 7 7 7 8 7 7 7 8 8 9 9 9 9 10 10 10 10 10 10 9 9 9 9 9 9 9 10 10 10 10 10 10 10 10 10 11 11 11 11 11 11 11
8 7 8 9 9 9 9 9 9 9 10 10 10 10 11 11 11 11 11 11 11 10 10 10 10 10 10 11 11 11 11 12 12 12 12 12 12 12 12 12 12 12 11
9 9 10 10 11 11 11 11 11 11 12 11 11 11 12 12 12 12 12 12 12 12 12 11 12 12 12 12 12 13 13 13 13 13 13 13 13 14 13 13 13 13 12
10 11 12 12 12 12 13 12 13 13 13 13 13 13 13 14 13 13 13 13 13 13 13 13 13 13 13 13 13 14 14 14 14 14 13 13 13 14 14 14 14 14 13
12 12 13 13 13 13 14 14 14 14 14 14 14 14 14 15 15 15 14 14 14 14 14 14 14 14 14 14 14 14 15 15 15 15 15 14 14 15 15 16 15 15 14
13 13 14 14 14 15 15 15 15 15 15 15 15 15 16 16 16 16 16 15 15 15 15 16 16 16 15 15 16 16 16 16 16 16 16 16 15 16 16 16 17 16 16
14 15 15 15 15 16 15 15 16 16 16 16 16 17 17 17 17 17 17 17 17 17 16 17 17 17 17 17 17 17 17 17 17 18 18 17 17 17 17 17 18 17 17
14 15 17 17 16 16 16 16 17 17 17 17 17 17 17 18 18 18 18 18 18 18 18 18 18 18 18 18 18 18 18 19 19 19 19 19 19 19 19 19 18 17 18
15 15 16 16 17 16 16 17 18 17 17 17 17 18 18 18 18 19 19 19 19 19 19 19 18 19 19 19 19 19 19 20 20 20 20 20 20 20 21 20 20 19 19
16 15 16 15 17 17 17 18 18 18 17 18 18 19 19 19 19 19 19 20 20 20 20 20 20 20 20 20 20 20 20 20 21 21 21 22 21 21 22 21 21 21 21
18 17 17 17 17 17 18 18 19 18 19 19 19 20 20 20 20 20 20 21 21 21 21 21 21 21 21 21 21 21 22 22 22 23 23 23 23 23 23 23 22 22 22
19 18 18 18 18 19 19 19 19 20 21 21 21 21 21 21 21 22 22 22 22 22 22 23 23 23 23 23 23 23 23 24 24 24 24 24 24 24 24 25 24 24 23
19 19 19 19 19 20 20 20 21 21 21 21 21 22 22 22 23 23 23 22 23 23 23 23 23 24 24 24 23 23 24 24 24 25 24 24 24 24 25 25 26 25 25
20 21 21 20 21 21 21 22 22 21 21 21 22 22 22 23 23 23 23 23 24 24 24 24 25 25 25 24 23 23 24 24 24 24 24 24 24 25 25 26 26 26 26
21 21 21 21 22 22 22 22 22 22 22 22 22 23 23 24 24 24 24 25 25 25 25 25 25 25 24 23 24 24 24 25 25 25 25 25 25 25 26 26 27 28 28
22 21 21 22 21 22 22 22 23 23 23 23 23 24 24 25 25 25 25 25 26 26 26 25 25 25 24 25 25 25 26 26 25 26 26 26 26 27 27 27 27 28 29
22 21 22 22 22 22 22 23 23 23 24 25 24 25 25 26 26 26 26 25 26 26 26 26 26 26 26 26 27 27 27 26 26 27 27 27 27 27 27 28 28 28 30
22 22 22 22 22 22 23 24 24 24 25 25 26 26 27 26 26 27 26 26 27 27 26 27 27 28 27 28 27 27 27 27 27 27 27 27 27 27 27 27 28 29 30
22 22 21 22 22 23 23 24 25 26 26 27 28 27 28 27 28 29 27 27 27 27 27 27 28 28 28 28 28 28 28 28 28 28 28 28 28 27 27 27 28 29 30
22 21 21 22 22 23 23 24 26 27 27 28 28 27 28 28 29 29 28 27 28 27 27 28 29 30 30 30 30 30 30 29 29 29 28 28 28 28 28 29 29 30 30
20 20 21 22 23 24 25 25 27 27 28 29 28 28 29 29 29 29 28 28 28 28 27 28 30 30 31 31 30 30 30 30 29 29 29 28 28 28 29 29 30 31 31
21 22 22 23 24 25 26 27 28 28 29 29 30 29 30 30 30 29 29 28 28 28 28 29 30 31 31 30 30 29 29 29 29 29 28 28 27 28 29 29 30 31 31
22 22 24 24 25 26 27 28 29 29 30 30 30 31 31 31 30 30 29 29 28 29 30 30 31 31 30 30 30 30 29 28 27 26 27 27 28 28 28 29 30 30 31
23 23 24 26 26 27 28 29 30 31 31 30 30 31 31 30 30 30 30 29 30 30 30 31 31 30 29 28 29 28 28 28 27 26 27 28 29 28 29 29 29 29 30
23 23 25 26 27 28 29 30 31 31 31 30 30 30 30 30 29 30 30 30 31 30 29 30 30 29 29 28 28 27 28 27 27 27 27 28 28 28 28 28 28 28 29
23 24 25 26 27 28 29 29 30 30 30 29 28 29 28 28 29 30 31 30 30 29 30 30 29 29 28 28 28 28 27 26 27 27 27 28 28 28 28 27 28 29 28

GEFSSE_500_meanwind_198.txt.gz
Wind_Speed
5 5 5 5 6 6 7 8 8 9 9 10 11 11 12 13 13 13 13 13 13 13 13 13 13 13 12 12 12 12 12 12 12 12 13 13 13 12 12 13 12 12 12
6 6 6 7 7 8 8 9 10 10 10 11 11 12 13 14 14 14 14 14 14 14 14 14 14 14 13 13 13 13 13 13 13 13 13 13 13 13 13 13 13 13 13
8 8 8 8 8 9 9 10 10 11 11 12 12 13 13 14 15 15 14 15 15 15 16 15 15 15 15 14 14 14 14 14 14 14 13 13 14 14 14 14 14 13 13
10 10 10 10 9 10 10 10 11 12 12 13 13 14 14 15 15 15 15 15 16 16 16 16 16 16 16 16 16 15 15 15 14 14 14 14 14 14 14 14 15 15 14
10 10 11 11 11 11 11 12 12 13 13 14 14 15 15 15 16 16 16 16 16 16 16 16 16 16 16 17 16 16 16 15 15 15 15 15 16 16 15 15 15 16 16
11 12 12 13 13 13 13 13 13 14 14 15 15 15 16 16 17 17 17 17 17 17 17 17 17 17 17 17 17 17 17 16 16 16 16 16 16 17 16 16 16 16 17
12 13 14 13 13 13 14 14 14 14 14 15 16 16 17 17 17 18 18 17 17 17 17 17 17 17 17 17 17 18 18 17 17 17 17 17 17 17 18 18 18 17 17
12 13 14 13 14 14 14 14 14 14 15 15 16 17 17 17 18 17 18 17 17 17 17 17 18 18 18 18 18 18 18 18 18 18 17 17 17 18 19 19 19 19 19
14 15 14 13 14 14 14 14 15 15 16 16 17 17 17 17 17 17 17 17 17 17 18 18 19 19 18 18 18 18 18 19 19 18 18 18 19 20 20 20 20 20 20
14 15 14 14 15 15 15 15 15 16 16 17 18 18 17 18 18 18 18 18 19 19 19 19 19 19 19 19 19 19 19 19 19 19 19 20 20 21 21 21 21 21 21
15 15 16 16 16 16 16 16 17 17 17 18 19 19 18 18 18 19 19 19 20 20 20 20 19 19 20 20 20 20 20 20 21 21 21 21 21 21 22 22 22 22 22
16 16 17 16 16 16 16 17 18 18 18 18 19 19 19 18 19 19 19 20 21 21 20 20 20 20 20 20 20 21 21 21 21 21 21 22 22 23 23 23 23 23 23
18 17 16 16 17 18 18 18 18 19 19 19 19 19 19 19 19 20 20 21 21 21 21 21 21 21 21 21 22 21 22 22 22 22 22 22 23 23 24 23 23 23 24
19 18 17 18 18 19 20 19 19 20 20 19 19 20 19 19 19 20 20 21 20 20 20 21 21 21 21 22 23 23 23 23 23 22 22 23 23 23 24 24 24 24 24
20 19 18 17 18 20 20 19 20 20 19 18 19 19 19 19 20 20 21 21 22 21 21 20 20 20 21 21 22 23 23 23 23 23 23 24 23 23 23 24 25 26 26
21 20 18 18 19 21 21 20 20 20 20 20 19 19 20 21 21 22 22 22 22 22 22 22 21 21 21 22 22 22 22 22 23 24 24 23 24 23 23 23 25 26 27
21 20 19 20 21 21 20 21 21 21 21 21 21 21 22 23 23 23 23 24 23 23 22 22 22 23 23 22 22 22 23 23 23 23 24 24 24 24 24 24 25 26 27
22 21 21 22 22 22 22 22 22 22 22 22 23 23 24 25 24 25 24 24 24 24 23 24 23 24 24 23 23 24 24 24 24 24 24 24 24 25 25 25 26 27 28
22 23 22 22 22 22 22 22 22 22 23 23 24 24 25 25 25 24 24 24 24 24 25 25 24 25 24 24 24 24 24 24 24 24 24 24 24 25 26 27 27 28 28
21 22 22 22 22 22 23 23 23 23 24 24 26 26 26 26 24 24 25 25 25 25 25 25 25 25 25 25 24 25 25 25 25 25 25 25 26 26 27 27 28 29 29
19 20 21 22 22 22 22 23 23 23 24 25 27 27 27 26 25 25 26 26 25 25 26 26 25 25 26 25 25 25 24 25 25 25 25 26 26 26 27 28 28 28 29
19 18 21 22 22 22 23 23 23 25 25 26 28 29 27 26 27 27 27 27 26 26 26 27 26 26 26 25 26 25 25 26 26 26 27 27 27 27 27 27 28 28 28
20 21 20 21 22 22 23 24 25 25 26 28 28 28 29 28 28 28 27 27 27 27 26 26 25 25 26 26 25 26 26 25 25 26 26 26 26 26 26 27 27 27 27
20 20 21 21 22 23 24 24 25 26 27 28 28 27 28 29 28 27 27 27 27 27 27 27 27 26 27 27 27 27 26 25 25 25 26 26 25 26 25 26 27 28 28
19 20 21 21 21 23 25 26 26 27 27 27 27 27 27 27 27 27 27 27 28 28 28 28 28 28 28 27 27 27 27 27 26 26 25 25 26 26 25 26 26 27 28
18 20 20 20 22 24 25 25 26 27 27 27 27 27 26 27 27 27 27 27 27 27 27 27 28 28 28 28 28 27 27 27 27 26 26 26 26 26 26 27 27 27 27

GEFSSE_500_meanwind_204.txt.gz
Wind_Speed
3 4 5 5 6 7 7 7 7 8 8 9 9 9 10 10 11 11 12 12 13 13 14 13 14 14 14 14 13 13 12 12 12 12 12 12 12 11 11 11 12 12 12
4 5 6 7 8 8 8 7 8 8 9 9 10 10 11 11 12 13 13 13 14 14 14 14 14 15 15 15 14 14 13 13 12 13 13 12 12 12 12 12 13 13 13
6 7 8 8 8 9 8 9 9 9 10 10 11 12 12 12 13 14 14 14 15 15 15 15 15 15 15 15 15 14 14 14 13 13 13 13 13 13 13 13 14 14 14
7 8 8 9 9 9 9 9 10 10 11 12 12 13 13 14 14 14 15 15 16 16 16 16 16 15 15 15 15 15 14 14 14 14 15 15 14 14 14 14 15 15 15
9 9 10 10 10 10 10 10 11 11 12 13 14 14 14 14 15 15 15 16 17 18 17 17 16 16 16 15 15 15 15 15 15 15 15 15 15 15 15 15 15 15 16
11 11 11 11 11 11 11 11 12 12 13 14 15 14 15 15 15 16 17 17 18 18 17 17 17 16 17 17 16 16 16 16 16 16 16 16 16 16 15 15 16 16 16
11 12 12 12 12 12 13 13 13 14 14 15 15 15 15 16 16 17 18 18 18 18 18 18 17 18 18 18 17 17 17 17 17 17 17 17 17 17 16 16 16 17 17
12 12 13 13 13 13 13 13 14 15 15 15 15 16 16 17 18 18 18 19 19 19 19 18 18 19 19 19 19 18 18 18 18 18 18 18 18 18 18 18 18 18 17
12 12 13 13 13 13 13 13 14 14 15 16 16 16 17 18 18 19 19 20 20 19 19 19 19 20 21 21 20 20 20 19 19 19 20 20 19 19 20 19 19 18 18
13 13 14 13 13 13 13 14 14 14 15 16 16 17 17 18 19 19 20 20 20 20 20 20 20 21 22 22 21 21 20 20 20 20 20 20 21 21 21 20 20 20 20
13 14 15 14 14 14 15 15 15 16 16 17 17 17 18 19 19 20 20 21 20 21 21 21 21 22 23 23 22 22 22 22 21 21 21 21 21 21 21 22 21 22 22
14 15 16 15 15 15 16 16 16 17 18 18 19 19 19 19 19 20 20 20 21 21 21 22 22 22 23 23 23 23 23 22 22 22 21 21 22 22 23 23 23 23 23
16 17 17 17 17 17 17 17 18 19 19 19 20 20 21 20 20 20 20 21 21 22 22 22 23 23 23 23 23 23 23 23 22 23 23 23 23 24 24 25 24 24 24
18 18 18 17 17 17 17 18 19 20 21 22 22 22 22 22 22 22 21 21 22 22 23 24 23 24 24 23 22 22 22 22 23 23 24 24 24 24 25 25 25 25 25
18 18 19 18 18 18 18 19 19 20 22 22 23 22 22 23 22 23 23 23 23 24 24 24 25 24 24 24 23 23 23 24 24 24 24 24 25 25 25 25 25 26 26
19 19 19 18 18 19 19 20 21 22 23 25 25 25 24 23 23 23 23 24 25 25 25 25 25 25 25 25 25 25 25 25 25 25 25 25 25 25 25 25 25 26 26
20 20 20 19 19 20 20 21 22 23 24 24 25 26 25 24 24 24 24 25 26 26 26 26 26 25 26 26 26 26 26 26 26 26 26 26 26 25 25 24 24 25 26
21 21 21 21 21 21 22 22 23 24 24 25 25 26 26 26 27 26 25 26 27 26 26 25 25 25 25 25 26 27 27 27 27 26 26 26 26 26 25 25 25 26 26
22 22 22 22 23 23 23 23 23 24 25 25 25 25 26 27 27 27 27 27 28 27 26 26 25 26 26 27 27 28 28 28 28 27 26 26 26 27 26 26 27 27 27
24 24 23 23 23 23 24 24 24 25 26 26 27 27 27 27 28 28 28 28 28 27 27 28 28 28 28 28 28 28 28 28 27 27 27 27 26 27 27 27 28 28 27
23 23 23 23 23 23 24 24 24 25 26 27 27 27 28 28 29 29 29 29 29 29 30 30 30 30 29 28 28 28 29 29 28 28 28 27 27 28 28 28 29 29 29
22 22 23 23 24 23 23 23 24 25 25 26 27 29 30 30 30 30 30 30 30 31 31 30 30 31 30 30 29 29 29 29 30 29 29 29 28 29 29 29 29 30 30
20 21 22 23 23 23 23 23 24 24 24 25 27 29 30 30 30 30 30 30 30 30 30 30 30 31 30 30 30 29 29 29 30 30 30 30 30 30 30 30 31 31 31
20 21 20 20 21 21 22 23 24 25 26 27 28 29 30 30 30 29 29 30 30 30 30 29 29 29 30 30 30 30 29 29 30 30 30 32 32 32 32 32 32 31 31
19 19 19 20 21 21 22 24 25 25 26 27 28 29 30 29 29 28 29 29 29 29 28 28 28 29 29 30 30 29 29 29 30 30 30 31 32 32 33 32 32 32 32
17 18 19 20 20 21 22 23 24 25 26 27 27 28 28 27 28 28 28 28 28 28 28 28 28 29 29 29 29 29 29 30 30 30 30 29 30 31 32 32 32 32 32

GEFSSE_500_meanwind_210.txt.gz
Wind_Speed
5 5 5 5 5 5 5 5 5 5 5 5 5 5 5 5 5 6 6 6 6 7 7 7 7 8 8 8 8 8 8 8 8 8 9 9 10 10 10 10 11 12 12
7 6 6 6 6 5 5 5 5 6 6 6 6 6 6 6 6 6 7 7 7 8 8 8 8 8 9 9 9 9 9 9 9 9 10 10 11 11 11 12 12 12 13
8 7 6 7 7 6 6 6 6 6 7 7 7 7 7 7 7 8 8 8 9 9 9 9 10 10 10 10 10 10 10 10 10 10 11 11 11 12 12 13 13 13 13
9 8 7 7 6 7 7 7 7 8 8 8 8 8 8 8 8 9 9 9 10 10 11 11 12 11 11 11 11 11 11 11 11 12 12 12 12 13 13 14 14 14 14
10 9 8 8 8 8 9 9 9 9 9 9 9 9 10 9 10 10 10 10 11 11 12 12 12 13 13 13 12 12 12 12 12 13 13 14 14 14 14 14 15 15 15
11 11 10 9 9 9 9 10 10 11 10 10 10 11 11 10 11 11 12 12 12 12 13 13 13 14 14 14 13 13 13 14 14 14 14 15 15 15 15 15 16 16 16
12 11 10 9 10 10 10 11 12 12 12 12 12 12 12 12 12 12 13 13 13 14 14 14 14 14 15 15 14 14 15 15 15 15 16 16 16 16 17 17 17 17 17
12 12 11 11 11 11 11 12 12 13 13 13 13 14 13 13 13 14 14 14 14 15 15 16 16 16 15 16 16 16 16 17 16 16 16 16 16 17 17 18 18 18 18
13 13 12 12 12 12 13 13 13 13 14 14 15 15 14 14 14 15 16 15 16 16 16 17 17 17 17 17 17 17 17 17 17 17 17 17 17 18 18 19 18 18 19
14 14 14 14 12 13 14 14 14 14 14 15 15 15 15 15 16 16 16 17 18 18 18 18 18 18 18 18 17 17 18 18 19 18 19 19 18 18 19 19 19 19 20
13 14 14 13 13 14 15 15 15 15 15 15 15 16 16 16 17 17 17 19 19 19 19 19 19 19 19 18 18 19 19 19 19 19 20 19 19 19 19 20 20 20 21
14 14 14 15 15 15 15 15 16 16 16 16 17 17 17 17 18 19 19 19 20 20 20 20 20 20 19 19 19 19 20 20 19 19 20 20 20 20 20 20 21 21 22
15 15 15 15 16 16 17 17 17 17 18 18 18 18 18 19 20 21 21 21 21 22 22 22 21 21 20 20 20 20 20 20 20 20 20 20 21 21 22 21 21 22 23
17 16 16 17 17 18 18 19 19 19 19 20 20 20 20 20 21 22 23 23 22 23 23 22 22 22 22 22 21 21 21 22 21 22 22 22 22 23 23 23 23 22 23
18 18 18 18 18 19 19 20 20 20 21 21 21 21 22 22 22 23 23 23 23 23 23 23 23 23 23 23 23 23 22 23 23 23 23 23 24 24 24 24 24 24 24
20 20 20 19 19 20 21 22 23 22 22 23 22 22 23 23 24 24 24 23 24 24 24 24 24 25 25 25 25 25 24 24 24 24 24 24 25 25 25 25 25 25 26
21 21 21 21 21 22 23 24 24 24 25 24 24 24 24 24 25 25 25 25 25 25 25 26 26 26 25 26 26 26 26 25 25 25 25 25 26 26 26 26 26 26 26
23 23 23 22 23 23 24 25 25 25 26 26 25 25 25 25 27 27 27 27 27 26 26 27 27 27 27 26 26 27 27 26 26 26 27 26 26 27 27 27 27 28 27
23 24 23 23 23 23 24 24 24 25 26 26 26 26 26 26 27 28 28 27 27 27 27 27 27 27 26 26 27 27 27 28 28 28 28 28 28 28 28 28 29 29 29
23 22 23 23 23 23 23 23 23 25 26 26 25 26 27 27 27 28 27 27 27 27 27 27 27 27 28 28 28 28 28 29 29 29 29 29 30 30 30 30 29 29 29
22 22 23 22 23 23 23 24 24 25 25 26 26 26 27 27 28 28 28 28 28 28 27 27 27 28 28 29 30 30 30 30 31 31 31 31 31 31 31 31 30 30 30
22 22 21 22 22 22 22 23 23 24 25 26 26 26 27 27 28 28 28 28 28 27 27 27 28 28 28 29 30 31 31 31 31 32 32 32 32 32 31 31 31 31 31
20 21 22 22 22 22 22 22 22 23 24 25 26 26 26 27 27 27 26 26 26 26 26 27 28 29 30 30 31 32 32 31 32 32 32 32 33 32 32 32 32 32 32
18 19 20 20 21 21 22 22 22 23 24 24 25 25 25 25 26 26 26 26 26 26 27 27 29 30 30 30 30 30 31 31 31 31 31 32 32 33 33 33 33 33 33
18 18 19 20 20 20 20 21 22 23 24 24 25 25 26 25 25 26 26 27 27 27 28 29 29 29 29 29 29 30 30 31 31 31 30 31 32 33 34 33 33 33 34
17 17 18 18 19 19 20 21 22 23 24 24 24 26 26 26 26 26 26 27 27 27 28 28 28 28 28 29 29 30 31 31 32 32 32 31 32 33 34 34 34 34 34

GEFSSE_500_meanwind_216.txt.gz
Wind_Speed
9 9 9 9 9 9 9 9 8 8 8 8 7 7 7 8 7 7 7 6 7 7 7 7 8 8 8 8 8 8 8 9 9 9 10 10 10 11 11 11 11 11 11
10 11 10 10 11 10 10 10 9 8 8 8 8 8 8 9 8 8 8 7 8 8 8 9 9 9 9 9 9 9 10 10 10 10 11 11 11 12 12 12 12 12 12
12 11 11 11 11 11 11 10 10 9 9 9 9 9 9 9 9 9 9 9 9 10 9 10 10 10 10 10 10 10 10 11 11 11 12 12 12 13 13 13 13 13 13
12 12 12 12 12 11 11 11 10 10 10 10 10 10 11 11 11 11 11 11 11 11 11 11 11 11 11 11 11 11 12 12 12 13 13 13 13 13 13 14 14 14 14
13 13 13 13 12 12 11 11 11 11 11 12 12 12 12 12 12 12 12 12 12 12 12 13 13 13 13 13 13 13 13 13 13 13 13 13 13 14 14 14 15 15 15
15 14 14 14 14 13 12 12 12 12 12 12 12 13 13 13 13 13 13 13 13 14 14 14 13 14 14 15 15 14 15 15 14 14 14 14 14 14 15 15 16 16 16
16 16 15 15 15 14 13 13 13 12 12 13 14 14 14 14 14 14 15 15 15 15 15 15 15 15 15 16 16 16 16 16 15 15 15 15 14 15 16 16 16 17 17
16 16 16 16 15 14 14 13 12 13 13 14 15 15 15 16 16 16 16 16 16 16 15 15 15 15 16 16 17 17 17 17 17 16 16 16 15 16 16 17 17 17 18
18 17 17 16 14 14 13 13 13 14 15 15 15 16 17 17 17 17 17 17 17 16 16 16 16 16 16 17 17 18 18 18 18 17 16 16 16 17 18 18 18 18 18
17 17 17 15 14 14 15 14 15 16 16 16 16 16 17 17 17 17 17 18 17 18 17 17 17 17 17 18 18 18 19 19 18 18 17 17 17 18 18 18 18 19 19
17 16 17 17 16 16 16 16 16 16 17 17 18 17 17 17 17 17 18 18 18 18 18 18 18 18 18 18 19 19 19 19 19 19 18 18 18 19 19 19 19 19 20
18 18 17 18 17 17 17 17 17 17 18 19 19 19 18 18 18 19 19 19 19 19 19 20 20 20 20 20 20 20 20 20 20 20 20 19 20 20 20 20 20 20 21
18 18 18 18 18 18 18 18 19 19 20 20 20 20 20 20 19 20 20 20 20 21 21 21 21 21 21 21 21 20 21 21 21 21 20 20 21 21 21 21 21 21 21
19 19 19 19 19 20 21 21 20 20 20 21 21 21 22 22 21 22 22 21 22 22 22 22 22 22 22 22 21 21 21 22 22 21 21 21 21 21 21 22 22 22 22
20 20 20 21 21 21 22 22 21 21 22 23 23 23 24 24 23 24 24 23 23 23 23 23 23 23 23 22 22 22 22 22 22 23 23 22 23 22 22 23 23 23 24
21 21 21 21 21 21 22 23 21 22 23 24 24 24 24 25 25 25 25 24 25 25 24 24 24 24 24 23 23 23 22 23 23 23 24 24 24 24 23 24 24 24 25
21 22 22 22 22 21 22 23 23 23 24 25 25 25 25 25 25 25 26 26 25 25 25 25 25 25 25 25 24 24 24 24 25 25 25 25 25 25 25 26 26 26 26
22 23 23 23 23 23 24 24 24 25 25 25 25 25 25 25 25 26 25 26 26 26 26 26 26 25 26 25 25 25 25 26 26 27 27 25 25 25 26 27 27 27 27
23 23 23 23 23 24 24 24 24 26 26 26 26 26 26 25 25 25 25 25 26 26 26 27 27 27 26 26 25 25 26 27 27 27 27 27 27 27 27 28 28 29 29
21 22 22 23 23 23 24 25 25 25 25 26 26 25 26 26 25 25 25 25 25 26 26 26 26 27 26 26 25 25 26 27 28 28 28 28 28 28 28 28 29 30 31
20 20 20 21 21 22 23 24 23 23 24 25 25 25 25 25 25 25 25 25 25 26 26 26 26 26 26 26 26 26 26 27 28 28 28 28 28 29 30 29 29 30 31
20 20 20 20 21 22 22 23 23 23 23 23 24 23 23 24 23 24 25 25 25 25 25 26 26 26 26 26 27 27 26 26 26 27 28 28 29 30 30 30 30 30 31
19 20 19 20 21 22 22 22 23 24 23 22 23 24 23 24 23 24 24 24 24 25 25 26 25 25 26 26 27 28 28 27 26 27 28 28 29 29 30 30 31 31 32
19 19 19 19 19 20 21 21 21 22 22 22 23 23 23 24 24 24 24 25 25 25 25 24 25 26 27 27 28 28 28 28 28 27 27 29 30 30 30 31 31 32 32
18 18 18 17 18 19 19 19 19 20 21 22 22 22 22 23 24 24 25 25 25 24 24 25 26 27 28 28 28 28 28 29 28 28 28 29 31 31 31 31 31 32 32
16 16 16 16 17 17 17 18 19 19 20 21 21 22 23 23 24 25 25 25 24 24 25 25 26 28 28 28 28 28 29 29 29 30 30 31 31 32 32 31 32 32 33

GEFSSE_500_meanwind_222.txt.gz
Wind_Speed
6 6 6 5 5 6 6 6 6 7 7 8 8 8 9 9 9 10 10 10 10 10 10 10 11 11 11 11 11 11 11 11 11 11 11 11 11 11 11 11 11 11 11
7 7 7 6 6 6 7 7 8 8 8 8 9 9 9 9 10 10 11 11 11 11 11 11 12 12 13 13 12 12 12 12 11 11 11 12 12 12 12 12 12 12 12
8 8 7 7 7 7 8 8 9 9 9 9 10 10 10 10 11 11 12 12 12 13 13 13 13 13 14 14 14 13 13 12 12 11 12 12 12 13 13 13 14 13 13
9 8 8 8 9 9 9 10 10 10 11 11 11 11 11 11 12 12 13 13 14 14 14 14 14 14 14 15 14 14 14 14 13 13 13 14 14 14 14 14 14 14 14
11 10 9 10 11 11 11 11 11 11 11 12 12 12 12 13 13 13 13 14 15 15 15 16 16 15 15 15 15 15 16 15 15 14 15 15 15 15 15 15 14 15 15
13 12 12 12 12 12 13 13 12 12 12 12 13 13 13 13 13 14 14 15 16 16 16 17 17 16 15 15 15 16 16 16 15 15 16 16 16 15 15 15 15 16 16
13 14 13 13 12 13 14 14 13 13 12 13 13 13 13 14 14 15 16 16 17 17 17 17 17 16 16 16 16 16 16 16 16 16 16 16 16 16 16 17 17 17 17
14 15 14 14 14 14 14 14 15 14 14 14 14 14 14 15 15 16 16 17 17 17 17 17 17 17 17 16 16 17 17 16 16 16 16 16 16 17 17 17 18 18 18
16 16 16 16 15 14 15 15 16 15 15 15 15 15 15 15 16 16 17 17 17 18 18 18 18 18 18 17 17 17 17 17 16 16 16 16 16 17 18 18 18 18 18
17 18 18 16 15 16 16 16 16 15 15 15 16 16 16 17 17 17 18 17 18 18 18 18 19 19 18 18 18 18 18 17 17 17 17 17 17 17 18 19 19 19 19
15 16 17 16 16 16 16 16 16 16 16 16 16 16 17 17 17 18 18 18 18 18 19 19 19 19 19 18 18 18 18 17 18 17 17 17 18 18 19 19 20 20 20
17 16 16 15 16 16 17 16 17 17 17 17 17 17 17 18 17 18 18 18 19 19 20 20 20 20 20 19 19 19 18 18 18 17 17 18 19 19 19 20 21 21 21
17 17 16 15 15 16 17 16 17 18 18 18 18 18 19 18 18 18 19 20 20 20 20 21 21 21 21 21 20 19 19 19 19 19 19 19 19 20 20 21 22 22 22
17 18 18 18 18 18 18 18 18 19 19 19 19 19 19 19 19 19 20 20 21 21 21 21 21 22 22 21 21 21 21 21 21 21 21 21 21 21 21 22 23 23 23
18 17 18 19 19 18 18 19 20 20 20 20 20 20 19 20 20 21 21 21 21 21 22 23 23 22 22 21 22 22 22 22 22 22 22 22 22 22 23 23 24 24 24
18 18 18 18 17 18 18 19 20 21 21 21 21 21 20 21 21 21 21 22 22 22 23 24 23 23 23 23 23 22 22 22 23 23 24 24 24 23 24 24 25 25 25
18 18 18 18 19 19 19 19 20 21 22 21 21 21 21 21 22 22 22 23 23 23 24 24 24 24 24 24 23 23 24 24 24 24 24 24 24 25 25 25 26 26 27
18 18 17 18 19 19 19 20 20 20 20 21 22 22 21 22 22 23 24 24 24 25 25 25 25 25 24 24 24 24 25 25 24 25 25 25 25 25 25 25 25 26 28
20 18 17 18 18 18 18 19 19 20 20 20 22 22 22 23 23 23 24 24 25 24 25 25 25 25 25 25 25 25 25 24 24 24 25 25 25 26 26 26 26 27 27
19 19 20 19 18 18 18 18 19 19 19 20 22 21 21 22 22 23 23 23 24 24 24 25 25 25 25 26 25 24 24 24 24 24 25 26 27 27 27 27 28 28 28
18 19 19 18 18 17 17 18 18 19 20 21 21 22 22 22 22 23 22 21 22 22 24 24 24 24 24 24 23 23 23 24 25 25 26 27 27 28 28 28 28 28 29
17 18 17 15 16 17 16 17 18 19 20 21 21 21 22 21 21 22 22 21 22 23 23 24 23 23 24 24 23 23 24 24 25 26 26 27 27 28 29 29 29 29 30
16 16 15 15 15 15 16 17 18 19 20 20 21 21 21 21 20 21 20 21 22 22 22 21 21 21 22 23 23 23 24 24 25 26 26 26 27 27 29 30 30 30 30
15 14 14 14 13 14 15 16 17 18 19 19 20 20 21 20 20 21 21 21 21 21 21 22 22 21 21 22 23 24 24 24 25 26 27 28 28 28 29 30 31 32 32
14 14 14 12 12 13 15 16 17 17 18 18 18 18 19 19 20 20 21 21 21 22 22 21 21 21 21 22 23 24 25 26 26 27 27 28 29 29 30 31 32 33 33
13 14 14 14 13 13 15 16 17 17 18 17 17 17 18 19 20 20 21 21 22 21 21 20 20 21 21 22 24 25 26 26 27 28 28 29 30 30 31 32 33 34 35

GEFSSE_500_meanwind_228.txt.gz
Wind_Speed
6 6 6 6 6 5 5 5 5 5 6 6 6 7 7 8 8 9 9 9 10 10 10 11 11 11 11 11 11 11 12 12 12 11 11 11 11 11 11 10 10 10 10
7 6 7 7 7 6 6 6 6 6 6 7 7 8 8 8 9 9 10 10 10 11 11 12 12 12 12 12 12 13 13 13 13 12 12 12 12 12 12 11 11 11 11
7 7 8 8 7 7 7 7 7 7 7 8 8 9 9 9 9 10 10 11 11 12 12 12 13 13 13 13 13 13 13 13 13 13 13 13 13 13 13 13 12 12 12
8 7 7 8 8 8 9 9 9 9 9 9 10 10 10 10 10 11 12 12 13 13 13 13 13 13 14 13 13 14 13 13 13 14 14 14 14 14 14 14 14 13 13
9 8 8 9 9 10 10 10 10 10 10 10 11 11 11 11 11 12 13 14 14 14 14 14 14 13 14 13 14 14 14 14 14 14 15 15 15 15 14 14 15 14 14
10 10 10 11 11 11 11 12 12 11 11 11 11 12 12 12 12 13 14 15 15 15 15 15 15 15 15 15 15 15 15 15 15 15 15 16 15 16 15 15 15 15 15
11 11 11 12 12 12 12 12 13 13 13 13 13 13 13 13 14 14 15 16 16 16 16 16 16 16 16 16 15 16 16 16 16 16 16 16 15 16 16 16 16 16 15
11 11 12 12 13 12 12 13 13 13 14 14 13 13 14 14 15 15 16 16 16 17 17 17 17 17 17 16 16 17 17 17 17 16 16 16 15 15 15 16 16 16 16
12 12 12 13 13 14 14 14 14 14 14 14 14 14 14 14 14 15 16 17 18 18 18 18 18 18 17 17 17 17 17 17 17 16 16 16 16 16 16 15 15 16 16
13 13 13 14 15 15 15 15 15 15 15 15 15 15 15 15 16 17 18 18 18 18 18 18 19 19 19 19 19 18 18 18 18 17 17 17 16 17 16 16 16 16 17
14 14 14 15 15 16 15 16 16 16 16 16 16 16 17 17 17 18 18 19 19 19 19 19 19 19 19 20 20 19 19 19 19 19 18 18 18 18 18 17 17 17 18
15 15 15 16 16 16 17 17 18 17 17 17 18 18 18 19 19 19 20 20 21 21 21 21 20 20 20 21 20 20 21 21 21 20 20 20 20 20 20 19 19 18 19
15 16 16 16 16 16 16 16 17 17 18 18 19 19 20 21 20 20 20 21 22 22 22 22 22 21 21 21 21 21 22 22 22 22 22 22 22 22 22 21 20 20 20
15 15 15 16 16 16 16 15 16 17 18 18 19 19 20 20 21 22 22 22 22 22 23 23 23 23 23 23 23 23 23 23 23 23 23 23 23 22 23 23 22 23 22
15 15 16 16 17 17 18 17 16 17 18 19 19 19 20 20 22 23 23 23 23 22 23 24 24 24 24 25 25 24 23 23 23 23 23 23 23 23 24 24 24 24 24
16 16 16 18 18 18 19 18 17 19 19 18 19 20 21 22 23 22 23 23 23 23 23 24 24 25 25 25 25 25 24 23 23 24 24 24 24 24 24 25 25 25 25
15 16 17 17 18 18 19 19 19 19 19 19 20 20 21 22 23 23 23 23 23 23 24 24 25 25 26 26 25 26 26 25 24 24 25 25 25 25 25 25 26 26 26
16 16 17 16 17 17 19 20 20 20 20 20 20 20 20 21 22 22 22 22 22 22 24 24 25 26 26 26 26 26 25 25 25 25 25 25 26 26 26 26 27 27 27
16 17 17 17 17 18 19 19 20 20 20 20 20 20 20 21 22 22 22 23 24 24 24 25 25 25 26 26 25 25 25 25 24 24 25 25 26 27 27 27 27 28 28
16 16 17 18 19 19 19 19 20 20 20 20 21 21 21 22 23 23 23 24 24 23 24 24 24 25 25 25 25 25 25 25 25 25 25 26 27 27 27 28 29 29 29
16 16 17 17 17 18 18 18 19 19 19 21 22 22 22 22 23 23 23 24 24 24 24 24 24 25 25 25 24 24 25 26 25 25 26 27 27 27 28 28 28 29 30
16 17 17 17 16 17 17 18 19 19 19 20 21 22 22 22 23 23 23 23 23 24 24 24 25 25 24 24 23 24 25 25 25 26 26 26 26 27 27 27 27 29 30
16 16 16 15 15 15 16 16 17 17 18 19 20 21 22 22 22 23 23 24 23 23 23 24 24 24 24 24 24 24 24 25 25 26 26 27 27 27 28 28 28 28 29
16 15 16 15 15 15 15 16 18 17 18 19 20 20 21 21 21 22 23 23 23 23 23 23 24 25 25 24 24 24 24 25 25 26 27 28 29 29 29 29 29 29 30
14 14 14 14 14 15 15 16 16 16 17 18 19 19 20 20 20 21 22 22 22 22 22 22 22 23 23 24 23 23 24 25 26 27 28 29 30 30 30 30 31 31 32
12 12 13 13 13 14 15 15 16 16 17 17 18 19 20 20 21 20 20 21 22 22 22 22 22 22 22 23 24 24 25 25 26 28 29 30 30 30 31 32 33 33 34

GEFSSE_500_meanwind_234.txt.gz
Wind_Speed
4 4 4 4 4 4 4 4 4 5 5 5 5 4 4 4 5 4 4 4 4 4 5 5 5 5 6 6 7 7 7 7 8 8 7 7 7 7 8 8 9 9 9
5 5 5 5 5 4 5 5 4 5 6 6 6 6 6 6 6 5 5 5 5 5 6 6 6 6 7 7 8 8 8 8 9 9 9 9 8 8 9 10 10 10 10
6 6 5 5 5 5 6 6 6 6 6 6 6 7 7 7 7 6 7 7 7 7 7 7 7 8 8 8 8 9 9 9 9 9 10 9 9 10 10 10 11 11 11
7 6 6 5 5 6 6 7 7 7 7 7 7 8 8 8 7 7 7 8 8 8 8 9 9 9 9 9 9 10 10 10 10 10 10 10 10 10 11 11 11 12 13
8 7 6 6 6 7 7 7 8 9 9 9 9 8 8 8 8 8 8 9 9 10 9 9 10 10 10 10 10 10 11 10 11 11 11 11 11 11 11 12 12 13 14
8 8 8 7 8 8 8 9 9 10 10 10 10 10 10 10 10 10 10 11 11 11 10 10 11 11 11 11 11 11 11 12 12 12 13 13 13 12 12 12 13 13 14
9 9 8 8 8 9 9 10 11 11 11 11 11 11 11 10 10 11 11 11 11 12 12 12 12 12 12 13 13 13 13 13 13 13 14 14 14 14 14 13 13 13 14
11 11 10 11 11 11 11 11 12 12 12 12 12 12 12 12 12 13 13 13 13 13 14 14 13 13 13 14 14 14 14 14 14 14 14 14 14 14 14 14 14 14 15
12 12 12 12 12 12 12 12 12 12 13 13 13 13 13 13 13 14 14 14 15 15 15 15 15 14 14 14 15 15 15 15 15 15 15 15 14 15 15 15 15 15 15
13 13 13 12 13 13 14 14 14 13 13 13 14 15 15 14 14 15 16 16 16 17 16 17 16 16 15 15 15 15 15 15 15 16 16 16 16 16 16 16 16 16 17
14 13 13 13 14 14 14 14 14 14 14 15 15 15 16 16 16 17 17 17 17 18 17 17 17 17 17 17 17 16 16 16 17 17 17 17 17 17 17 17 17 17 18
15 15 15 14 14 14 14 15 15 15 15 16 16 17 18 18 18 19 18 18 18 19 18 18 18 18 18 18 18 18 18 18 18 19 18 17 18 18 18 18 19 19 19
16 16 16 16 15 15 15 16 17 17 17 17 18 18 18 19 19 19 20 20 19 19 20 20 19 19 19 19 19 19 20 19 20 20 19 19 19 19 19 20 20 20 21
17 17 17 17 16 17 17 17 17 18 18 18 19 19 20 20 21 21 21 21 20 20 20 20 20 20 20 20 21 21 21 21 20 21 21 21 21 21 21 21 22 21 22
17 18 18 17 17 17 17 17 17 18 18 19 20 20 22 22 22 22 21 21 21 21 21 22 21 20 21 21 21 22 22 22 22 22 22 21 22 22 22 23 23 23 23
18 18 18 17 17 16 16 16 17 18 18 20 20 20 21 22 21 21 21 21 21 21 21 21 21 22 22 21 21 22 22 23 22 23 23 23 23 23 23 23 23 24 24
18 18 17 17 16 16 16 17 18 18 19 19 20 20 21 21 22 22 22 22 22 21 21 22 22 23 23 23 22 23 23 24 23 23 24 25 24 24 24 25 24 25 24
18 18 18 18 17 17 17 18 18 19 20 20 21 21 22 22 22 22 22 22 23 22 22 22 23 23 23 23 23 23 23 24 24 24 24 25 26 26 26 26 26 26 26
18 18 18 18 19 18 18 18 19 20 21 21 21 21 22 22 22 22 22 23 23 23 23 23 23 23 23 23 23 23 23 24 25 25 25 26 26 26 26 26 27 27 27
18 19 18 18 19 19 19 18 19 20 21 20 21 22 21 21 22 22 22 23 23 23 23 23 23 23 23 23 23 24 23 24 24 25 25 25 26 26 26 27 27 27 27
18 19 19 19 20 20 19 19 19 20 20 20 21 21 21 21 21 22 22 22 22 23 22 22 22 22 22 22 23 24 24 24 24 25 26 26 26 26 26 27 27 27 27
19 19 20 20 19 19 20 19 19 19 19 19 21 20 20 21 21 21 22 21 21 22 22 21 21 21 21 22 23 24 24 24 25 26 26 26 27 27 27 27 27 28 29
19 19 19 19 19 19 19 19 19 18 18 18 18 18 20 20 20 20 20 21 21 22 22 21 21 21 22 22 23 24 24 23 23 25 26 26 27 27 28 29 29 29 30
17 18 18 18 17 17 17 18 18 18 18 18 18 18 18 19 20 20 20 20 21 22 22 22 21 22 22 22 22 22 23 24 24 25 26 27 27 28 28 29 30 30 31
16 16 16 16 15 15 15 16 17 17 17 17 17 17 18 19 20 20 21 21 21 21 20 20 21 22 22 22 22 23 24 25 26 26 26 27 28 29 29 29 30 31 32
14 14 14 14 14 14 15 15 15 16 16 17 17 18 19 20 20 20 20 20 19 19 18 18 19 20 21 22 23 24 24 24 25 26 26 28 29 29 30 31 32 33 33

GEFSSE_500_meanwind_240.txt.gz
Wind_Speed
8 8 8 7 7 7 7 7 7 6 7 7 7 8 8 8 8 8 7 7 7 7 7 7 7 7 7 7 7 7 6 7 7 7 6 6 7 7 7 7 8 8 8
9 9 9 9 8 8 8 7 8 7 7 8 8 8 9 9 9 9 8 8 9 9 9 8 8 8 8 8 8 8 8 8 8 8 8 8 8 8 8 9 9 9 9
10 9 9 10 9 9 9 9 9 9 9 9 9 9 9 9 9 9 9 9 9 9 9 9 9 9 9 9 9 9 9 9 9 9 9 8 8 9 9 10 10 10 10
11 10 10 10 11 10 10 10 10 10 10 10 10 10 10 10 10 10 10 9 10 10 10 10 10 10 10 10 10 10 10 10 10 9 9 9 9 9 10 10 11 11 11
11 11 11 11 11 12 12 11 10 10 10 10 11 11 11 11 11 11 11 10 10 10 10 10 10 10 10 11 11 11 11 11 11 10 10 10 11 10 11 11 11 12 12
12 12 12 12 12 12 11 10 10 10 11 11 11 11 11 11 11 11 12 12 11 12 12 11 11 11 11 11 12 12 12 12 12 11 11 11 11 11 12 12 12 13 14
13 12 12 12 12 12 12 11 11 11 12 12 12 12 12 12 12 13 13 13 13 13 12 12 12 13 13 13 13 13 13 13 13 12 12 11 11 12 12 13 13 14 14
13 12 12 13 13 13 13 13 12 12 12 13 13 14 14 14 13 13 13 14 14 14 14 13 14 14 14 14 14 14 14 14 13 13 12 12 12 13 13 14 15 15 15
15 13 12 13 14 14 14 14 14 13 14 14 14 15 15 15 14 14 15 15 15 15 14 15 15 15 15 15 15 15 15 15 14 14 14 14 14 14 14 14 15 15 15
16 15 14 14 15 15 16 15 15 15 15 15 15 16 16 16 15 16 16 16 16 16 16 16 16 16 16 16 16 16 16 15 15 15 15 16 15 15 15 15 14 15 15
17 18 17 16 16 17 16 17 16 16 16 16 16 16 16 16 17 17 16 16 17 18 17 17 17 17 17 17 17 17 17 16 16 16 16 17 16 16 17 16 16 15 16
18 19 19 18 18 18 17 17 17 17 17 18 17 17 17 17 18 18 18 18 18 19 19 19 18 18 19 18 18 18 18 17 17 17 18 18 18 17 17 18 17 17 17
19 19 20 18 18 18 18 17 18 18 18 18 18 18 18 18 18 18 18 18 19 20 20 20 20 20 20 20 19 19 19 18 18 18 18 18 19 19 19 19 18 18 19
20 19 18 19 19 18 18 17 17 17 17 17 18 18 18 18 18 19 19 19 19 20 20 21 22 22 21 21 21 20 20 20 20 19 19 19 19 19 19 20 19 20 20
20 19 19 19 20 19 19 19 18 18 18 18 18 19 19 19 19 19 20 20 20 21 20 21 22 22 21 22 22 21 21 21 21 20 20 20 20 20 20 20 19 19 20
20 19 19 19 19 19 19 19 19 19 19 19 19 20 20 20 20 20 21 21 22 21 20 20 21 21 22 22 21 21 21 21 22 22 21 21 21 21 21 21 21 21 22
20 20 19 18 19 20 20 20 20 19 20 19 19 20 20 20 20 20 20 21 21 20 20 20 21 21 21 21 21 20 20 20 21 22 22 22 22 22 22 22 22 22 22
20 20 20 20 19 19 19 20 20 19 19 19 20 20 20 20 21 21 21 21 20 21 21 21 21 21 21 21 21 21 21 21 21 21 21 21 21 22 23 23 23 23 23
20 21 21 21 20 19 19 19 19 19 19 19 19 19 20 21 22 22 21 21 21 21 21 21 21 21 21 21 21 21 22 22 22 22 21 21 21 21 23 23 24 25 24
20 20 21 20 20 20 20 19 19 18 19 19 20 20 21 21 21 21 22 21 21 21 21 21 22 22 22 21 22 22 22 23 22 22 22 22 22 23 24 24 24 24 25
20 20 21 20 20 20 20 19 19 19 20 20 20 20 21 21 21 22 21 21 21 22 22 22 22 22 22 22 22 22 22 22 23 23 22 22 22 23 24 24 25 25 26
19 19 19 20 19 20 20 20 20 20 20 21 21 21 21 21 21 22 22 21 21 21 22 22 22 22 22 22 22 23 23 22 22 22 22 23 23 24 25 25 26 27 27
19 19 19 19 19 19 19 20 20 20 21 22 21 22 22 22 22 22 22 22 22 23 22 21 21 21 21 21 21 21 21 22 22 22 23 24 24 25 26 27 27 28 28
17 18 18 19 19 19 20 20 20 20 21 22 22 22 23 22 22 22 22 21 22 23 22 20 21 21 21 21 21 20 20 21 22 23 24 24 25 26 27 27 28 29 30
16 17 18 18 18 19 19 20 20 19 20 20 20 20 20 21 22 23 22 21 22 21 21 20 21 21 22 22 21 21 21 22 23 25 24 25 26 28 28 29 29 30 31
15 17 17 17 17 17 18 18 18 19 19 19 20 19 20 21 21 21 21 21 21 21 21 21 21 21 21 21 22 22 22 23 24 25 26 26 26 28 29 30 30 30 31